[[{"header":{"parameterUnit":"m.s-1","parameterCategory":1,"la1":30.6,"la2":28.766,"lo1":-90.7593,"lo2":-88.6598,"dy":0.0162,"dx":0.0183,"nx":116,"ny":114,"refTime":"2023-09-29T00:00:00:Z","depth":0,"parameterNumber":2,"parameterNumberName":"U-component_of_WINDS"},"data":[0.0,0.0,0.0,0.0,0.0,0.0,0.0,0.0,0.0,0.0,0.0,0.0,0.0,0.0,0.0,0.0,0.0,0.0,0.0,0.0,0.0,0.0,0.0,0.0,0.0,0.0,0.0,0.0,0.0,0.0,0.0,0.0,0.0,0.0,0.0,0.0,0.0,0.0,0.0,0.0,0.0,0.0,0.0,0.0,0.0,0.0,0.0,0.0,0.0,0.0,0.0,0.0,0.0,0.0,0.0,0.0,0.0,0.0,0.0,0.0,0.0,0.0,0.0,0.0,0.0,0.0,0.0,0.0,0.0,0.0,0.0,0.0,0.0,0.0,0.0,0.0,0.0,0.0,0.0,0.0,0.0,0.0,0.0,0.0,0.0,0.0,0.0,0.0,0.0,0.0,0.0,0.0,0.0,0.0,0.0,0.0,0.0,0.0,0.0,0.0,0.0,0.0,0.0,0.0,0.0,0.0,0.0,0.0,0.0,0.0,0.0,0.0,0.0,0.0,0.0,0.0,0.0,0.0,0.0,0.0,0.0,0.0,0.0,0.0,0.0,0.0,0.0,0.0,0.0,0.0,0.0,0.0,0.0,0.0,0.0,0.0,0.0,0.0,0.0,0.0,0.0,0.0,0.0,0.0,0.0,0.0,0.0,0.0,0.0,0.0,0.0,0.0,0.0,0.0,0.0,0.0,0.0,0.0,0.0,0.0,0.0,0.0,0.0,0.0,0.0,0.0,0.0,0.0,0.0,0.0,0.0,0.0,0.0,0.0,0.0,0.0,0.0,0.0,0.0,0.0,0.0,0.0,0.0,0.0,0.0,0.0,0.0,0.0,0.0,0.0,0.0,0.0,0.0,0.0,0.0,0.0,0.0,0.0,0.0,0.0,0.0,0.0,0.0,0.0,0.0,0.0,0.0,0.0,0.0,0.0,0.0,0.0,0.0,0.0,0.0,0.0,0.0,0.0,0.0,0.0,0.0,0.0,0.0,0.0,0.0,0.0,0.0,0.0,0.0,0.0,0.0,0.0,0.0,0.0,0.0,0.0,0.0,0.0,0.0,0.0,0.0,0.0,0.0,0.0,0.0,0.0,0.0,0.0,0.0,0.0,0.0,0.0,0.0,0.0,0.0,0.0,0.0,0.0,0.0,0.0,0.0,0.0,0.0,0.0,0.0,0.0,0.0,0.0,0.0,0.0,0.0,0.0,0.0,0.0,0.0,0.0,0.0,0.0,0.0,0.0,0.0,0.0,0.0,0.0,0.0,0.0,0.0,0.0,0.0,0.0,0.0,0.0,0.0,0.0,0.0,0.0,0.0,0.0,0.0,0.0,0.0,0.0,0.0,0.0,0.0,0.0,0.0,0.0,0.0,0.0,0.0,0.0,0.0,0.0,0.0,0.0,0.0,0.0,0.0,0.0,0.0,0.0,0.0,0.0,0.0,0.0,0.0,0.0,0.0,0.0,0.0,0.0,0.0,0.0,0.0,0.0,0.0,0.0,0.0,0.0,0.0,0.0,0.0,0.0,0.0,0.0,0.0,0.0,0.0,0.0,0.0,0.0,0.0,0.0,0.0,0.0,0.0,0.0,0.0,0.0,0.0,0.0,0.0,0.0,0.0,0.0,0.0,0.0,0.0,0.0,0.0,0.0,0.0,0.0,0.0,0.0,0.0,0.0,0.0,0.0,0.0,0.0,0.0,0.0,0.0,0.0,0.0,0.0,0.0,0.0,0.0,0.0,0.0,0.0,0.0,0.0,0.0,0.0,0.0,0.0,0.0,0.0,0.0,0.0,0.0,0.0,0.0,0.0,0.0,0.0,0.0,0.0,0.0,0.0,0.0,0.0,0.0,0.0,0.0,0.0,0.0,0.0,0.0,0.0,0.0,0.0,0.0,0.0,0.0,0.0,0.0,0.0,0.0,0.0,0.0,0.0,0.0,0.0,0.0,0.0,0.0,0.0,0.0,0.0,0.0,0.0,0.0,0.0,0.0,0.0,0.0,0.0,0.0,0.0,0.0,0.0,0.0,0.0,0.0,0.0,0.0,0.0,0.0,0.0,0.0,0.0,0.0,0.0,0.0,0.0,0.0,0.0,0.0,0.0,0.0,0.0,0.0,0.0,0.0,0.0,0.0,0.0,0.0,0.0,0.0,0.0,0.0,0.0,0.0,0.0,0.0,0.0,0.0,0.0,0.0,0.0,0.0,0.0,0.0,0.0,0.0,0.0,0.0,0.0,0.0,0.0,0.0,0.0,0.0,0.0,0.0,0.0,0.0,0.0,0.0,0.0,0.0,0.0,0.0,0.0,0.0,0.0,0.0,0.0,0.0,0.0,0.0,0.0,0.0,0.0,0.0,0.0,0.0,0.0,0.0,0.0,0.0,0.0,0.0,0.0,0.0,0.0,0.0,0.0,0.0,0.0,0.0,0.0,0.0,0.0,0.0,0.0,0.0,0.0,0.0,0.0,0.0,0.0,0.0,0.0,0.0,0.0,0.0,0.0,0.0,0.0,0.0,0.0,0.0,0.0,0.0,0.0,0.0,0.0,0.0,0.0,0.0,0.0,0.0,0.0,0.0,0.0,0.0,0.0,0.0,0.0,0.0,0.0,0.0,0.0,0.0,0.0,0.0,0.0,0.0,0.0,0.0,0.0,0.0,0.0,0.0,0.0,0.0,0.0,0.0,0.0,0.0,0.0,0.0,0.0,0.0,0.0,0.0,0.0,0.0,0.0,0.0,0.0,0.0,0.0,0.0,0.0,0.0,0.0,0.0,0.0,0.0,0.0,0.0,0.0,0.0,0.0,0.0,0.0,0.0,0.0,0.0,0.0,0.0,0.0,0.0,0.0,0.0,0.0,0.0,0.0,0.0,0.0,0.0,0.0,0.0,0.0,0.0,0.0,0.0,0.0,0.0,0.0,0.0,0.0,0.0,0.0,0.0,0.0,0.0,0.0,0.0,0.0,0.0,0.0,0.0,0.0,0.0,0.0,0.0,0.0,0.0,0.0,0.0,0.0,0.0,0.0,0.0,0.0,0.0,0.0,0.0,0.0,0.0,0.0,0.0,0.0,0.0,0.0,0.0,0.0,0.0,0.0,0.0,0.0,0.0,0.0,0.0,0.0,0.0,0.0,0.0,0.0,0.0,0.0,0.0,0.0,0.0,0.0,0.0,0.0,0.0,0.0,0.0,0.0,0.0,0.0,0.0,0.0,0.0,0.0,0.0,0.0,0.0,0.0,0.0,0.0,0.0,0.0,0.0,0.0,0.0,0.0,0.0,0.0,0.0,0.0,0.0,0.0,0.0,0.0,0.0,0.0,0.0,0.0,0.0,0.0,0.0,0.0,0.0,0.0,0.0,0.0,0.0,0.0,0.0,0.0,0.0,0.0,0.0,0.0,0.0,0.0,0.0,0.0,0.0,0.0,0.0,0.0,0.0,0.0,0.0,0.0,0.0,0.0,0.0,0.0,0.0,0.0,0.0,0.0,0.0,0.0,0.0,0.0,0.0,0.0,0.0,0.0,0.0,0.0,0.0,0.0,0.0,0.0,0.0,0.0,0.0,0.0,0.0,0.0,0.0,0.0,0.0,0.0,0.0,0.0,0.0,0.0,0.0,0.0,0.0,0.0,0.0,0.0,0.0,0.0,0.0,0.0,0.0,0.0,0.0,0.0,0.0,0.0,0.0,0.0,0.0,0.0,0.0,0.0,0.0,0.0,0.0,0.0,0.0,0.0,0.0,0.0,0.0,0.0,0.0,0.0,0.0,0.0,0.0,0.0,0.0,0.0,0.0,0.0,0.0,0.0,0.0,0.0,0.0,0.0,0.0,0.0,0.0,0.0,0.0,0.0,0.0,0.0,0.0,0.0,0.0,0.0,0.0,0.0,0.0,0.0,0.0,0.0,0.0,0.0,0.0,0.0,0.0,0.0,0.0,0.0,0.0,0.0,0.0,0.0,0.0,0.0,0.0,0.0,0.0,0.0,0.0,0.0,0.0,0.0,0.0,0.0,0.0,0.0,0.0,0.0,0.0,0.0,0.0,0.0,0.0,0.0,0.0,0.0,0.0,0.0,0.0,0.0,0.0,0.0,0.0,0.0,0.0,0.0,0.0,0.0,0.0,0.0,0.0,0.0,0.0,0.0,0.0,0.0,0.0,0.0,0.0,0.0,0.0,0.0,0.0,0.0,0.0,0.0,0.0,0.0,0.0,0.0,0.0,0.0,0.0,0.0,0.0,0.0,0.0,0.0,0.0,0.0,0.0,0.0,0.0,0.0,0.0,0.0,0.0,0.0,0.0,0.0,0.0,0.0,0.0,0.0,0.0,0.0,0.0,0.0,0.0,0.0,0.0,0.0,0.0,0.0,0.0,0.0,0.0,0.0,0.0,0.0,0.0,0.0,0.0,0.0,0.0,0.0,0.0,0.0,0.0,0.0,0.0,0.0,0.0,0.0,0.0,0.0,0.0,0.0,0.0,0.0,0.0,0.0,0.0,0.0,0.0,0.0,0.0,0.0,0.0,0.0,0.0,0.0,0.0,0.0,0.0,0.0,0.0,0.0,0.0,0.0,0.0,0.0,0.0,0.0,0.0,0.0,0.0,0.0,0.0,0.0,0.0,0.0,0.0,0.0,0.0,0.0,0.0,0.0,0.0,0.0,0.0,0.0,0.0,0.0,0.0,0.0,0.0,0.0,0.0,0.0,0.0,0.0,0.0,0.0,0.0,0.0,0.0,0.0,0.0,0.0,0.0,0.0,0.0,0.0,0.0,0.0,0.0,0.0,0.0,0.0,0.0,0.0,0.0,0.0,0.0,0.0,0.0,0.0,0.0,0.0,0.0,0.0,0.0,0.0,0.0,0.0,0.0,0.0,0.0,0.0,0.0,0.0,0.0,0.0,0.0,0.0,0.0,0.0,0.0,0.0,0.0,0.0,0.0,0.0,0.0,0.0,0.0,0.0,0.0,0.0,0.0,0.0,0.0,0.0,0.0,0.0,0.0,0.0,0.0,0.0,0.0,0.0,0.0,0.0,0.0,0.0,0.0,0.0,0.0,0.0,0.0,0.0,0.0,0.0,0.0,0.0,0.0,0.0,0.0,0.0,0.0,0.0,0.0,0.0,0.0,0.0,0.0,0.0,0.0,0.0,0.0,0.0,0.0,0.0,0.0,0.0,0.0,0.0,0.0,0.0,0.0,0.0,0.0,0.0,0.0,0.0,0.0,0.0,0.0,0.0,0.0,0.0,0.0,0.0,0.0,0.0,0.0,0.0,0.0,0.0,0.0,0.0,0.0,0.0,0.0,0.0,0.0,0.0,0.0,0.0,0.0,0.0,0.0,0.0,0.0,0.0,0.0,0.0,0.0,0.0,0.0,0.0,0.0,0.0,0.0,0.0,0.0,0.0,0.0,0.0,0.0,0.0,0.0,0.0,0.0,0.0,0.0,0.0,0.0,0.0,0.0,0.0,0.0,0.0,0.0,0.0,0.0,0.0,0.0,0.0,0.0,0.0,0.0,0.0,0.0,0.0,0.0,0.0,0.0,0.0,0.0,0.0,0.0,0.0,0.0,0.0,0.0,0.0,0.0,0.0,0.0,0.0,0.0,0.0,0.0,0.0,0.0,0.0,0.0,0.0,0.0,0.0,0.0,0.0,0.0,0.0,0.0,0.0,0.0,0.0,0.0,0.0,0.0,0.0,0.0,0.0,0.0,0.0,0.0,0.0,0.0,0.0,0.0,0.0,0.0,0.0,0.0,0.0,0.0,0.0,0.0,0.0,0.0,0.0,0.0,0.0,0.0,0.0,0.0,0.0,0.0,0.0,0.0,0.0,0.0,0.0,0.0,0.0,0.0,0.0,0.0,0.0,0.0,0.0,0.0,0.0,0.0,0.0,0.0,0.0,0.0,0.0,0.0,0.0,0.0,0.0,0.0,0.0,0.0,0.0,0.0,0.0,0.0,0.0,0.0,0.0,0.0,0.0,0.0,0.0,0.0,0.0,0.0,0.0,0.0,0.0,0.0,0.0,0.0,0.0,0.0,0.0,0.0,0.0,0.0,0.0,0.0,0.0,0.0,0.0,0.0,0.0,0.0,0.0,0.0,0.0,0.0,0.0,0.0,0.0,-2.0208,-1.9746,0.0,0.0,0.0,0.0,0.0,0.0,0.0,0.0,0.0,0.0,0.0,0.0,0.0,0.0,0.0,0.0,0.0,0.0,0.0,0.0,0.0,0.0,0.0,0.0,0.0,0.0,0.0,0.0,0.0,0.0,0.0,0.0,0.0,0.0,0.0,0.0,0.0,-2.846,-2.9645,-3.1214,-3.3177,-3.3166,-3.0501,-2.5708,0.0,0.0,0.0,0.0,0.0,0.0,0.0,0.0,0.0,0.0,0.0,0.0,0.0,0.0,0.0,0.0,0.0,0.0,0.0,0.0,0.0,0.0,0.0,0.0,0.0,0.0,0.0,0.0,0.0,0.0,0.0,0.0,0.0,0.0,0.0,0.0,0.0,0.0,0.0,0.0,0.0,0.0,0.0,0.0,0.0,0.0,0.0,0.0,0.0,0.0,0.0,0.0,0.0,0.0,0.0,0.0,0.0,0.0,0.0,0.0,0.0,0.0,0.0,0.0,0.0,0.0,0.0,0.0,0.0,0.0,-2.1318,-2.0828,0.0,0.0,0.0,0.0,0.0,0.0,0.0,0.0,0.0,0.0,0.0,0.0,0.0,0.0,0.0,0.0,0.0,0.0,0.0,0.0,0.0,0.0,0.0,-2.6596,-2.6639,-2.5784,-2.6238,-2.6001,-2.4652,0.0,0.0,0.0,0.0,0.0,-2.599,-2.6572,-2.7335,-2.8263,-3.0528,-3.32,-3.6204,-3.714,-3.4564,-2.9063,-2.7096,0.0,0.0,0.0,0.0,0.0,0.0,0.0,0.0,0.0,0.0,0.0,0.0,0.0,0.0,0.0,0.0,0.0,0.0,0.0,0.0,0.0,0.0,0.0,0.0,0.0,0.0,0.0,0.0,0.0,0.0,0.0,0.0,0.0,0.0,0.0,0.0,0.0,0.0,0.0,0.0,0.0,0.0,0.0,0.0,0.0,0.0,0.0,0.0,0.0,0.0,0.0,0.0,0.0,0.0,0.0,0.0,0.0,0.0,0.0,0.0,0.0,0.0,0.0,-2.3387,-2.3709,-2.4236,-2.4268,-2.416,-2.3744,-2.2148,-2.1661,-2.1916,-2.1142,0.0,0.0,0.0,0.0,0.0,0.0,0.0,0.0,0.0,0.0,0.0,0.0,0.0,0.0,0.0,0.0,0.0,0.0,0.0,-2.3041,-2.3654,-2.4982,-2.5939,-2.6165,-2.6617,-2.6601,-2.6069,0.0,0.0,0.0,0.0,-2.3891,-2.3891,-2.4725,-2.6371,-2.8948,-3.3469,-3.6125,-3.7051,-3.8182,-3.7933,-3.6455,-3.3923,-3.1035,-2.7874,0.0,0.0,0.0,0.0,0.0,0.0,0.0,0.0,0.0,0.0,0.0,0.0,0.0,0.0,0.0,0.0,0.0,0.0,0.0,0.0,0.0,0.0,0.0,0.0,0.0,0.0,0.0,0.0,0.0,0.0,0.0,0.0,0.0,0.0,0.0,0.0,0.0,0.0,0.0,0.0,0.0,-2.5247,-2.4534,0.0,0.0,0.0,0.0,0.0,0.0,0.0,0.0,0.0,0.0,0.0,0.0,0.0,-2.3747,-2.4464,-2.5451,-2.5865,-2.5659,-2.5692,-2.6234,-2.7084,-2.4612,-2.4111,-2.512,-2.3388,0.0,-2.2622,-2.2147,0.0,0.0,0.0,0.0,0.0,0.0,0.0,0.0,0.0,0.0,0.0,0.0,0.0,0.0,0.0,0.0,0.0,0.0,0.0,0.0,0.0,-2.6105,-2.7261,-2.6858,-2.8338,-2.8269,-2.5796,-2.5716,0.0,0.0,-2.3438,-2.3601,-2.3892,-2.5043,-2.8045,-3.298,-3.7147,-3.9923,-4.1379,-4.1882,-4.2544,-4.3224,-4.0713,-3.6611,-3.1392,-2.8261,0.0,0.0,0.0,0.0,0.0,0.0,0.0,0.0,0.0,0.0,0.0,0.0,0.0,0.0,0.0,0.0,0.0,0.0,0.0,0.0,0.0,0.0,0.0,0.0,0.0,0.0,0.0,0.0,0.0,0.0,0.0,0.0,0.0,0.0,0.0,0.0,0.0,0.0,0.0,-2.4661,-2.6239,-2.4842,-2.4991,-2.4446,0.0,0.0,0.0,0.0,0.0,0.0,0.0,0.0,0.0,-2.5142,-2.4967,-2.5141,-2.5673,-2.5549,-2.5449,-2.525,-2.5328,-2.5881,-2.6892,-2.4778,-2.4525,-2.5665,-2.4108,-2.3283,-2.3013,-2.2501,-2.1836,-2.1197,0.0,0.0,0.0,0.0,-2.064,-2.1038,0.0,0.0,0.0,0.0,0.0,0.0,0.0,0.0,0.0,0.0,0.0,0.0,-2.4823,-2.7134,-2.8368,-2.7982,-2.9807,-2.9467,-2.5996,-2.6107,-2.521,-2.2774,-2.2917,-2.3253,-2.3621,-2.6103,-3.0021,-3.5485,-3.9091,-4.1769,-4.3535,-4.3682,-4.4497,-4.5809,-4.3992,-4.0486,-3.5746,-3.2696,-2.8784,-2.4262,0.0,0.0,0.0,0.0,0.0,0.0,0.0,0.0,0.0,0.0,0.0,0.0,0.0,0.0,0.0,0.0,0.0,0.0,0.0,0.0,0.0,0.0,0.0,0.0,0.0,0.0,0.0,0.0,0.0,0.0,0.0,0.0,0.0,0.0,0.0,0.0,0.0,-2.5956,-2.7411,-2.5486,-2.6406,-2.6406,0.0,0.0,0.0,0.0,0.0,0.0,-2.6481,-2.5887,-2.6072,-2.7272,-2.6443,-2.6125,-2.6512,-2.5589,-2.5117,-2.497,-2.489,-2.5469,-2.6617,-2.4966,-2.4846,-2.5888,-2.4371,-2.3487,-2.3155,-2.278,-2.2216,-2.1697,-2.1343,-2.1107,-2.0937,-2.0937,-2.1159,-2.1645,0.0,0.0,0.0,0.0,0.0,0.0,0.0,0.0,0.0,0.0,0.0,-2.3291,-2.5408,-2.689,-2.8363,-2.9937,-3.0135,-2.947,-2.7708,-2.6436,-2.4773,-2.2582,-2.2156,-2.1981,-2.202,-2.7455,-3.1497,-3.3989,-3.7736,-3.9899,-4.0522,-4.1122,-4.1433,-4.1497,-4.1407,-4.2023,-4.2821,-3.7703,-3.4017,-3.1044,-2.4808,0.0,0.0,0.0,0.0,0.0,0.0,0.0,0.0,0.0,0.0,0.0,0.0,0.0,0.0,0.0,0.0,0.0,0.0,0.0,0.0,0.0,0.0,0.0,0.0,0.0,0.0,0.0,0.0,0.0,0.0,0.0,0.0,0.0,0.0,0.0,0.0,0.0,0.0,-2.7806,-2.9707,0.0,0.0,0.0,0.0,-2.9746,-3.0548,-3.1599,-3.2902,-3.0157,-2.9212,-3.0697,-2.7884,-2.6465,-2.676,-2.6707,-2.644,-2.597,-2.5598,-2.6107,-2.7199,-2.516,-2.4846,-2.5873,-2.408,-2.318,-2.2942,-2.3227,-2.3155,-2.2845,-2.2855,-2.2871,-2.2871,-2.2871,-2.3151,-2.3472,0.0,0.0,0.0,0.0,0.0,0.0,0.0,0.0,-1.8118,-1.897,-2.1197,-2.3346,-2.5038,-2.8432,-3.0918,-3.1797,-3.2891,-3.2578,-3.0293,-2.8418,-2.6426,-2.4258,-2.2949,-2.3203,-2.5137,-2.9559,-3.2952,-3.5251,-3.8455,-4.0293,-4.0912,-4.1091,-4.1181,-4.1158,-4.0781,-4.116,-4.1813,-3.7406,-3.379,-3.0586,-2.6269,-2.3367,0.0,0.0,0.0,0.0,0.0,0.0,0.0,0.0,0.0,0.0,0.0,0.0,0.0,0.0,0.0,0.0,0.0,0.0,0.0,0.0,0.0,0.0,0.0,0.0,0.0,0.0,0.0,0.0,0.0,0.0,0.0,0.0,0.0,0.0,0.0,0.0,0.0,-3.1249,-3.3164,0.0,-3.1738,-3.1328,-3.1043,-3.0597,-3.0325,-3.0019,-2.9654,-2.8266,-2.7707,-2.8028,-2.7344,-2.7001,-2.7108,-2.6921,-2.6627,-2.6226,-2.5945,-2.6343,-2.7243,-2.5174,-2.4957,-2.6171,-2.4149,-2.326,-2.3113,-2.3065,-2.2869,-2.2552,-2.261,-2.2503,-2.2333,-2.2333,-2.2466,-2.2557,0.0,0.0,0.0,0.0,0.0,0.0,0.0,-1.6309,-1.7322,-1.8913,-2.1628,-2.4306,-2.6542,-3.043,-3.3105,-3.3828,-3.4668,-3.385,-3.077,-2.9172,-2.6885,-2.3669,-2.3269,-2.466,-2.8027,-3.1091,-3.3608,-3.556,-3.7784,-3.9066,-3.9431,-3.9431,-3.9431,-3.9431,-3.9044,-3.898,-3.9044,-3.6498,-3.4223,-3.2094,-2.8625,-2.6119,-2.4191,0.0,0.0,0.0,0.0,0.0,0.0,0.0,0.0,0.0,0.0,0.0,0.0,0.0,0.0,0.0,0.0,0.0,0.0,0.0,0.0,0.0,0.0,0.0,0.0,0.0,0.0,0.0,0.0,0.0,0.0,0.0,0.0,0.0,0.0,-2.8861,-3.1556,-3.2825,-3.5176,-3.5743,-3.3434,-3.3463,-3.3139,-3.1876,-3.1332,-3.0798,-3.0269,-2.8892,-2.8189,-2.8381,-2.7866,-2.7562,-2.7562,-2.7175,-2.6774,-2.6386,-2.6092,-2.6219,-2.6485,-2.5157,-2.4915,-2.5555,-2.4184,-2.3514,-2.3313,-2.3207,-2.2993,-2.2712,-2.2605,-2.2512,-2.2418,-2.2325,-2.2352,-2.2365,0.0,0.0,0.0,0.0,0.0,0.0,-1.4688,-1.592,-1.7785,-2.0465,-2.3056,-2.6057,-2.9752,-3.2539,-3.4629,-3.5879,-3.5195,-3.3002,-2.9067,-2.8423,-2.5904,-2.0767,-2.3035,-2.6247,-3.0176,-3.1934,-3.3437,-3.4707,-3.5586,-3.6016,-3.6016,-3.6016,-3.6016,-3.6016,-3.5928,-3.5714,-3.5343,-3.5257,-3.5679,-3.5994,-3.1976,-2.9513,-2.7883,0.0,0.0,0.0,0.0,0.0,0.0,0.0,0.0,0.0,0.0,0.0,0.0,0.0,0.0,0.0,0.0,0.0,0.0,0.0,0.0,0.0,0.0,0.0,0.0,0.0,0.0,0.0,0.0,0.0,0.0,0.0,0.0,0.0,-2.6136,-3.0898,-3.3672,-3.2519,-3.5636,-3.6251,-3.2087,-3.3893,-3.4842,-3.3818,-3.3836,-3.4359,-3.5208,-3.2345,-3.1129,-3.2134,-2.9578,-2.8221,-2.8221,-2.7645,-2.6987,-2.6426,-2.6119,-2.5678,-2.5117,-2.5104,-2.4783,-2.4249,-2.4235,-2.3901,-2.3394,-2.3674,-2.3607,-2.3313,-2.3006,-2.3073,-2.33,-2.2993,-2.306,-2.3166,0.0,0.0,0.0,0.0,0.0,0.0,-1.3223,-1.3994,-1.5448,-1.8021,-2.1941,-2.5702,-2.8867,-3.2694,-3.5176,-3.5527,-3.4746,-3.2873,-2.9651,-2.7623,-2.5543,-2.3477,-2.5829,-2.8427,-3.1113,-3.2539,-3.373,-3.4707,-3.5586,-3.6016,-3.6016,-3.6016,-3.6016,-3.5928,-3.4338,-3.3687,-3.3697,-3.2065,-3.1293,-3.1107,-3.1496,-3.0684,-2.8979,0.0,0.0,0.0,0.0,0.0,0.0,0.0,0.0,0.0,0.0,0.0,0.0,0.0,0.0,0.0,0.0,0.0,0.0,0.0,0.0,0.0,0.0,0.0,0.0,0.0,0.0,0.0,0.0,0.0,0.0,0.0,-2.2314,-2.5647,-2.9974,-3.2308,-3.4429,-3.702,-3.7387,-3.7115,-3.6232,-3.5521,-3.4211,-3.2079,-3.244,-3.2053,-3.0281,-2.9607,-2.9088,-2.8965,-2.823,-2.7923,-2.8221,-2.7645,-2.7295,-2.7335,-2.6613,-2.6186,-2.6012,-2.5585,-2.5304,-2.5144,-2.493,-2.4623,-2.4262,-2.4142,-2.3915,-2.3647,-2.3554,-2.3581,-2.3607,-2.3313,-2.2979,-2.2605,0.0,0.0,0.0,0.0,0.0,0.0,-1.203,-1.287,-1.4379,-1.7041,-2.0822,-2.4351,-2.7116,-3.0502,-3.253,-3.2345,-3.1487,-2.9719,-2.6734,-2.4278,-2.3469,-2.4637,-2.6581,-2.8523,-3.0402,-3.2772,-3.3985,-3.4059,-3.5336,-3.5491,-3.4618,-3.472,-3.4359,-3.3399,-3.2207,-3.1722,-3.1652,-3.052,-2.9798,-2.9385,-3.0632,-3.0156,-2.8473,-2.7221,-2.6027,-2.4911,-2.4086,-2.3376,-2.2447,-1.9862,0.0,0.0,0.0,0.0,0.0,0.0,0.0,0.0,0.0,0.0,0.0,0.0,0.0,0.0,0.0,0.0,0.0,0.0,0.0,0.0,0.0,0.0,0.0,0.0,-2.331,-2.6653,-3.1274,-3.2345,-3.3606,-3.6212,-3.6195,-3.577,-3.5184,-3.4243,-3.2837,-3.0609,-3.0866,-3.0475,-2.8985,-2.9058,-2.8991,-2.8644,-2.8511,-2.847,-2.8524,-2.7923,-2.7655,-2.7696,-2.7054,-2.6627,-2.6373,-2.6039,-2.5745,-2.5504,-2.5331,-2.5024,-2.4636,-2.4583,-2.4329,-2.3941,0.0,0.0,0.0,0.0,-2.2979,-2.2218,0.0,0.0,0.0,0.0,0.0,0.0,-1.092,-1.2153,-1.4049,-1.6877,-1.9847,-2.2663,-2.5208,-2.729,-2.8372,-2.8037,-2.7086,-2.5215,-2.2281,-2.0288,-2.0888,-2.4603,-2.6126,-2.7518,-2.8933,-3.2344,-3.3658,-3.282,-3.4502,-3.4333,-3.2442,-3.2713,-3.1844,-2.9917,-2.9916,-2.9743,-2.9444,-2.9579,-2.9389,-2.9147,-2.9147,-2.8461,-2.7312,-2.6129,-2.5404,-2.4935,-2.4156,-2.3577,-2.2776,-2.0807,0.0,0.0,0.0,0.0,0.0,0.0,0.0,0.0,0.0,0.0,0.0,0.0,0.0,0.0,0.0,0.0,0.0,0.0,0.0,0.0,0.0,0.0,0.0,0.0,-2.5019,-2.7004,-3.0616,-3.1237,-3.1706,-3.2912,-3.3523,-3.3193,-3.1482,-3.1505,-3.1067,-2.9716,-2.9606,-2.9726,-2.9953,-2.994,0.0,0.0,0.0,-2.9312,-2.9045,-2.8444,-2.8003,-2.7749,-2.7415,-2.7014,-2.6533,-2.6466,-2.6159,-2.5651,-2.5585,-2.5251,-2.4682,-2.4759,-2.4298,-2.3554,-2.3556,-2.3654,-2.3826,-2.3535,-2.2717,-2.1753,0.0,0.0,0.0,0.0,0.0,0.0,-0.9542,-1.1003,-1.2994,-1.5833,-1.902,-2.2103,-2.487,-2.6812,-2.7781,-2.7634,-2.6463,-2.4557,-2.176,-2.146,-2.2186,-2.3963,-2.6056,-2.7654,-2.8656,-2.9699,-3.0275,-3.0369,-3.1092,-3.1194,-3.0775,-3.0842,-3.063,-3.0123,-2.8428,-2.7748,-2.7818,-2.6128,-2.5447,-2.5615,-2.5615,-2.6687,-2.8311,-2.7736,-2.6838,-2.588,-2.5396,-2.5603,-2.5614,-2.2793,-2.2349,-2.2409,-1.9194,-1.7582,0.0,0.0,0.0,0.0,0.0,0.0,0.0,0.0,0.0,0.0,0.0,0.0,0.0,0.0,0.0,0.0,0.0,0.0,0.0,-2.3502,-2.5048,-2.6411,-2.795,-2.8183,-2.9581,-3.3383,-3.2595,-3.1858,-3.2055,-3.0947,-3.0239,-3.0258,-3.0408,-3.0461,-3.0287,-3.0047,-2.9913,-2.9913,-2.9406,-2.9098,-2.9045,-2.8444,-2.8194,-2.814,-2.7604,0.0,-2.7428,-2.6947,-2.668,-2.6547,-2.6079,-2.5665,-2.5179,-2.3366,-2.1412,-1.9843,-2.1311,-2.1704,-2.1522,-2.1256,-2.069,-2.0245,0.0,0.0,0.0,0.0,0.0,0.0,-0.8466,-0.9823,-1.1423,-1.3097,-1.5437,-1.7874,-2.0265,-2.1467,-2.229,-2.2686,-2.2009,-2.1283,-2.063,-2.1208,-2.2137,-2.3459,-2.568,-2.6755,-2.6602,-2.8478,-2.9195,-2.8577,-2.9731,-2.9715,-2.8633,-2.8821,-2.832,-2.7164,-2.6243,-2.5909,-2.5991,-2.4842,-2.4502,-2.4636,-2.4636,-2.5335,-2.6349,-2.6201,-2.5553,-2.4745,-2.4532,-2.4523,-2.4405,-2.2722,-2.2377,-2.2355,-2.0245,-1.9078,-1.8331,0.0,0.0,0.0,0.0,0.0,0.0,0.0,0.0,0.0,0.0,0.0,0.0,0.0,0.0,-1.9399,-2.0294,0.0,-2.3193,-2.4823,-2.5945,-2.6921,-2.7816,-2.7936,-2.8744,-3.0839,-3.0242,-3.0057,-3.1003,-3.0335,-3.01,-3.0541,-3.0849,-3.0889,-3.0595,-3.0568,-3.0434,-3.0154,-2.986,-2.9486,-2.9045,-2.8738,-2.8444,-2.8221,-2.7926,-2.7629,-2.7468,-2.6006,-2.5805,-2.6494,-2.397,-2.3327,-2.383,-2.1334,-1.966,-1.8617,-1.8356,-1.8738,-1.9398,-1.9168,-1.8696,-1.8226,0.0,0.0,0.0,0.0,0.0,0.0,-0.751,-0.869,-0.9804,-1.0449,-1.1812,-1.3398,-1.5129,-1.5629,-1.6121,-1.6879,-1.7289,-1.8013,-1.9181,-2.0531,-2.1844,-2.31,-2.4833,-2.5371,-2.4449,-2.7098,-2.8011,-2.6925,-2.8485,-2.8259,-2.6515,-2.6793,-2.601,-2.4302,-2.4529,-2.4676,-2.4716,-2.4663,-2.4676,-2.4716,-2.4663,-2.4489,-2.4289,-2.4289,-2.3888,-2.3313,-2.326,-2.2806,-2.2218,-2.2044,-2.179,-2.1494,-2.0708,-2.0254,-1.9693,-1.8263,-1.7716,0.0,0.0,0.0,0.0,0.0,0.0,0.0,0.0,-1.8635,-1.9168,-2.0353,-2.1029,-2.1683,-2.2739,-2.3861,-2.509,-2.6493,-2.7228,-2.7883,-2.8671,-2.8724,-2.8604,-2.835,-2.8449,-2.8804,-2.982,-2.9967,-3.0247,-3.0835,-3.1089,-3.1156,-3.0969,-3.1129,-3.0982,-3.0461,-3.0394,-2.9967,-2.9138,-2.8622,-2.8061,-2.7624,-2.7037,-2.66,-2.6071,-2.4199,-2.4008,-2.5059,-2.126,-2.0248,-2.1013,-1.8886,-1.771,-1.719,-1.5274,-1.5406,-1.6714,-1.6907,-1.6599,-1.6108,0.0,0.0,0.0,0.0,0.0,0.0,0.0,0.0,-0.8675,-0.9536,-1.082,-1.2106,-1.3192,-1.3333,-1.3355,-1.3222,-1.567,-1.7269,-1.7313,-2.0177,-2.2071,-2.2498,-2.3267,-2.3739,-2.3861,-2.4249,-2.4579,-2.4918,-2.5139,-2.5111,-2.4864,-2.4904,-2.4757,-2.4596,-2.4623,-2.4783,-2.501,-2.4743,-2.4783,-2.501,-2.4743,-2.4549,-2.4596,-2.4596,-2.4062,-2.3287,-2.3006,-2.2365,-2.1748,-2.1911,-2.179,-2.1601,-2.1494,-2.1029,-2.0347,-1.9132,-1.821,-1.7488,-1.7125,-1.7435,-1.7889,-1.7849,-1.8758,-1.9666,0.0,-2.0989,-2.1977,-2.2138,-2.3046,-2.4008,-2.4663,-2.5531,-2.6533,-2.7832,-2.8444,-2.8965,-2.9339,-2.9165,-2.8978,-2.8938,-2.9179,-2.9486,-2.9873,-3.0154,-3.0555,-3.1129,-3.1209,-3.133,-3.1557,-3.1356,-3.1076,-3.0755,-3.0488,-3.006,-2.9446,-2.7096,-2.5763,-2.5464,-2.3053,-2.1966,-2.1817,-2.1242,-2.1108,-2.118,-1.9863,-1.8211,-1.6536,-1.6008,-1.4694,-1.2975,-1.2571,-1.2416,-1.2685,-1.4065,-1.4414,-1.4325,0.0,0.0,0.0,0.0,0.0,0.0,0.0,0.0,-0.7087,-0.7554,-0.8246,-0.9183,-1.0464,-1.1436,-1.2083,-1.2335,-1.3834,-1.5043,-1.5784,-1.7667,-1.9025,-1.9724,-2.0184,-2.0493,-2.0757,-2.1946,-2.2657,-2.2819,-2.4031,-2.4636,-2.4636,-2.4636,-2.473,-2.489,-2.4716,-2.4796,-2.5077,-2.4943,-2.4863,-2.4823,-2.4877,-2.4796,-2.4549,-2.4449,-2.3834,-2.302,-2.2712,-2.2151,0.0,-2.1296,-2.1256,-2.1296,-2.1296,-2.1015,-2.0481,-1.9479,-1.8918,-1.8704,-1.9149,-1.9252,-1.9461,-2.0374,-2.1229,-2.2017,-2.2645,-2.314,-2.3701,-2.4556,-2.5264,-2.5905,-2.6493,-2.7335,-2.8203,-2.9045,-2.9526,-2.9847,-2.998,-2.974,-2.9419,-2.9085,-2.9299,-2.9606,-2.9887,-3.0181,-3.0528,-3.0942,-3.1129,-3.1276,-3.1396,-3.1289,-3.0423,-2.8719,-2.8352,-2.722,-2.5086,-2.404,-2.3345,-2.2837,-2.1838,-2.1195,-2.0933,-1.9354,-1.7781,-1.6369,-1.7155,-1.6154,-1.396,-1.3789,-1.3223,-1.2393,-1.2155,-1.202,-1.2005,-1.2481,-1.2547,-1.2376,0.0,0.0,0.0,0.0,0.0,0.0,0.0,0.0,0.0,0.0,-0.6383,-0.6824,-0.7707,-0.8854,-0.9804,-1.0339,-1.1322,-1.2513,-1.3927,-1.5416,-1.6644,-1.749,-1.7865,-1.8178,-1.8471,-1.9907,-2.0699,-2.0767,-2.2198,-2.2967,-2.2967,-2.35,-2.3913,-2.4181,-2.4433,-2.4796,-2.5077,-2.4997,-2.493,-2.4877,-2.493,-2.4823,-2.4583,-2.4128,-2.3354,-2.2526,-2.2164,-2.147,-2.0703,-2.0214,-2.0107,-2.016,-2.0334,-2.0294,-1.9993,-1.8855,-1.8173,-1.8248,-2.0006,-2.0082,-2.0211,-2.2138,-2.318,-2.3941,-2.4903,-2.5077,-2.5398,-2.6613,-2.7041,-2.7362,-2.7963,-2.8604,-2.9259,-2.9927,-3.0287,-3.0474,-3.0474,-2.9609,-2.8652,-2.8082,-2.7533,-2.7347,-2.7597,-2.9221,-3.0394,-3.0768,-3.0318,-3.0114,-3.0282,-2.9532,-2.8217,-2.6058,-2.5808,-2.4566,-2.208,-2.138,-2.0897,-2.0443,-1.979,-1.9301,-1.8931,-1.7145,-1.5173,-1.3247,-1.4681,-1.4354,-1.2718,-1.2562,-1.2481,-1.242,-1.2162,-1.2033,-1.1965,-1.1714,-1.145,-1.1212,0.0,0.0,0.0,0.0,0.0,0.0,0.0,0.0,0.0,0.0,0.0,-0.5778,-0.5084,-0.5189,-0.542,-0.5769,-0.7897,-0.9924,-1.1492,-1.434,-1.6108,-1.6601,-1.7178,-1.7721,-1.809,-1.8174,-1.835,-1.8723,-1.8723,-1.8799,-1.8799,-2.0767,-2.1676,-2.1763,-2.3722,-2.4796,-2.5064,-2.477,-2.497,-2.5438,-2.4877,-2.4649,-2.4543,-2.3674,-2.2619,-2.1614,-2.1256,-2.004,-1.8584,-1.8557,-1.817,-1.7796,-1.8384,-1.8758,-1.8564,-1.6754,-1.5197,-1.4895,-1.8795,-1.9181,-1.9331,-2.2503,-2.3955,-2.4903,-2.6066,-2.6774,-2.7348,-2.8047,-2.8181,-2.8283,-2.8885,-2.9018,-2.9325,-3.0207,-3.0595,-3.0782,-3.0782,-2.8176,-2.6097,-2.5485,-2.3082,-2.1625,-2.1895,-2.6787,-3.0167,-3.0755,-2.8415,-2.7322,-2.7841,-2.5397,-2.3721,-2.3307,-2.3188,-2.2871,-2.2444,-1.9862,-1.8493,-1.8476,-1.5757,-1.4476,-1.4455,-1.4066,-1.3677,-1.3166,-1.3104,-1.2954,-1.2718,-1.2562,-1.242,-1.2284,-1.2121,-1.1972,-1.1823,-1.1674,-1.1518,-1.1341,0.0,0.0,0.0,0.0,0.0,0.0,0.0,0.0,0.0,0.0,0.0,0.0,0.0,0.0,0.0,0.0,-0.5283,-0.657,-0.8309,-0.8765,-1.0046,-1.2555,-1.2228,-1.2692,-1.4125,-1.5621,-1.646,-1.6523,-1.7891,-1.8653,-1.8718,-1.9325,-1.9724,-2.0088,-2.1829,-2.273,-2.3127,-2.4357,-2.493,-2.489,-2.4502,-2.4342,-2.4182,-2.2712,-2.1071,-1.9509,0.0,-1.7942,-1.6659,-1.6056,-1.5399,-1.4925,-1.511,-1.5341,-1.534,-1.4689,-1.5285,-1.6585,-1.8996,-2.055,-2.2021,-2.4661,-2.5732,-2.6346,-2.7321,-2.7869,-2.8096,-2.7896,-2.6755,-2.6128,-2.7314,-2.671,-2.6685,-2.8871,-2.8296,-2.772,-2.8167,-2.5831,-2.379,-2.3013,-2.221,-2.1706,-2.1487,-2.3358,-2.4755,-2.5238,-2.4687,-2.4448,-2.4757,-2.3984,-2.2671,-2.0756,-2.0557,-1.9473,-1.7519,-1.6687,-1.6147,-1.583,-1.4743,-1.419,-1.3994,-1.3885,-1.3654,-1.3308,-1.3064,-1.2929,-1.2861,-1.261,-1.2474,-1.2413,-1.2271,-1.2121,-1.1965,-1.1816,-1.1667,-1.1511,0.0,0.0,0.0,0.0,0.0,0.0,0.0,0.0,0.0,0.0,0.0,0.0,0.0,0.0,0.0,0.0,0.0,-0.4316,-0.6452,-0.6176,-0.7225,-1.0169,-0.9844,-1.0235,-1.1579,-1.3054,-1.3848,-1.3838,-1.5281,-1.6037,-1.6223,-1.6983,-1.7434,-1.7836,-1.9586,-2.0809,-2.1715,-2.2904,-2.3374,-2.315,-2.2776,-2.2147,-2.1302,-1.9873,-1.8228,0.0,-1.5923,-1.4804,-1.3662,-1.3984,-1.3512,-1.278,-1.2997,-1.2898,-1.2875,-1.3685,-1.431,-1.535,-1.8081,-2.0204,-2.2211,-2.4748,-2.6264,-2.7089,-2.7084,-2.7755,-2.7899,-2.5964,-2.4848,-2.4243,-2.4363,-2.35,-2.3359,-2.5335,-2.4767,-2.4436,-2.5103,-2.2964,-2.1125,-2.0796,-1.9943,-1.9346,-1.9239,-1.9285,-2.0256,-2.2534,-2.204,-2.1782,-2.1992,-2.1101,-1.9844,-1.82,-1.7876,-1.6906,-1.5052,-1.5086,-1.4909,-1.4509,-1.4367,-1.4136,-1.3838,-1.3838,-1.362,-1.3234,-1.3044,-1.2496,-1.1659,-1.1479,-1.0934,-1.0297,-1.0102,-0.998,-0.9927,-0.973,-0.9562,-0.9702,0.0,0.0,0.0,0.0,0.0,0.0,0.0,0.0,0.0,0.0,0.0,0.0,0.0,0.0,0.0,0.0,0.0,0.0,-0.5784,-0.6441,-0.7569,-0.9451,-0.9923,-1.03,-1.0643,-1.067,-1.0751,-1.0833,-1.1036,-1.1267,-1.1572,-1.3698,-1.4728,-1.4996,-1.6942,-1.8889,-2.0542,-2.0356,-2.0389,-2.046,-1.9826,-1.8376,-1.6463,-1.5481,-1.4393,-1.3278,-1.2439,-1.0963,-0.9778,-1.2357,-1.2393,-1.1442,-1.1944,-1.1528,-1.1316,-1.3532,-1.2449,-1.1519,-1.6196,-1.8279,-1.9894,-2.2774,-2.5462,-2.6923,-2.5282,-2.6411,-2.6622,-2.2407,-2.2456,-2.2529,-2.0382,-1.9489,-1.9362,-2.0096,-2.049,-2.1011,-2.1982,-1.9841,-1.8216,-1.8727,-1.6413,-1.4896,-1.5167,-1.4936,-1.6957,-2.2207,-2.0458,-1.9225,-1.9611,-1.7068,-1.5649,-1.5642,-1.535,-1.5194,-1.5181,-1.5038,-1.4821,-1.4523,-1.438,-1.4143,-1.3838,-1.3838,-1.3435,-1.2889,-1.2802,-1.1506,-0.9226,-0.9221,-0.805,-0.6247,-0.6099,-0.6025,-0.5951,-0.5884,-0.5783,-0.636,0.0,0.0,0.0,0.0,0.0,0.0,0.0,0.0,0.0,0.0,0.0,0.0,0.0,0.0,0.0,0.0,0.0,0.0,-0.539,-0.478,-0.5616,-0.8488,-0.7973,-0.8253,-0.972,-0.9937,-1.0127,-1.0213,-1.0253,-1.0548,-1.0948,-1.1397,-1.1782,-1.2044,-1.4019,-1.5164,-1.5682,-1.7041,-1.7629,-1.756,-1.6714,-1.6189,-1.5747,-1.4339,-1.2944,-1.1699,-1.1677,-1.0119,-0.8294,-0.9813,-1.0096,-0.9851,-1.0254,-1.0501,-1.0734,-1.1562,-1.2739,-1.414,-1.5873,-1.792,-1.9947,-2.1326,-2.2257,-2.2718,-2.232,-2.26,-2.2375,-2.0426,-1.8591,-1.755,-1.7853,-1.6756,-1.6568,-1.895,-1.877,-1.867,-1.9606,-1.7915,-1.6551,-1.6479,-1.5834,-1.5391,-1.5357,-1.5282,-1.5899,-1.7363,-1.6833,-1.6529,-1.6901,-1.6203,-1.575,-1.5642,-1.5452,-1.5296,-1.5181,-1.5038,-1.4875,-1.4679,-1.4529,-1.4245,-1.3838,-1.3838,-1.2726,-1.0731,-1.0636,-0.9307,-0.7197,-0.7138,-0.68,-0.6332,-0.6234,-0.6102,-0.6032,-0.5939,-0.5899,-0.5931,0.0,0.0,0.0,0.0,0.0,0.0,0.0,0.0,0.0,0.0,0.0,0.0,0.0,0.0,0.0,0.0,0.0,0.0,0.0,-0.474,-0.5456,-0.7865,-0.7479,-0.7684,-0.8737,-0.8954,-0.9117,-0.9266,-0.9334,-0.9557,-0.9937,-0.9917,-1.0032,-1.032,-1.1408,-1.2349,-1.3128,-1.4077,-1.4421,0.0,0.0,-1.2943,-1.2126,-1.1235,-1.0314,-0.9516,-0.9707,-0.9036,-0.8268,-0.9426,-0.9774,-0.9808,-1.0331,-1.0731,-1.1097,-1.1667,-1.2873,-1.4222,-1.4973,-1.6984,-1.9033,-1.9491,-2.0356,-2.0882,-1.9656,-1.9894,-1.9614,-1.6657,-1.5256,-1.4538,-1.4187,-1.3277,-1.3306,-1.5392,-1.542,-1.5624,-1.6917,-1.627,-1.5655,-1.5811,-1.5832,-1.5798,-1.5716,-1.5642,-1.5669,-1.5818,-1.5689,-1.5676,-1.5845,-1.5852,-1.5818,-1.5737,-1.5527,-1.5337,-1.5181,-1.5038,-1.4896,-1.4649,-1.3521,-1.2702,-1.2276,-1.1271,-0.9948,-0.849,-0.8356,-0.7072,-0.5008,-0.4952,-0.4395,-0.355,-0.3531,-0.3498,-0.3383,-0.3383,-0.3291,-0.3275,0.0,0.0,0.0,0.0,0.0,0.0,0.0,0.0,0.0,0.0,0.0,0.0,0.0,0.0,0.0,0.0,0.0,0.0,0.0,0.0,-0.629,-0.7483,-0.7658,-0.7787,-0.7867,-0.7874,-0.7997,-0.8204,-0.8275,-0.8492,-0.8737,-0.8913,-0.9111,-0.9205,-0.9205,-1.0092,-1.1638,-1.1393,-1.1181,-1.1011,-1.0698,-0.9482,-0.7753,0.0,-0.7563,-0.7366,-0.7556,-0.8079,-0.8872,-1.0107,-1.0493,-1.0595,-1.1355,-1.1728,-1.204,-1.2847,-1.3105,-1.3281,-1.3953,-1.583,-1.7542,-1.745,-1.8837,-1.9656,-1.7161,-1.7508,-1.7095,-1.2547,-1.2412,-1.2493,-1.0531,-1.0053,-1.0274,-1.1389,-1.202,-1.2922,-1.4489,-1.4909,-1.5316,-1.6001,-1.6083,-1.6083,-1.6083,-1.5961,-1.594,-1.6069,-1.5961,-1.5886,-1.5886,-1.5866,-1.5839,-1.5798,-1.5547,-1.5337,-1.5181,-1.5038,-1.4705,-1.4179,-1.2012,-1.061,-0.9941,-0.7878,-0.6617,-0.6084,-0.6084,-0.4753,-0.2709,-0.268,-0.1659,0.0,0.0,0.0,0.0,0.0,0.0,0.0,0.0,0.0,0.0,0.0,0.0,0.0,0.0,0.0,0.0,0.0,-0.355,-0.3095,0.0,0.0,0.0,0.0,0.0,0.0,0.0,0.0,0.0,-0.7166,-0.72,-0.7227,-0.7247,-0.7247,-0.7373,-0.7576,-0.7596,-0.7719,-0.8004,-0.8031,-0.8126,-0.8224,-0.8224,-0.8422,-0.8714,-0.855,-0.8449,-0.8427,-0.8139,-0.7795,-0.7434,-0.7305,0.0,0.0,-0.7631,-0.8099,-0.8743,-1.0195,-1.0995,-1.1538,-1.2413,-1.2963,-1.3336,-1.3607,-1.3865,-1.4122,-1.4367,-1.4923,-1.5491,-1.5328,-1.5355,-1.5227,-1.4142,-1.3516,-1.2641,-1.0877,-1.0335,-0.9994,-0.949,-0.953,-1.0025,-1.107,-1.2142,-1.3247,-1.4387,-1.5113,-1.5662,-1.6035,-1.6083,-1.6083,-1.6083,-1.6056,-1.6056,-1.6083,-1.6056,-1.6042,-1.6042,-1.592,-1.5744,-1.5493,-1.5438,-1.5337,-1.5181,-1.5038,-1.3961,-1.1781,-1.1182,-0.9703,-0.7525,-0.708,-0.5851,-0.3948,-0.3866,-0.2602,-0.0559,-0.0558,-0.0317,0.0,0.0,0.0,0.0,0.0,0.0,0.0,0.0,0.0,0.0,0.0,0.0,0.0,0.0,-0.6223,-0.6798,-0.7406,-0.6741,-0.5929,-0.5197,-0.522,-0.5495,0.0,0.0,0.0,0.0,0.0,0.0,-0.7092,-0.7098,-0.7098,-0.7098,-0.7098,-0.7132,-0.7251,0.0,-0.7326,-0.7415,-0.7415,-0.7456,-0.7523,-0.7523,-0.7523,-0.7523,-0.7449,-0.7415,-0.7402,-0.7305,-0.7251,-0.7244,-0.7125,0.0,0.0,-0.7706,-0.8201,-0.8899,-1.0093,-1.0887,-1.1592,-1.2807,-1.3498,-1.3919,-1.4217,-1.4468,-1.4713,-1.5018,-1.5208,-1.5242,-1.4936,-1.4577,-1.4041,-1.3051,-1.2128,-1.1185,-1.0148,-0.9578,-0.9218,-0.9069,-0.9415,-1.0039,-1.1077,-1.204,-1.3139,-1.434,-1.5025,-1.5574,-1.6029,-1.6083,-1.6083,-1.6083,-1.6083,-1.6083,-1.6083,-1.6083,-1.6083,-1.6083,-1.5934,-1.5757,-1.554,-1.5452,-1.4666,-1.3287,-1.3156,-1.1813,-0.9203,-0.7884,-0.6482,-0.5107,-0.3899,-0.2727,-0.1653,-0.158,-0.0988,0.0,0.0,0.0,0.0,0.0,0.0,0.0,0.0,0.0,0.0,0.0,0.0,0.0,0.0,0.0,0.0,0.0,-0.9175,-0.9717,-1.0065,-0.9404,-0.8487,-0.7374,-0.7118,-0.7007,0.0,0.0,0.0,0.0,0.0,0.0,0.0,0.0,0.0,-0.7098,0.0,0.0,-0.7098,-0.7098,0.0,0.0,0.0,0.0,0.0,-0.7098,-0.7098,-0.7098,-0.7098,-0.7098,0.0,0.0,-0.7119,-0.7146,0.0,0.0,0.0,0.0,-0.7616,-0.8091,-0.9335,-1.0091,-1.0806,-1.2417,-1.3363,-1.3966,-1.4414,-1.4746,-1.5065,-1.5479,-1.5662,-1.5608,-1.5099,-1.4631,-1.3966,-1.2698,-1.1687,-1.0731,-0.972,-0.9245,-0.8988,-0.8906,-0.9242,-0.9903,-1.0738,-1.1606,-1.2651,-1.4027,-1.4672,-1.5248,-1.5947,-1.6062,-1.6083,-1.6083,-1.6083,-1.6083,-1.6083,-1.6083,-1.6083,-1.6083,-1.5934,-1.5784,-1.5642,-1.4911,-1.3608,-1.139,-1.0875,-0.9187,-0.6632,-0.4697,-0.3457,-0.2785,-0.0872,0.0,0.0,0.0,0.0,0.0,0.0,0.0,0.0,0.0,0.0,0.0,0.0,0.0,0.0,0.0,0.0,0.0,0.0,0.0,0.0,0.0,-0.9662,-1.007,-1.0624,-0.9781,-0.9078,-0.9044,-0.8035,-0.7272,0.0,0.0,0.0,0.0,0.0,0.0,0.0,0.0,0.0,0.0,0.0,0.0,-0.7098,-0.7098,0.0,0.0,0.0,0.0,0.0,0.0,-0.7098,-0.7098,-0.7098,0.0,0.0,0.0,0.0,0.0,0.0,0.0,0.0,0.0,-0.5418,-0.4966,-0.7132,-0.8022,-0.8683,-1.076,-1.2237,-1.3342,-1.379,-1.4421,-1.5038,-1.535,-1.573,-1.5866,-1.5153,-1.4631,-1.3912,-1.244,-1.1301,-1.0297,-0.9439,-0.89,-0.8581,-0.871,-0.8893,-0.9168,-0.9842,-1.0588,-1.1606,-1.3085,-1.3919,-1.4753,-1.5757,-1.5995,-1.6083,-1.6083,-1.6083,-1.6083,-1.6083,-1.6083,-1.6083,-1.6083,-1.5934,-1.5784,-1.5642,-1.3255,-1.1783,-1.139,-0.9031,-0.6549,-0.4153,-0.3796,-0.2493,-0.0353,-0.0088,0.0,0.0,0.0,0.0,0.0,0.0,0.0,0.0,0.0,0.0,0.0,0.0,0.0,0.0,0.0,0.0,0.0,0.0,0.0,0.0,-0.973,-1.1003,-1.2023,-1.2438,-1.1893,-1.1181,-1.0468,-0.9985,-0.9026,-0.7252,0.0,0.0,0.0,0.0,0.0,0.0,0.0,0.0,0.0,0.0,-0.7139,-0.7278,-0.7278,0.0,0.0,0.0,0.0,0.0,0.0,-0.7098,-0.7098,-0.7098,0.0,0.0,0.0,0.0,0.0,0.0,0.0,0.0,0.0,0.0,-0.5615,-0.6577,-0.7126,-0.7493,-0.8416,-0.9907,-1.1572,-1.3017,-1.3973,-1.4713,-1.5371,-1.5744,-1.5811,-1.5242,-1.4421,-1.3458,-1.2318,-1.1111,-1.0019,-0.9357,-0.8269,-0.7431,-0.7402,-0.684,-0.6474,-0.6828,-0.7325,-0.811,-0.9107,-0.9651,-1.0851,-1.3302,-1.3657,-1.4316,-1.5929,-1.6083,-1.5472,-1.386,-1.3655,-1.2957,-1.1349,-1.2672,-1.3429,-1.3285,-1.0677,-0.8383,-0.6838,-0.5773,-0.3982,-0.1493,-0.1463,-0.09,0.0,0.0,0.0,0.0,0.0,0.0,0.0,0.0,0.0,0.0,0.0,0.0,0.0,0.0,0.0,0.0,0.0,0.0,0.0,0.0,0.0,-0.9438,-1.0231,-1.1903,-1.324,-1.3666,-1.3163,-1.2438,-1.1705,-1.1316,-1.022,-0.7819,-0.7621,0.0,0.0,0.0,0.0,0.0,0.0,0.0,0.0,0.0,-0.7265,-0.7419,-0.746,-0.7495,0.0,0.0,-0.7414,-0.7412,0.0,0.0,0.0,0.0,0.0,0.0,0.0,0.0,0.0,0.0,0.0,0.0,0.0,0.0,0.0,0.0,0.0,-0.6127,-0.6287,-0.7327,-0.9018,-1.179,-1.3207,-1.4102,-1.4997,-1.5445,-1.5567,-1.5208,-1.3859,-1.2355,-1.1586,-0.9949,-0.8518,-0.7996,-0.6888,-0.601,-0.5937,-0.5202,-0.4683,-0.476,-0.5136,-0.5667,-0.6376,-0.6755,-0.7911,-1.0522,-1.0863,-1.1921,-1.4696,-1.4899,-1.376,-1.1045,-1.0845,-1.0045,-0.8142,-0.8981,-0.9866,-1.0546,-0.7957,-0.5605,-0.3803,-0.3097,-0.1777,0.0,0.0,0.0,0.0,0.0,0.0,0.0,0.0,0.0,0.0,0.0,0.0,0.0,0.0,0.0,0.0,0.0,0.0,0.0,0.0,0.0,0.0,0.0,0.0,0.0,-1.0898,-1.2017,-1.3105,-1.3961,-1.2954,-1.2267,-1.273,-1.1616,-1.0283,-0.899,-0.8886,0.0,0.0,0.0,0.0,0.0,0.0,0.0,0.0,0.0,-0.7412,-0.7419,-0.7522,-0.7597,-0.7597,-0.7597,-0.7516,-0.7419,0.0,0.0,0.0,0.0,0.0,0.0,0.0,0.0,-0.7828,0.0,0.0,0.0,0.0,0.0,0.0,0.0,0.0,0.0,0.0,-0.4731,-0.5771,-1.0,-1.2033,-1.3173,-1.4068,-1.474,-1.5153,-1.5011,-1.283,-1.0506,-0.9777,-0.7428,-0.5309,-0.4868,-0.4634,-0.4526,-0.4526,-0.4526,-0.4494,-0.4509,-0.471,-0.5139,-0.5935,-0.6426,-0.6975,-0.7723,-0.7979,-0.9079,-1.1852,-1.2149,-1.1045,-0.8242,-0.8041,-0.8041,-0.8041,-0.5535,-0.5282,-0.7716,-0.5277,-0.3803,-0.3803,-0.1334,0.0,0.0,0.0,0.0,0.0,0.0,0.0,0.0,0.0,0.0,0.0,0.0,0.0,0.0,0.0,0.0,0.0,0.0,0.0,0.0,0.0,0.0,0.0,0.0,0.0,0.0,0.0,-0.9611,-1.0625,-1.0902,-1.1103,-1.0919,-1.0109,-1.0592,-1.0105,-0.7856,-0.8412,0.0,0.0,0.0,0.0,0.0,0.0,0.0,0.0,0.0,-0.7421,-0.7529,-0.778,-0.7853,-0.7853,-0.7853,-0.7821,-0.7665,-0.7461,-0.7346,0.0,0.0,0.0,0.0,0.0,-0.7834,-0.7921,0.0,0.0,0.0,0.0,0.0,0.0,0.0,0.0,0.0,0.0,0.0,0.0,-0.632,-0.8563,-1.0646,-1.1269,-1.1735,-1.1686,-1.0283,-0.8795,-0.759,-0.7209,-0.5985,-0.4871,-0.4721,-0.3729,-0.2905,-0.2905,-0.2125,-0.1418,-0.1414,-0.1515,-0.1635,-0.1863,-0.3217,-0.5063,-0.729,-0.9176,-1.0005,-0.9379,-0.9293,-0.8138,-0.5432,-0.5231,-0.4516,-0.2597,-0.1678,-0.245,-0.5087,-0.2596,-0.1239,-0.1239,-0.0379,0.0,0.0,0.0,0.0,0.0,0.0,0.0,0.0,0.0,0.0,0.0,0.0,0.0,0.0,0.0,0.0,0.0,0.0,0.0,0.0,0.0,0.0,0.0,0.0,0.0,0.0,0.0,-0.8401,-0.9377,-0.9497,-1.0069,-1.0164,-0.94,-1.0303,-1.0093,-0.8019,-0.8545,0.0,0.0,0.0,0.0,0.0,0.0,0.0,0.0,-0.738,-0.7556,-0.7767,-0.8011,-0.8153,-0.8208,-0.8153,-0.8045,-0.7889,-0.7645,-0.7475,0.0,0.0,0.0,0.0,-0.7753,-0.7902,-0.7988,0.0,0.0,0.0,0.0,0.0,0.0,0.0,0.0,0.0,0.0,0.0,0.0,0.0,-0.5282,-0.7142,-0.8401,-0.8969,-0.8944,-0.7838,-0.6367,-0.5273,-0.5112,-0.3962,-0.2952,-0.2904,-0.2095,-0.1353,-0.1345,-0.0619,0.0,0.0,0.0,0.0,0.0,-0.111,-0.2584,-0.4399,-0.6988,-0.7694,-0.5257,-0.5861,-0.5331,-0.272,-0.2511,-0.1801,-0.01,0.0,-0.0781,-0.2437,-0.0865,0.0,0.0,0.0,0.0,0.0,0.0,0.0,0.0,0.0,0.0,0.0,0.0,0.0,0.0,0.0,0.0,0.0,0.0,0.0,0.0,0.0,0.0,0.0,0.0,0.0,0.0,0.0,0.0,0.0,0.0,-0.8054,-0.8971,-0.921,-0.9488,-0.9774,-1.0106,-1.0251,-0.9998,-0.905,0.0,0.0,0.0,0.0,0.0,0.0,0.0,0.0,-0.7412,-0.7522,-0.7746,-0.7988,-0.8208,-0.835,-0.8479,-0.8357,-0.8214,-0.8002,-0.7896,-0.7665,0.0,0.0,0.0,0.0,-0.7773,-0.7916,0.0,0.0,0.0,0.0,0.0,0.0,0.0,0.0,0.0,0.0,0.0,0.0,0.0,0.0,0.0,0.0,0.0,-0.6405,-0.6765,-0.6837,-0.5109,-0.3314,-0.3326,-0.1633,0.0,0.0,0.0,0.0,0.0,0.0,0.0,0.0,0.0,0.0,0.0,-0.0144,-0.0232,-0.0248,-0.2441,-0.2932,-0.0279,-0.2246,-0.2719,-0.0202,0.0,0.0,0.0,0.0,0.0,0.0,0.0,0.0,0.0,0.0,0.0,0.0,0.0,0.0,0.0,0.0,0.0,0.0,0.0,0.0,0.0,0.0,0.0,0.0,0.0,0.0,0.0,0.0,0.0,0.0,0.0,0.0,0.0,0.0,0.0,0.0,0.0,0.0,0.0,0.0,-0.7141,-0.7488,-0.7567,-0.7791,-0.7901,0.0,0.0,0.0,0.0,0.0,0.0,0.0,0.0,0.0,-0.7412,-0.7522,-0.7746,-0.7988,-0.8303,-0.8452,-0.8486,-0.8567,-0.8465,-0.8208,-0.8052,-0.7821,0.0,0.0,0.0,0.0,-0.7874,-0.7961,0.0,0.0,0.0,0.0,-0.7988,-0.7789,0.0,0.0,0.0,0.0,0.0,0.0,0.0,0.0,-0.063,-0.0747,-0.1341,0.0,-0.3395,-0.2098,-0.1313,-0.0856,0.0,-0.0408,0.0,0.0,0.0,0.0,0.0,0.0,0.0,0.0,0.0,0.0,0.0,-0.1462,-0.2513,-0.2415,-0.2998,-0.2505,-0.0194,-0.0596,-0.0705,0.0,0.0,0.0,0.0,0.0,0.0,0.0,0.0,0.0,0.0,0.0,0.0,0.0,0.0,0.0,0.0,0.0,0.0,0.0,0.0,0.0,0.0,0.0,0.0,0.0,0.0,0.0,0.0,0.0,0.0,0.0,0.0,0.0,0.0,0.0,0.0,0.0,0.0,0.0,0.0,0.0,0.0,0.0,0.0,0.0,0.0,0.0,0.0,0.0,0.0,0.0,0.0,0.0,0.0,-0.7319,-0.7475,-0.7692,-0.795,-0.8241,-0.8472,-0.8655,-0.8845,-0.8737,-0.8662,-0.856,-0.815,-0.786,0.0,0.0,0.0,-0.7828,-0.7928,0.0,0.0,0.0,0.0,0.0,-0.7285,-0.6681,0.0,-0.3767,-0.2663,-0.1918,0.0,0.0,0.0,0.0,0.0,0.0,0.0,-0.073,-0.1227,-0.0234,0.0,0.0,0.0,0.0,0.0,0.0,0.0,0.0,0.0,0.0,0.0,0.0,0.0,0.0334,0.1252,0.0482,-0.0259,-0.0273,-0.1131,-0.1356,-0.0099,0.0,0.0,0.0,0.0,0.0,0.0,0.0,0.0,0.0,0.0,0.0,0.0,0.0,0.0,0.0,0.0,0.0,0.0,0.0,0.0,0.0,0.0,0.0,0.0,0.0,0.0,0.0,0.0,0.0,0.0,0.0,0.0,0.0,0.0,0.0,0.0,0.0,0.0,0.0,0.0,0.0,0.0,0.0,0.0,0.0,0.0,0.0,0.0,0.0,0.0,0.0,0.0,0.0,0.0,0.0,-0.746,-0.7489,-0.7665,-0.786,-0.8194,-0.852,-0.8669,-0.8886,-0.9207,-0.892,-0.8845,-0.8824,-0.8271,-0.7991,0.0,0.0,-0.7848,-0.7855,-0.7934,0.0,0.0,0.0,0.0,0.0,0.0,0.0,0.0,-0.2465,-0.126,-0.0253,-0.0052,0.0,0.0,0.0,0.0,0.0,0.0,0.0,0.0,0.0,0.0,0.0,0.0,0.0,0.0,0.0,0.0,0.0,0.0,0.0235,0.0421,0.0496,0.0459,0.0993,0.2458,0.2694,0.2732,0.2656,0.1041,0.0,0.0,0.0,0.0,0.0,0.0,0.0,0.0,0.0,0.0,0.0,0.0,0.0,0.0,0.0,0.0,0.0,0.0,0.0,0.0,0.0,0.0,0.0,0.0,0.0,0.0,0.0,0.0,0.0,0.0,0.0,0.0,0.0,0.0,0.0,0.0,0.0,0.0,0.0,0.0,0.0,0.0,0.0,0.0,0.0,0.0,0.0,0.0,0.0,0.0,0.0,0.0,0.0,0.0,0.0,0.0,-0.7746,-0.7631,-0.7692,-0.7914,-0.7968,-0.8197,-0.8676,-0.8825,-0.8988,-0.9214,-0.9239,-0.9089,-0.873,-0.8391,-0.8147,-0.7955,0.0,-0.7955,-0.7955,-0.7982,0.0,0.0,0.0,0.0,0.0,0.0,0.0,0.0,-0.2465,-0.1861,-0.1516,-0.0361,0.0,0.0,0.0,0.0,0.0,0.0,0.0,0.0,0.0,0.0,0.0,0.0,0.0,0.0,0.0,0.0,0.0,0.0,0.1346,0.2515,0.2592,0.2596,0.2095,0.0713,0.0462,0.0473,0.0484,0.0199,0.0,0.0,0.0,0.0,0.0,0.0,0.0,0.0,0.0,0.0,0.0,0.0,0.0,0.0,0.0,0.0,0.0,0.0,0.0,0.0,0.0,0.0,0.0,0.0,0.0,0.0,0.0,0.0,0.0,0.0,0.0,0.0,0.0,0.0,0.0,0.0,0.0,0.0,0.0,0.0,0.0,0.0,0.0,0.0,0.0,0.0,0.0,0.0,0.0,0.0,0.0,0.0,0.0,0.0,0.0,-0.8058,-0.8058,-0.8072,-0.8065,-0.7988,-0.8224,-0.8547,-0.8832,-0.8981,-0.9171,-0.9401,-0.9388,-0.9144,-0.8703,-0.8479,-0.8255,-0.7939,-0.7235,-0.6936,-0.683,0.0,0.0,0.0,0.0,0.0,0.0,0.0,0.0,0.0,0.0,-0.0907,-0.0809,-0.0206,0.0,0.0,0.0,0.0,0.0,0.0,0.0,0.0,0.0,0.0,0.0,0.0,0.0,0.0,0.0,0.0,0.0311,0.1387,0.1444,0.1321,0.1435,0.2425,0.2831,0.1806,0.1758,0.1795,0.1637,0.069,0.0,0.0,0.0,0.0,0.0,0.0,0.0,0.0,0.0,0.0,0.0,0.0,0.0,0.0,0.0,0.0,0.0,0.0,0.0,0.0,0.0,0.0,0.0,0.0,0.0,0.0,0.0,0.0,0.0,0.0,0.0,0.0172,0.1368,0.255,0.3634,0.0,0.0,0.0,0.0,0.0,0.0,0.0,0.0,0.0,0.0,0.0,0.0,0.0,0.0,0.0,0.0,0.0,0.0,0.0,0.0,-0.832,-0.832,-0.8438,-0.8445,-0.8204,-0.8587,-0.8852,-0.9042,-0.9191,-0.9381,-0.9605,-0.9098,-0.8628,-0.8211,-0.7693,-0.7325,-0.698,-0.5977,-0.5527,-0.5422,0.0,0.0,0.0,0.0,0.0,0.0,0.0,0.0,0.0,0.0,0.0,0.0,0.0,0.0,0.0,0.0,0.0,0.0,0.0,0.0,0.0,0.0,0.0,0.0,0.0,0.0,0.0,0.0,0.0,0.059,0.2617,0.2125,0.1454,0.1447,0.2473,0.3071,0.2482,0.2435,0.2476,0.2417,0.0986,0.0,0.0,0.0,0.0,0.0,0.0,0.0296,0.0886,0.088,0.1165,0.1739,0.1823,0.1814,0.181,0.181,0.1144,0.0,0.0,0.0,0.0,0.0651,0.0552,0.0091,0.1184,0.1358,0.0897,0.1434,0.1695,0.1682,0.1682,0.1666,0.1899,0.358,0.5259,0.6778,0.0,0.0,0.0,0.0,0.0,0.0,0.0,0.0,0.0,0.0,0.0,0.0,0.0,0.0,0.0,0.0,0.0,0.0,0.0,0.0,-0.832,-0.832,-0.854,-0.875,-0.8817,-0.8851,-0.9062,-0.9347,-0.9503,-0.9591,-0.9545,-0.7973,-0.7136,-0.6797,-0.5182,-0.442,-0.4268,-0.4168,-0.4168,-0.4117,-0.4017,0.0,0.0,0.0,0.0,0.0,0.0,0.0,0.0,0.0,0.0,0.0,0.0,0.0,0.0,0.0,0.0,0.0,0.0,0.0,0.0,0.0,0.0,0.0,0.0,0.0,0.0,0.0,0.0,0.0641,0.2737,0.4596,0.5836,0.5819,0.4334,0.2399,0.0498,0.0202,0.0204,0.0204,0.0104,0.0,0.0,0.0,0.0,0.0,0.0,0.1003,0.3376,0.357,0.4618,0.6942,0.7029,0.7093,0.7027,0.7027,0.4658,0.0,0.0,0.0,0.0094,0.2414,0.2207,0.0274,0.4907,0.5509,0.349,0.5722,0.6611,0.6605,0.6605,0.6599,0.6583,0.6774,0.6922,0.7087,0.0,0.0,0.0,0.0,0.0,0.0,0.0,0.0,0.0,0.0,0.0,0.0,0.0,0.0,0.0,0.0,0.0,0.0,0.0,-0.5625,-0.5775,-0.5775,-0.684,-0.7526,-0.7646,-0.8613,-0.9218,-0.9523,-0.9673,-0.9207,-0.8224,-0.7439,-0.6455,-0.5277,-0.4543,-0.4105,-0.3967,-0.3115,-0.2764,-0.2663,-0.1863,-0.1511,0.0,0.0,0.0,0.0,0.0,0.0,0.0,0.0,0.0,0.0151,0.0958,0.126,0.141,0.2264,0.2465,0.2483,0.2577,0.1963,0.1535,0.2766,0.2497,0.1565,0.0289,0.0964,0.1445,0.0236,0.0,0.0624,0.286,0.3787,0.4241,0.4453,0.2595,0.0888,0.0101,0.0,0.0,0.0,0.1448,0.249,0.2467,0.4002,0.4894,0.4819,0.4898,0.5264,0.6101,0.6159,0.6603,0.7612,0.7565,0.7623,0.7595,0.7595,0.6627,0.4614,0.4597,0.4589,0.4587,0.5467,0.532,0.4544,0.6356,0.6677,0.5811,0.67,0.7057,0.7143,0.7095,0.796,0.9184,0.9174,1.0052,1.1122,0.0,0.0,0.0,0.0,0.0,0.0,0.0,0.0,0.0,0.0,0.0,0.0,0.0,0.0,0.0,0.0,0.0,0.0,-0.3919,-0.4082,-0.4208,-0.4208,-0.5385,-0.6084,-0.6181,-0.7239,-0.8372,-0.9612,-0.9219,-0.8162,-0.6551,-0.5918,-0.5002,-0.376,-0.3122,-0.2835,-0.2688,-0.1777,-0.1368,-0.1309,-0.0353,0.0,0.0,0.0,0.0,0.0,0.0,0.0,0.0,0.0,0.0608,0.0857,0.2213,0.2615,0.2814,0.3717,0.4014,0.4048,0.4149,0.3553,0.3205,0.4693,0.4985,0.4461,0.2612,0.2613,0.2437,0.0426,0.0505,0.1497,0.3056,0.3107,0.3032,0.3328,0.2156,0.1299,0.1315,0.2042,0.2671,0.268,0.4244,0.5379,0.533,0.6942,0.7988,0.7837,0.7827,0.8081,0.876,0.8795,0.9132,0.9967,0.9996,0.996,0.996,0.9933,0.9884,0.9813,0.9658,0.8809,0.7353,0.804,0.7878,0.7168,0.88,0.9016,0.8308,0.9019,0.9375,0.9371,0.9392,1.0337,1.1735,1.1737,1.2613,1.3858,0.0,0.0,0.0,0.0,0.0,0.0,0.0,0.0,0.0,0.0,0.0,0.0,0.0,0.0,0.0,0.0,0.0,0.0,-0.3749,-0.4004,-0.4181,-0.4181,-0.4383,-0.4556,-0.4682,-0.4708,-0.6276,-0.9545,-0.8105,-0.6428,-0.463,-0.3174,-0.2367,-0.2128,-0.0657,0.0,0.0,0.0,0.0,0.0,0.0,0.0,0.0,0.0,0.0,0.0,0.0,0.0,0.0,0.0,0.2045,0.2266,0.3616,0.4017,0.4017,0.4017,0.4067,0.4051,0.4205,0.4464,0.4828,0.5324,0.7174,0.8586,0.7207,0.4949,0.2552,0.0534,0.1749,0.3181,0.3422,0.3263,0.3231,0.3304,0.3705,0.4099,0.4174,0.6575,0.839,0.8466,0.8372,0.8341,0.8369,0.8191,0.7988,0.7837,0.7824,0.8935,1.1266,1.1448,1.2545,1.5093,1.5181,1.5181,1.5181,1.5038,1.497,1.4964,1.4658,1.1944,0.7279,0.9757,0.9521,0.7439,1.2327,1.3069,1.0895,1.3312,1.4299,1.4299,1.4299,1.4299,1.4299,1.4299,1.4299,1.4299,0.0,0.0,0.0,0.0,0.0,0.0,0.0,0.0,0.0,0.0,0.0,0.0,0.0,0.0,0.0,0.0,0.0,0.0,-0.1142,-0.119,-0.1271,-0.1271,-0.2288,-0.2896,-0.2967,-0.4117,-0.5203,-0.6314,-0.5844,-0.4801,-0.3116,-0.2698,-0.186,-0.0657,-0.0219,0.0,0.0,0.0,0.0,0.0,0.0,0.0619,0.1555,0.0,0.0,0.0,0.0,0.0,0.0,0.0,0.0,0.0,0.5322,0.5737,0.5945,0.6883,0.7142,0.72,0.7462,0.707,0.7033,0.879,0.9499,0.9656,0.9352,0.853,0.7306,0.5668,0.6016,0.7024,0.8628,0.7505,0.6977,0.8598,0.7686,0.687,0.6852,0.7815,0.8393,0.8154,0.9873,1.1125,1.095,1.2547,1.3516,1.3252,1.316,1.3423,1.4014,1.4096,1.4461,1.5181,1.5181,1.5133,1.5031,1.4991,1.4862,1.4645,1.4557,1.3713,1.2294,1.3022,1.2872,1.2295,1.3731,1.3889,1.3312,1.4027,1.4299,1.4299,1.4299,1.4299,1.4299,1.4299,1.4231,1.4156,0.0,0.0,0.0,0.0,0.0,0.0,0.0,0.0,0.0,0.0,0.0,0.0,0.0,0.0,0.0,0.0,0.0,0.0,0.0,0.0,0.0,0.0,-0.0841,-0.1306,-0.1323,-0.2304,-0.2897,-0.2968,-0.3616,-0.3093,-0.1533,-0.1524,-0.095,0.0,0.0,0.0273,0.0798,0.079,0.1147,0.1656,0.1656,0.2244,0.312,0.0,0.0,0.0,0.0,0.0,0.0,0.0,0.0,0.0,0.689,0.7311,0.7481,0.8342,0.8574,0.8662,0.9089,0.891,0.9084,1.0968,1.1415,1.1568,1.205,1.0535,0.886,0.7897,0.7928,0.8397,0.9715,0.8861,0.8454,0.9715,0.9828,0.9707,0.9734,1.0781,1.1554,1.1449,1.2909,1.3903,1.3747,1.5123,1.5859,1.5655,1.5554,1.5404,1.5194,1.5181,1.5181,1.5181,1.5126,1.5059,1.497,1.4848,1.4692,1.4509,1.4455,1.4428,1.4428,1.434,1.4299,1.4299,1.4299,1.4299,1.4299,1.4299,1.4299,1.4299,1.4299,1.4299,1.4299,1.4299,1.4245,1.4177,0.0,0.0,0.0,0.0,0.0,0.0,0.0,0.0,0.0,0.0,0.0,0.0,0.0,0.0,0.0,0.0,0.0,0.0,0.0,0.0,0.0,0.0,0.0,0.0,0.0,0.0,0.0,0.0,-0.1551,-0.1508,0.0,0.0,0.0,0.0,0.0112,0.0879,0.2025,0.2123,0.294,0.4192,0.4192,0.4387,0.4684,0.4691,0.0,0.0,0.0,0.0,0.0,0.0,0.0,0.0,0.815,0.8526,0.8554,0.8703,0.8757,0.8899,0.951,1.0141,1.0914,1.2101,1.301,1.3885,1.4869,1.1818,0.8735,0.8712,0.8741,0.8741,0.8787,0.888,0.8948,0.8792,1.0984,1.2727,1.2844,1.4853,1.6422,1.6659,1.6463,1.6307,1.6293,1.6151,1.594,1.5662,1.5628,1.5493,1.5201,1.5181,1.5181,1.5181,1.5045,1.4964,1.495,1.4658,1.4502,1.4489,1.436,1.4299,1.4299,1.4299,1.4299,1.4299,1.4299,1.4299,1.4299,1.4299,1.4299,1.4299,1.4299,1.4299,1.4299,1.4299,1.4299,1.4299,0.0,0.0,0.0,0.0,0.0,0.0,0.0,0.0,0.0,0.0,0.0,0.0,0.0,0.0,0.0,0.0,0.0,0.0,0.0,0.0,0.0,0.0,0.0,0.0,0.0,0.0,0.0,0.0,-0.0382,-0.033,0.0,0.0,0.0,0.0056,0.1104,0.1749,0.2057,0.3103,0.3813,0.4218,0.4218,0.5022,0.6216,0.6244,0.6956,0.0,0.0,0.0,0.0,0.0,0.0,0.0,0.8729,0.8838,0.8866,0.9015,0.9144,0.9367,0.9971,1.0914,1.1959,1.2922,1.4251,1.5452,1.5913,1.5212,1.4395,1.4079,1.4293,1.444,1.4391,1.4428,1.4422,1.4409,1.485,1.5293,1.5357,1.5943,1.6415,1.6246,1.6273,1.6259,1.6144,1.5995,1.5832,1.5649,1.5527,1.5377,1.5194,1.5181,1.5181,1.5181,1.5045,1.4909,1.4794,1.4604,1.4455,1.4346,1.4312,1.4299,1.4299,1.4299,1.4299,1.4299,1.4299,1.4299,1.4299,1.4299,1.4299,1.4299,1.4299,1.4299,1.4299,1.4299,1.4299,1.4299,0.0,0.0,0.0,0.0,0.0,0.0,0.0,0.0,0.0,0.0,0.0,0.0,0.0,0.0,0.0,0.0,0.0,0.0,0.0,0.0,0.0,0.0,0.0,0.0,0.0,0.0,0.0,0.0,0.0,0.0378,0.108,0.108,0.1422,0.2181,0.2881,0.3499,0.4085,0.4892,0.5615,0.6258,0.6313,0.6888,0.778,0.7735,0.8208,0.8885,0.8885,0.0,0.0,0.0,0.0,0.0,0.0,0.0,0.8872,0.9146,0.9268,0.9469,1.0358,1.1314,1.2413,1.3885,1.5167,1.611,1.6273,1.6361,1.6327,1.6022,1.6198,1.6388,1.6307,1.6354,1.6354,1.6212,1.6246,1.6266,1.6198,1.6259,1.6279,1.6198,1.6198,1.6144,1.5988,1.59,1.5764,1.5547,1.5459,1.5343,1.5194,1.5181,1.5153,1.5086,1.4936,1.4787,1.4631,1.4482,1.4373,1.4299,1.4299,1.4299,1.4299,1.4299,1.4299,1.4299,1.4224,1.419,1.419,1.419,1.419,1.4197,1.4272,1.4299,1.4299,1.4299,1.4299,1.4299,0.0,0.0,0.0,0.0,0.0,0.0,0.0,0.0,0.0,0.0,0.0,0.0,0.0,0.0,0.0,0.0,0.0,0.0,0.0,0.0,0.0,0.0,0.0,0.0,0.0,0.0,0.0,0.0,0.0,0.0748,0.2199,0.2192,0.304,0.4526,0.4734,0.5419,0.6341,0.6685,0.7481,0.8533,0.8662,0.8804,0.8885,0.8885,0.8885,0.8885,0.8885,0.8885,0.8885,0.8885,0.0,0.0,0.0,0.0,0.8757,0.9057,0.9166,0.9453,1.0429,1.1565,1.2834,1.4774,1.5805,1.6347,1.6347,1.6435,1.6497,1.6402,1.6476,1.6544,1.6497,1.6612,1.6625,1.6354,1.6388,1.6402,1.6286,1.6157,1.613,1.6252,1.6157,1.6022,1.5866,1.5852,1.573,1.5432,1.5411,1.5343,1.5194,1.516,1.5092,1.4977,1.4794,1.4638,1.4516,1.4373,1.4285,1.4265,1.4265,1.4272,1.4299,1.4299,1.4299,1.4292,1.4163,1.4109,1.4109,1.4109,1.4109,1.4122,1.4251,1.4299,1.4299,1.4299,1.4299,1.4299,0.0,0.0,0.0,0.0,0.0,0.0,0.0,0.0,0.0,0.0,0.0,0.0,0.0,0.0,0.0,0.0,0.0,0.0,0.0,0.0,0.0,0.0,0.0,0.0,0.0,0.0,0.0,0.0,0.0,0.0757,0.222,0.2189,0.3019,0.4522,0.5718,0.632,0.6555,0.7753,0.8415,0.8682,0.8703,0.8804,0.8885,0.8885,0.8885,0.8885,0.8885,0.8885,0.8885,0.8885,0.8885,0.0,0.0,0.0,0.8716,0.8757,0.8954,0.9357,0.9923,1.1777,1.3919,1.5248,1.6042,1.649,1.649,1.651,1.6551,1.6666,1.6707,1.6639,1.6388,1.6456,1.6497,1.6334,1.6218,1.6137,1.6117,1.6096,1.609,1.611,1.6096,1.6022,1.5866,1.5852,1.573,1.5432,1.5411,1.5343,1.5194,1.5065,1.4991,1.497,1.4692,1.4529,1.4509,1.4373,1.4231,1.4102,1.4102,1.417,1.4299,1.4299,1.4299,1.4299,1.4278,1.4272,1.4272,1.4272,1.4272,1.4272,1.4292,1.4299,1.4299,1.4299,1.4299,1.4299,0.0,0.0,0.0,0.0,0.0,0.0,0.0,0.0,0.0,0.0,0.0,0.0,0.0,0.0,0.0,0.0,0.0,0.0,0.0,0.0,0.0,0.0,0.0,0.0,0.0,0.0,0.0,0.0,0.0,0.077,0.2211,0.3179,0.4391,0.579,0.7332,0.792,0.778,0.846,0.873,0.8723,0.8893,0.9001,0.9055,0.9055,0.9055,0.9049,0.8967,0.8885,0.8885,0.8885,0.8885,0.8858,0.8757,0.0,0.0,0.0,0.8737,0.9239,1.0765,1.2359,1.3905,1.5187,1.5832,1.6191,1.6361,1.6463,1.6517,1.6503,1.6564,1.6612,1.6564,1.6537,1.6476,1.6334,1.6252,1.6151,1.5981,1.5954,1.592,1.5845,1.5906,1.5859,1.5628,1.5683,1.5608,1.5303,1.5282,1.5221,1.5072,1.5004,1.4889,1.4719,1.4502,1.4353,1.4265,1.4116,1.4007,1.3939,1.3939,1.398,1.4048,1.4136,1.4217,1.4292,1.4116,1.4089,1.4156,1.3994,1.4021,1.417,1.417,1.4224,1.4299,1.4299,1.4299,1.4299,0.0,0.0,0.0,0.0,0.0,0.0,0.0,0.0,0.0,0.0,0.0,0.0,0.0,0.0,0.0,0.0,0.0,0.0,0.0,0.0,0.0,0.0,0.0,0.0,0.0,0.0357,0.0515,0.0515,0.0858,0.1667,0.2807,0.45,0.5848,0.6872,0.8538,0.9069,0.8832,0.8947,0.8906,0.8791,0.9105,0.9207,0.9214,0.9255,0.9241,0.92,0.9076,0.9028,0.8994,0.8994,0.8994,0.8954,0.8723,0.8574,0.0,0.0,0.0,0.9123,1.1036,1.2237,1.3241,1.4482,1.5181,1.5649,1.5954,1.6191,1.6341,1.6313,1.6361,1.6456,1.6612,1.6544,1.6422,1.6273,1.6252,1.6157,1.5893,1.5852,1.5798,1.5655,1.5737,1.5696,1.5438,1.5513,1.5472,1.5201,1.5147,1.5079,1.4977,1.4896,1.4746,1.4516,1.4333,1.419,1.4075,1.3885,1.3804,1.3838,1.3804,1.3824,1.3905,1.4021,1.4156,1.4285,1.4055,1.398,1.4,1.3817,1.3871,1.4075,1.4075,1.4163,1.4299,1.4299,1.4299,1.4299,0.0,0.0,0.0,0.0,0.0,0.0,0.0,0.0,0.0,0.0,0.0,0.0,0.0,0.0,0.0,0.0,0.0,0.0,0.0,0.0,0.0,0.0,0.0,0.0,0.0,0.1249,0.1915,0.1915,0.3295,0.4098,0.4408,0.6142,0.7005,0.716,0.8725,0.9279,0.9187,0.9193,0.9055,0.8885,0.9089,0.9207,0.9228,0.9313,0.9337,0.9228,0.9306,0.9266,0.92,0.92,0.92,0.9125,0.8628,0.8486,0.8425,0.0,0.0,0.0,0.9829,1.0847,1.1932,1.2861,1.3946,1.4875,1.5174,1.5574,1.5967,1.6252,1.6198,1.6151,1.6307,1.6327,1.6273,1.6117,1.6096,1.6035,1.5879,1.5852,1.5798,1.5655,1.5649,1.5588,1.5425,1.5418,1.5357,1.5194,1.5059,1.4977,1.497,1.4692,1.4529,1.4509,1.4231,1.4082,1.4075,1.3783,1.3709,1.3838,1.3702,1.379,1.4061,1.4068,1.4156,1.4299,1.4285,1.4116,1.3865,1.3994,1.4055,1.4075,1.4075,1.4163,1.4299,1.4299,1.4299,1.4299,0.0,0.0,0.0,0.0,0.0,0.0,0.0,0.0,0.0,0.0,0.0,0.0,0.0,0.128,0.1286,0.1286,0.0476,0.0,0.0,0.0,0.0,0.0,0.0824,0.1273,0.1273,0.2589,0.3285,0.3273,0.3897,0.4212,0.4354,0.621,0.708,0.7179,0.8772,0.9388,0.9207,0.9207,0.918,0.9089,0.9239,0.9415,0.9557,0.932,0.9617,0.9971,0.9646,0.968,0.9863,0.9761,0.9537,0.9239,0.8886,0.8642,0.8445,0.8248,0.8364,0.8757,0.9659,1.0392,1.1158,1.2257,1.3139,1.3865,1.436,1.4814,1.5221,1.5527,1.5622,1.573,1.5974,1.6096,1.6144,1.609,1.6001,1.5886,1.5737,1.5628,1.5513,1.5364,1.5432,1.5432,1.5276,1.535,1.535,1.5194,1.5052,1.493,1.4828,1.4624,1.4428,1.4238,1.4027,1.3831,1.3641,1.3539,1.3505,1.3559,1.3505,1.3587,1.379,1.3885,1.3905,1.3885,1.4177,1.4238,1.4122,1.398,1.4041,1.4211,1.4109,1.4163,1.4299,1.4299,1.4299,1.4312,0.0,0.0,0.0,0.0,0.0,0.0,0.0,0.0,0.0,0.0,0.0,0.0,0.0,0.0,0.2665,0.2665,0.1842,0.1358,0.1358,0.135,0.1346,0.1346,0.2187,0.2689,0.2689,0.398,0.4712,0.4799,0.5369,0.5709,0.5795,0.7174,0.7805,0.7916,0.9038,0.9422,0.9289,0.9289,0.9255,0.9228,0.9374,0.9605,0.9802,0.9659,0.991,1.0381,1.0926,1.1135,1.1333,1.1893,1.1744,1.116,1.0194,0.9216,0.8384,0.8235,0.8296,0.8554,0.9198,0.9734,1.0344,1.1301,1.206,1.2745,1.3397,1.3933,1.4421,1.4862,1.512,1.535,1.5649,1.5832,1.5947,1.5995,1.592,1.5784,1.5588,1.5479,1.5357,1.5201,1.5269,1.5296,1.5194,1.5276,1.5289,1.5187,1.5052,1.4903,1.4746,1.459,1.4353,1.4007,1.3851,1.3648,1.3403,1.3403,1.3403,1.3403,1.3403,1.3485,1.3634,1.3729,1.3743,1.3722,1.4068,1.4163,1.4061,1.3905,1.3994,1.4211,1.4055,1.4122,1.4299,1.4299,1.4333,1.4387,0.0,0.0,0.0,0.0,0.0,0.0,0.0,0.0,0.0,0.0,0.0,0.0,0.0,0.0,0.0,0.4071,0.4021,0.4021,0.4021,0.4002,0.4013,0.4013,0.4062,0.4062,0.4062,0.5381,0.6183,0.6344,0.778,0.8642,0.8878,0.9083,0.9289,0.9374,0.9381,0.9381,0.9374,0.9374,0.935,0.9241,0.949,0.9707,0.989,1.0324,1.0331,1.0489,1.3104,1.3674,1.3555,1.5516,1.5711,1.4801,1.2463,1.0138,0.8255,0.8092,0.8153,0.8354,0.0,0.0,0.0,0.9849,1.0697,1.1552,1.2291,1.2922,1.3566,1.4326,1.4719,1.5031,1.5343,1.5527,1.5676,1.5818,1.5937,1.5737,1.5452,1.5404,1.535,1.5201,1.5181,1.5181,1.5181,1.5181,1.5181,1.5181,1.5045,1.4896,1.4746,1.4584,1.4299,1.3765,1.3702,1.3553,1.3403,1.3403,1.3403,1.3403,1.3403,1.3485,1.3627,1.3627,1.3702,1.3844,1.4,1.3905,1.3648,1.379,1.3946,1.4061,1.3912,1.4034,1.4299,1.4306,1.4394,1.4516,0.0,0.0,0.0,0.0,0.0,0.0,0.0,0.0,0.0,0.0,0.0,0.0,0.3504,0.491,0.5799,0.5799,0.4799,0.415,0.415,0.4078,0.3987,0.3987,0.4934,0.5435,0.5435,0.6905,0.7712,0.775,0.8361,0.8689,0.8777,0.9035,0.9234,0.9275,0.9334,0.932,0.9275,0.9275,0.9309,0.9347,0.9646,0.9985,1.0317,1.0446,1.177,1.3624,1.4388,1.5695,1.7116,1.757,1.6234,1.3961,1.0864,0.9325,0.854,0.8282,0.8235,0.8333,0.8368,0.0,0.0,0.0,0.0,0.0,1.126,1.1755,1.2413,1.3485,1.3865,1.4258,1.5092,1.5371,1.5486,1.5527,1.5533,1.5506,1.5425,1.5316,1.5228,1.5187,1.5181,1.5181,1.5181,1.5181,1.5181,1.5181,1.495,1.4787,1.474,1.4394,1.4082,1.3844,1.3702,1.3553,1.3403,1.3403,1.3403,1.3403,1.3403,1.3485,1.3627,1.3627,1.3648,1.3702,1.396,1.396,1.3804,1.4068,1.4197,1.4231,1.419,1.4224,1.4312,1.4414,1.4475,1.4543,0.0,0.0,0.0,0.0,0.0,0.0899,0.0899,0.1448,0.1854,0.0,0.0,0.0,0.5836,0.6794,0.7317,0.7317,0.6505,0.5982,0.5938,0.5824,0.577,0.5672,0.648,0.6967,0.6967,0.7917,0.8391,0.8452,0.8628,0.8743,0.8811,0.8981,0.9062,0.9069,0.9157,0.9144,0.9069,0.9187,0.9337,0.9503,0.9802,1.0222,1.0711,1.0955,1.2141,1.3873,1.5884,1.7595,1.9093,2.049,1.8809,1.5604,1.2566,1.0755,0.9608,0.873,0.8411,0.8357,0.8357,0.8533,0.8764,0.9001,0.0,0.0,1.0408,1.09,1.1626,1.2637,1.3112,1.3614,1.4468,1.4746,1.4896,1.5018,1.5092,1.5174,1.5296,1.5242,1.5181,1.5181,1.5181,1.5181,1.5181,1.5126,1.5092,1.5092,1.4875,1.4713,1.4652,1.4278,1.4,1.3844,1.3702,1.3553,1.3403,1.3403,1.3403,1.3403,1.3403,1.3451,1.3532,1.3532,1.3532,1.3553,1.3844,1.3926,1.3865,1.417,1.4299,1.4292,1.4231,1.4245,1.4312,1.4394,1.4502,1.4631,0.0,0.0,0.0053,0.0267,0.1388,0.2293,0.2457,0.3683,0.4535,0.0,0.5718,0.7063,0.8474,0.8567,0.8554,0.8554,0.8526,0.8452,0.833,0.8354,0.8235,0.8042,0.8221,0.8347,0.8347,0.8431,0.8574,0.871,0.873,0.8804,0.8885,0.8885,0.8885,0.8885,0.8885,0.8885,0.8892,0.9089,0.9527,1.0007,1.0149,1.0616,1.1405,1.207,1.261,1.357,1.797,1.9734,2.044,2.3354,2.2014,1.8593,1.5767,1.3433,1.1261,0.9363,0.8769,0.879,0.8586,0.8621,0.875,0.8844,0.9164,0.0,0.9842,1.0361,1.1043,1.1803,1.24,1.2976,1.358,1.3831,1.4041,1.4319,1.4516,1.476,1.5113,1.5174,1.5181,1.5181,1.5181,1.5181,1.5181,1.5065,1.4991,1.497,1.4814,1.4652,1.4496,1.4238,1.4021,1.3844,1.3715,1.3573,1.3403,1.3403,1.3403,1.3403,1.3403,1.3403,1.3403,1.3403,1.3403,1.3417,1.3695,1.3817,1.3838,1.415,1.4285,1.4285,1.415,1.4183,1.4299,1.4319,1.4489,1.4719,0.0,0.0,0.0428,0.1787,0.2223,0.2887,0.4192,0.4643,0.4808,0.4808,0.6093,0.7534,0.9077,0.9152,0.9077,0.9077,0.8804,0.8655,0.8628,0.8513,0.8425,0.8397,0.8425,0.8438,0.8438,0.8587,0.8682,0.871,0.8832,0.8851,0.8885,0.8885,0.8885,0.8885,0.8885,0.8885,0.8892,0.9089,1.0523,1.2461,1.1243,1.1985,1.3969,1.5068,1.7594,2.0792,2.2282,2.3811,2.4814,2.3376,2.1617,1.9334,1.557,1.4142,1.3327,1.0196,0.9991,1.045,0.9173,0.8777,0.875,0.8844,0.9164,0.0,0.9646,0.9876,1.029,1.1158,1.1531,1.1918,1.263,1.299,1.3234,1.3403,1.3763,1.4251,1.4916,1.5113,1.5181,1.5181,1.5181,1.5181,1.5181,1.516,1.5092,1.4977,1.4713,1.4496,1.4346,1.4285,1.4129,1.3851,1.3732,1.3675,1.3403,1.3403,1.3403,1.3403,1.3403,1.3403,1.3403,1.3403,1.3403,1.341,1.3593,1.3668,1.3695,1.3994,1.419,1.4299,1.4265,1.4272,1.4312,1.4428,1.4509,1.459,0.0,0.0598,0.1372,0.2342,0.3739,0.4994,0.5873,0.6635,0.7147,0.7147,0.7835,0.8644,0.9424,0.949,0.949,0.949,0.9286,0.0,0.0,0.8791,0.8642,0.8486,0.8554,0.8594,0.8594,0.8743,0.8859,0.8933,0.8933,0.8974,0.9042,0.8974,0.8885,0.8885,0.8885,0.8981,0.9062,0.9286,1.0845,1.3187,1.2724,1.419,1.6682,1.7577,1.93,2.1368,2.29,2.4714,2.6214,2.4765,2.2607,2.0107,1.7887,1.6053,1.4351,1.1916,1.1412,1.1285,0.9703,0.9103,0.8967,0.9123,0.9211,0.0,0.0,1.0657,1.121,1.2523,1.2425,1.2179,1.2689,1.2356,1.2074,1.244,1.2942,1.3417,1.3797,1.4496,1.4991,1.5065,1.5011,1.4964,1.4964,1.4964,1.4903,1.4753,1.4597,1.4448,1.4306,1.4299,1.4156,1.3851,1.3838,1.3736,1.3519,1.3437,1.3437,1.3512,1.3437,1.3403,1.3403,1.3403,1.3403,1.341,1.3559,1.3627,1.3654,1.3953,1.4116,1.419,1.4272,1.4299,1.4306,1.438,1.4496,1.4645,0.044,0.1387,0.2474,0.3269,0.5345,0.7112,0.7546,0.8694,0.9476,0.9503,0.9666,0.9781,0.9781,0.9958,1.0114,1.0202,0.9998,0.0,0.9617,0.9273,0.896,0.8628,0.8703,0.8764,0.8798,0.8913,0.9049,0.9255,0.9083,0.9069,0.9207,0.9035,0.8981,0.8981,0.9252,0.9356,0.9316,0.9884,1.1516,1.3861,1.459,1.6588,1.916,1.991,2.0501,2.126,2.3117,2.4891,2.6254,2.5583,2.3278,2.0509,1.9404,1.75,1.5268,1.3223,1.2587,1.2194,1.0154,0.9429,0.9282,0.9347,0.9344,0.9624,0.0,0.0,0.0,1.3933,1.3569,1.2982,1.3223,1.2339,1.1641,1.1861,1.2377,1.2727,1.2542,1.3519,1.4312,1.4557,1.4624,1.4631,1.457,1.4618,1.4604,1.4482,1.4441,1.4367,1.4217,1.4265,1.4156,1.3851,1.3838,1.3756,1.3587,1.3464,1.3464,1.3587,1.3458,1.3403,1.3403,1.3403,1.3403,1.341,1.3532,1.36,1.3648,1.3919,1.4048,1.4089,1.4238,1.4299,1.4299,1.4299,1.4468,1.4699,0.1952,0.2066,0.3101,0.6045,0.6836,0.7615,0.9239,0.9647,0.9822,0.9896,1.0215,1.0392,1.0392,1.0765,1.1172,1.1565,1.1042,1.0839,1.0928,1.0175,0.953,0.9152,0.8974,0.8974,0.9159,0.9173,0.9262,0.9354,0.934,0.9273,0.9207,0.9193,0.9187,0.9243,1.0571,1.0589,0.9683,1.1212,1.3625,1.646,1.7207,1.8888,2.1038,2.2261,2.3958,2.5727,2.6174,2.6361,2.6056,2.3835,2.2052,2.0098,1.6583,1.6695,1.7116,1.2226,1.2716,1.4108,1.0725,0.9578,0.9361,0.9374,0.9367,0.9759,1.1191,0.0,1.198,1.3451,0.0,1.378,1.3828,0.0,0.0,1.2482,1.2754,1.2781,1.2004,1.2182,1.2569,1.3125,1.3878,1.4245,1.3966,1.419,1.434,1.4326,1.4197,1.4055,1.3899,1.415,1.4156,1.3851,1.3838,1.3709,1.3431,1.341,1.341,1.3424,1.341,1.3403,1.3403,1.3403,1.3403,1.3403,1.3417,1.3505,1.3641,1.3804,1.3946,1.4089,1.4238,1.4299,1.4299,1.4299,1.4401,1.4557,0.3352,0.4244,0.5302,0.6816,0.7852,0.8765,0.9654,0.9897,0.9916,0.9977,1.0385,1.069,1.086,1.1206,1.164,1.2176,1.1837,1.147,1.1255,1.0649,1.0025,0.9313,0.9225,0.9225,0.9344,0.9344,0.9361,0.951,0.9422,0.9395,0.9415,0.9327,0.9344,0.9401,1.1142,1.1862,1.1763,1.239,1.428,1.698,1.7725,1.9277,2.1414,2.3616,2.5192,2.6172,2.6466,2.6493,2.6241,2.5024,2.2343,1.9665,2.0722,1.8644,1.5644,1.5156,1.4597,1.3525,1.0991,1.0671,1.1015,1.1116,1.1552,1.2395,1.3818,1.4102,1.4455,1.592,0.0,0.0,0.0,0.0,0.0,0.0,1.2837,1.2387,1.1999,1.1717,1.183,1.2603,1.2956,1.3186,1.3315,1.3519,1.3648,1.3648,1.3749,1.3783,1.3722,1.4,1.4068,1.3844,1.3838,1.3743,1.3539,1.3444,1.3444,1.3532,1.3444,1.3403,1.3403,1.3403,1.3403,1.3403,1.3403,1.3437,1.3512,1.3743,1.3878,1.396,1.4204,1.4299,1.4312,1.4394,1.4516,1.4665,0.5417,0.6255,0.6929,0.7588,0.8646,0.9496,0.9829,0.9916,1.0031,1.0152,1.0588,1.0989,1.1369,1.1864,1.244,1.3119,1.2942,1.2522,1.1884,1.1369,1.0704,0.9849,0.9612,0.9578,0.9747,0.9585,0.9557,0.9666,0.9557,0.9537,0.9605,0.9496,0.9442,0.9507,1.135,1.263,1.3293,1.3716,1.5495,1.8179,1.8888,2.0021,2.1631,2.4475,2.5692,2.6077,2.6279,2.6333,2.6174,2.5557,2.2854,2.0255,2.3049,2.0331,1.6481,1.8134,1.7258,1.5159,1.2562,1.2669,1.3385,1.2591,1.3236,1.4422,1.5897,1.6045,1.6326,1.7816,1.7325,0.0,0.0,0.0,1.4527,1.4368,0.0,1.2884,1.2073,1.1538,1.1415,1.1753,1.1857,1.2149,1.2718,1.2834,1.2901,1.2983,1.3234,1.3403,1.3444,1.3804,1.3953,1.3759,1.3878,1.3817,1.3634,1.3519,1.3498,1.3566,1.3451,1.3403,1.3403,1.3403,1.3403,1.3403,1.3403,1.3444,1.3539,1.3749,1.3892,1.3994,1.4258,1.436,1.4373,1.4475,1.4638,1.4821,0.8491,0.7648,0.7243,0.8848,0.9279,0.953,0.9909,0.9984,1.0145,1.0643,1.0962,1.1446,1.2039,1.2949,1.3926,1.4814,1.4746,1.434,1.36,1.2589,1.1681,1.086,1.0195,1.008,1.0663,1.0107,0.9808,0.9815,0.9808,0.9741,0.9612,0.9605,0.9605,0.9664,1.1415,1.2636,1.3448,1.5446,1.8164,2.1126,2.165,2.187,2.2032,2.4553,2.5692,2.6077,2.6279,2.6213,2.5765,2.4184,2.3248,2.2437,2.0506,2.0942,2.186,1.9898,2.0635,2.0932,1.6065,1.5894,1.6257,1.3153,1.3398,1.4777,1.6161,1.6175,1.6387,1.8134,1.8477,1.8422,1.8422,0.0,0.0,0.0,0.0,0.0,0.0,1.1645,1.1118,0.9992,1.0482,1.1341,1.223,1.2182,1.2216,1.2501,1.2671,1.2827,1.2976,1.3532,1.3844,1.3838,1.3987,1.3926,1.3634,1.3627,1.3553,1.341,1.3403,1.3403,1.3403,1.3403,1.3403,1.3403,1.3403,1.3559,1.3824,1.3838,1.4014,1.4299,1.4448,1.4502,1.4502,1.4509,1.4706,1.4964,0.894,0.8825,0.8667,0.9235,0.9429,0.9646,0.9936,1.0134,1.0575,1.1619,1.202,1.2657,1.3858,1.4306,1.4801,1.5493,1.533,1.474,1.3695,1.3105,1.2379,1.1436,1.086,1.0711,1.1009,1.0521,1.0168,0.9909,0.9869,0.9795,0.9747,0.9747,0.9747,0.9821,1.1779,1.378,1.5662,1.6557,1.8648,2.1424,2.0482,2.1053,2.2385,2.2707,2.2829,2.3277,2.5396,2.6159,2.6201,2.5842,2.4594,2.3448,2.4628,2.3076,2.0991,2.2111,2.1637,2.0353,1.8594,1.8752,1.9197,1.7937,1.8105,1.8615,1.8907,1.8551,1.8415,1.9176,1.9199,1.9078,1.9078,0.0,0.0,0.0,0.0,0.0,0.0,1.1059,0.9659,0.9412,0.9958,1.0449,1.0921,1.109,1.1253,1.1457,1.1796,1.2149,1.2501,1.3078,1.3492,1.3695,1.5361,1.615,1.6032,1.7617,1.8337,1.8273,1.8054,1.7247,1.5846,1.5644,1.4698,1.3403,1.3403,1.3512,1.3709,1.3804,1.396,1.4345,1.626,1.5988,1.4672,1.478,1.4882,1.4984,0.9293,0.9462,0.9442,0.9388,0.9551,0.9802,1.0154,1.0521,1.1199,1.244,1.2908,1.3654,1.5059,1.5255,1.5499,1.6042,1.5967,1.5289,1.3878,1.3804,1.3322,1.2216,1.1898,1.1809,1.1959,1.126,1.0697,1.0226,0.9963,0.9849,0.9747,0.9747,0.9747,0.9814,1.1164,1.3509,1.6512,1.6907,1.9245,2.2472,2.0062,1.9521,2.0157,1.9289,2.0104,2.2129,2.5099,2.6293,2.66,2.7001,2.6206,2.5456,2.7284,2.5527,2.3201,2.496,2.4238,2.2579,2.1503,2.1966,2.2571,2.1258,2.1521,2.1897,2.1176,2.0641,2.0227,2.0,1.98,1.9639,0.0,0.0,0.0,0.0,0.0,0.0,0.0,1.1973,1.05,1.0659,1.0557,1.0611,1.0952,1.1102,1.1272,1.1622,1.1427,1.1579,1.2026,1.261,1.3098,1.3458,1.5821,1.723,1.729,1.9558,2.0731,2.0815,2.0589,1.9732,1.8247,1.7282,1.6079,1.4629,1.3867,1.3641,1.3797,1.3885,1.4014,1.444,1.7202,1.679,1.4851,1.5908,1.5768,1.514,0.9652,0.9625,0.9591,0.9456,0.9652,0.9985,1.0432,1.1138,1.2006,1.3098,1.3634,1.4387,1.5615,1.5859,1.6103,1.653,1.6686,1.6022,1.4272,1.4692,1.4482,1.3308,1.3241,1.3295,1.3431,1.2264,1.1362,1.0765,1.022,0.9842,0.9618,0.9612,0.9605,0.9605,0.9754,1.2028,1.5811,1.6563,1.9749,2.3953,2.0174,1.7478,1.5659,1.4911,1.7703,2.2336,2.51,2.6321,2.6746,2.7317,2.7799,2.8221,2.8221,2.8221,2.8221,2.8221,2.8221,2.7561,2.4814,2.5439,2.6122,2.3025,2.3515,2.4329,2.2886,2.2311,2.179,2.0695,2.0366,2.0294,2.0,0.0,0.0,0.0,0.0,0.0,1.5583,1.418,1.3318,1.3318,1.2238,1.168,1.2243,1.2175,1.2342,1.2889,1.171,1.1166,1.1623,1.2135,1.2664,1.3125,1.5727,1.717,1.7459,1.9819,2.1003,2.1191,2.1181,2.0879,2.0426,1.8466,1.744,1.6943,1.5038,1.427,1.4416,1.4416,1.4513,1.4953,1.7649,1.7344,1.5497,1.7644,1.7181,1.5398,0.9822,0.9856,0.9992,1.0175,1.0086,1.0078,1.0595,1.1206,1.223,1.3946,1.4658,1.5588,1.7127,1.7127,1.7066,1.7182,1.7026,1.649,1.5466,1.5438,1.5181,1.4536,1.419,1.3973,1.3899,1.2732,1.1877,1.1389,1.0422,0.9889,0.9768,0.9659,0.9551,0.9449,0.9707,1.1287,1.3888,1.4712,1.7117,2.0114,1.7706,1.633,1.5794,1.5778,1.6676,1.8233,2.0459,2.2648,2.4482,2.4824,2.6434,2.8221,2.8221,2.8221,2.8221,2.8221,2.8221,2.8039,2.7538,2.7416,2.724,2.6159,2.5779,2.5398,2.4583,2.3995,2.3674,2.3808,2.314,2.2445,2.2138,2.1243,2.016,0.0,0.0,0.0,0.0,1.418,1.3318,1.3318,1.391,1.4025,1.3257,1.326,1.3364,1.3627,1.2564,1.2065,1.2523,1.208,1.2101,1.2657,1.688,1.9346,1.9893,2.3841,2.5991,2.6276,2.6075,2.4899,2.3067,2.2544,2.1274,1.9425,1.9136,1.909,1.9267,1.9267,1.9482,2.01,2.2751,2.3526,2.2657,1.7869,1.573,1.5518,1.0175,1.0134,1.0263,1.0629,1.088,1.1158,1.1538,1.1884,1.2732,1.4482,1.5181,1.594,1.706,1.7324,1.7392,1.7324,1.7114,1.6632,1.5811,1.5988,1.5805,1.5092,1.5072,1.4916,1.4563,1.3512,1.2623,1.1911,1.086,1.0132,0.9727,0.9578,0.9429,0.935,0.9523,1.0808,1.289,1.4835,1.6145,1.6949,1.6139,1.5267,0.0,1.4773,1.4965,1.5342,1.6542,1.9313,2.2378,2.251,2.3748,2.5105,2.5105,2.5105,2.5105,2.5105,2.5105,2.5397,2.6607,2.6774,2.6753,2.7632,2.7575,2.7041,2.6066,2.5585,2.5264,2.4943,2.4356,2.3768,2.334,2.2298,2.0922,1.9199,0.0,0.0,0.0,1.627,1.5763,1.5763,1.6338,1.6441,1.5537,1.4933,1.466,1.4849,1.3817,1.3005,1.2668,1.3314,1.3714,1.3816,1.7421,2.0179,2.1987,2.4526,2.6553,2.7949,2.7776,2.6926,2.56,2.4699,2.3435,2.1962,2.1263,2.1003,2.1115,2.1115,2.1267,2.1618,2.3358,2.4867,2.5582,2.0344,1.8464,1.8725,1.0609,1.0466,1.0541,1.1009,1.1857,1.2603,1.3017,1.3098,1.3607,1.4991,1.5581,1.6029,1.6442,1.7046,1.7358,1.7209,1.706,1.6646,1.5866,1.6422,1.6361,1.5432,1.5886,1.59,1.5309,1.438,1.3403,1.2379,1.1416,1.0422,0.9605,0.9456,0.9293,0.9187,0.9306,1.0391,1.2334,1.5215,1.5625,1.439,1.4877,1.4276,1.305,1.3024,1.3302,1.3675,1.3817,1.6674,2.0387,2.0387,2.0782,2.1221,2.1221,2.1221,2.1221,2.1221,2.1221,2.1663,2.3772,2.473,2.561,2.7685,2.8559,2.8644,2.7348,2.7028,2.6653,2.5464,2.509,2.4823,2.4329,2.2855,2.112,1.9501,1.8902,1.8832,1.9341,1.9239,1.9105,1.9145,1.8682,0.0,1.7803,1.6666,1.6058,1.6303,1.5239,1.4161,1.3047,1.509,1.6163,1.583,1.7925,2.0371,2.3133,2.3639,2.5076,2.7267,2.7529,2.7696,2.7626,2.5942,2.4974,2.4567,2.2845,2.2105,2.2126,2.2126,2.2254,2.2263,2.2439,2.4206,2.6423,2.3973,2.3364,2.3748,1.09,1.0941,1.1192,1.1769,1.2712,1.3743,1.478,1.5052,1.5398,1.6151,1.6748,1.7188,1.7392,1.7419,1.7358,1.7209,1.706,1.6917,1.6754,1.687,1.6802,1.649,1.6578,1.6408,1.5934,1.4808,1.377,1.284,1.1572,1.0422,0.9605,0.9456,0.9239,0.8988,0.9259,0.9928,1.0927,1.1981,1.2337,1.2384,1.2957,1.3089,1.3003,1.337,1.3634,1.3824,1.3973,1.576,1.8086,1.8086,1.9503,2.1221,2.1221,2.1221,2.1221,2.1221,2.1221,2.1348,2.2054,2.3631,2.5299,2.5962,2.7393,2.8617,2.835,2.8096,2.7976,2.8217,2.7495,2.6774,2.6667,2.2904,2.0113,2.0999,1.9096,1.8619,2.1727,2.0922,2.0094,2.0334,1.8611,1.7183,1.649,1.7161,1.7499,1.737,1.6378,1.5862,1.6001,1.5992,1.6405,1.7303,2.0162,2.139,2.0758,2.4657,2.6051,2.5059,2.6851,2.7696,2.7709,2.7654,2.7375,2.7114,2.698,2.7068,2.7298,2.7298,2.7567,2.7839,2.6163,2.6972,2.9015,2.6751,2.7317,2.8765,1.1538,1.1647,1.1986,1.2745,1.3743,1.4841,1.6042,1.6612,1.6761,1.6347,1.6544,1.6693,1.6619,1.7019,1.7243,1.7093,1.7019,1.6978,1.6978,1.6978,1.6876,1.6639,1.6707,1.6503,1.5974,1.5248,1.4285,1.3071,1.2033,1.0907,0.9713,0.9571,0.934,0.9069,0.9523,1.0141,1.0873,1.1396,1.1932,1.2447,1.2813,1.3863,1.5239,1.5486,1.635,1.7537,1.7733,1.7715,1.7463,1.6261,1.6665,1.7597,1.7597,1.7597,1.7597,1.7597,1.7597,1.7955,1.9259,2.0511,2.1925,2.45,2.5847,2.6888,2.8108,2.8243,2.8315,2.8511,2.8243,2.7776,2.7148,2.4204,2.2,2.2403,2.0942,2.0464,2.2604,2.2271,2.1884,2.2031,1.9562,1.7729,1.7291,1.6351,1.5697,1.5472,1.592,1.6023,1.5703,1.7513,1.8769,1.9271,2.0885,2.2236,2.3368,2.461,2.5678,2.647,2.7263,2.7936,2.839,2.839,2.831,2.819,2.8484,2.8604,2.8617,2.8764,2.9085,2.9411,2.836,2.877,2.9774,2.8949,2.9416,3.0425,1.2318,1.242,1.28,1.3831,1.4767,1.5757,1.6897,1.765,1.7724,1.6693,1.653,1.6381,1.6056,1.6748,1.7168,1.6998,1.6978,1.6978,1.6978,1.6978,1.6856,1.6578,1.6714,1.653,1.5961,1.5628,1.4753,1.3315,1.2474,1.1341,0.9958,0.972,0.9551,0.9521,0.9964,1.0643,1.143,1.1884,1.2454,1.3145,1.3771,1.5285,1.7239,1.778,1.9231,2.0932,2.112,2.0009,1.8279,1.6386,1.508,1.4299,1.4299,1.4299,1.4387,1.4911,1.508,1.5513,1.7851,1.8889,2.0105,2.3892,2.5165,2.5921,2.7957,2.8368,2.8355,2.8489,2.8617,2.8404,2.7148,2.5423,2.4001,2.3223,2.2584,2.2375,2.302,2.3554,2.3821,2.3634,2.0513,1.8343,1.8253,1.4949,1.2927,1.3121,1.5121,1.5955,1.5171,1.8532,2.0497,2.0544,2.1065,2.2503,2.4977,2.4517,2.532,2.7441,2.7702,2.8203,2.8938,2.8711,2.8644,2.8711,2.8938,2.8951,2.8818,2.9179,2.9459,2.9673,2.974,2.99,3.014,3.0434,3.0688,3.0929,1.3166,1.3173,1.3546,1.4991,1.5662,1.6313,1.7236,1.7792,1.8091,1.8111,1.7989,1.7738,1.7304,1.7344,1.729,1.7005,1.6978,1.6978,1.6978,1.6978,1.6904,1.6734,1.6876,1.6741,1.6279,1.5839,1.5011,1.3777,1.2623,1.1504,1.0419,0.9869,0.9876,1.0378,1.0568,1.1226,1.2216,1.2664,1.3051,1.3535,1.5656,1.6751,1.7144,1.9397,2.0406,2.0729,2.1069,2.1048,2.0875,2.0616,1.7772,1.4299,1.4299,1.4299,1.4734,1.6809,1.7501,1.7938,2.0269,2.2439,2.4224,2.4886,2.6509,2.8029,2.8745,2.8751,2.8711,2.9245,2.9379,2.8951,2.7495,2.5549,2.3873,2.2773,2.2748,2.304,2.3653,2.4894,2.5411,2.4609,2.0604,1.797,1.7963,1.3238,1.0643,1.1897,1.4646,1.6478,1.695,1.786,1.8953,2.012,2.1042,2.1192,2.0538,2.4802,2.6198,2.4843,2.7123,2.8297,2.8644,2.8617,2.8751,2.9005,2.9032,2.9179,2.9446,3.0007,3.0261,3.0301,3.0568,3.0688,3.0742,3.1036,3.1156,3.1223,1.4292,1.436,1.474,1.5879,1.6381,1.6924,1.7826,1.8036,1.8111,1.8179,1.7894,1.7555,1.7195,1.7154,1.7107,1.6992,1.6978,1.6978,1.6978,1.6978,1.687,1.6625,1.6761,1.6592,1.6049,1.5859,1.5181,1.398,1.2963,1.1972,1.1016,1.0419,1.0507,1.1185,1.1511,1.2094,1.2847,1.3207,1.3478,1.3753,1.4648,1.6683,1.9275,2.0273,2.2404,2.4925,2.5047,2.4283,2.3276,2.3046,2.0086,1.6378,1.6378,1.6378,1.6553,1.7501,1.8802,2.0009,2.0962,2.1911,2.2977,2.4465,2.5578,2.672,2.8366,2.8684,2.8671,2.8911,2.9098,2.9085,2.8671,2.731,2.6246,2.5963,2.551,2.5381,2.586,2.6398,2.5938,2.3807,2.023,1.7748,1.7369,1.2713,1.0426,1.2158,1.3168,1.3907,1.4272,1.677,1.8254,1.8259,2.146,2.2854,2.2088,2.5753,2.7517,2.7529,2.8267,2.8938,2.9379,2.9205,2.9285,2.9553,2.9379,2.9472,2.978,3.0194,3.0354,3.0394,3.0675,3.0795,3.0822,3.1116,3.1223,3.1276,1.5255,1.5309,1.5628,1.6612,1.6931,1.7317,1.8124,1.8158,1.8057,1.7968,1.765,1.7324,1.7073,1.7039,1.7026,1.6985,1.6978,1.6978,1.6978,1.6978,1.6842,1.6537,1.6666,1.6469,1.5866,1.5852,1.5357,1.4333,1.3437,1.2623,1.1898,1.1253,1.1335,1.2026,1.2386,1.2881,1.3458,1.3715,1.3858,1.3905,1.4536,1.6672,1.9629,2.038,2.3121,2.6638,2.6729,2.5865,2.4635,2.4362,2.134,1.7687,1.7746,1.7763,1.7938,1.8627,2.0443,2.2342,2.303,2.3287,2.3641,2.5288,2.5934,2.6586,2.8353,2.8804,2.8885,2.8978,2.9152,2.9339,2.9459,2.8791,2.7941,2.7122,2.7258,2.7197,2.6379,2.7049,2.6381,2.3089,1.9937,1.7955,1.7574,1.3349,1.1635,1.4024,1.3639,1.3314,1.3332,1.6033,1.7629,1.7776,2.1398,2.3329,2.3421,2.629,2.8217,2.9219,2.9192,2.9392,2.978,2.9659,2.9766,3.0034,2.9833,2.99,3.0194,3.0488,3.0621,3.0648,3.0942,3.1049,3.1089,3.1383,3.1436,3.141,1.592,1.5832,1.6008,1.7202,1.729,1.7392,1.8002,1.8091,1.7982,1.7684,1.7514,1.7358,1.7209,1.7188,1.7134,1.6992,1.6978,1.6978,1.6978,1.6978,1.6842,1.6537,1.6666,1.6469,1.5866,1.5852,1.556,1.4964,1.4061,1.3458,1.3132,1.2469,1.2366,1.2949,1.3098,1.3498,1.4075,1.4224,1.4204,1.4228,1.6275,1.702,1.7185,1.9415,2.1861,2.4116,2.446,2.4555,2.4471,2.4471,2.1408,1.7526,1.7704,1.7763,1.8279,2.0529,2.2783,2.5117,2.7448,2.8136,2.8136,2.8136,2.8377,2.8598,2.8965,2.9259,2.9553,2.9847,2.99,2.982,2.9539,2.9472,2.8351,2.4784,2.6935,2.7781,2.4344,2.6388,2.6764,2.2765,2.0027,1.8517,1.8694,1.5256,1.4438,1.7798,1.6995,1.6095,1.5463,1.5734,1.7073,1.9504,2.0651,2.1843,2.3067,2.6199,2.8003,2.8631,2.9205,2.9486,2.9499,2.978,3.0074,3.0354,3.0354,3.0515,3.0808,3.1089,3.1209,3.1249,3.1543,3.1664,3.169,3.1984,3.1904,3.1744,1.649,1.6463,1.6578,1.7161,1.7311,1.748,1.788,1.7935,1.786,1.767,1.7514,1.7324,1.7073,1.7046,1.7032,1.6985,1.6978,1.6978,1.6978,1.6978,1.689,1.6686,1.6625,1.6408,1.6015,1.5811,1.5513,1.5113,1.4319,1.3668,1.3173,1.3146,1.3342,1.3722,1.3871,1.4102,1.4373,1.4421,1.4299,1.4142,1.4665,1.5678,1.7018,1.7841,1.9615,2.1734,2.1808,2.2043,2.2182,2.1947,2.0016,1.7662,1.7594,1.8781,2.0269,2.0962,2.3984,2.7317,2.822,2.8457,2.8511,2.8711,2.8978,2.9232,2.9325,2.9419,2.9459,2.9339,2.9312,2.9352,2.9459,2.9486,2.8569,2.5892,2.6246,2.5799,2.2616,2.2521,2.1596,1.819,1.65,1.6225,1.7827,1.5682,1.5101,1.752,1.653,1.5796,1.5739,1.7642,1.8687,1.8476,2.2117,2.3984,2.3684,2.6781,2.8617,2.9205,2.9593,2.978,2.978,2.9873,3.0074,3.0354,3.0354,3.0528,3.0808,3.1102,3.1223,3.1249,3.1557,3.1664,3.1704,3.1998,3.2051,3.2024,1.6849,1.6876,1.6958,1.7087,1.7236,1.7412,1.767,1.7704,1.767,1.7575,1.7433,1.7243,1.7005,1.6978,1.6978,1.6978,1.6978,1.6978,1.6978,1.6978,1.6883,1.6673,1.6571,1.6354,1.6001,1.5818,1.5574,1.5269,1.4746,1.4211,1.3682,1.3933,1.4089,1.4163,1.4312,1.4428,1.4509,1.4509,1.4373,1.4143,1.3987,1.4678,1.57,1.5869,1.7315,1.9419,1.9419,1.959,1.9771,1.9505,1.806,1.6348,1.6246,1.7957,1.9922,1.9922,2.3268,2.7046,2.7225,2.7969,2.8818,2.8991,2.9259,2.9539,2.9766,2.9726,2.9353,2.8373,2.808,2.7675,2.6912,2.6746,2.6265,2.462,2.4353,2.3611,2.1335,2.057,1.9272,1.6736,1.6169,1.6748,1.8676,1.8044,1.8237,2.0027,1.9628,1.9181,1.9023,1.9347,1.9892,2.0704,2.4176,2.5858,2.5545,2.7676,2.9005,2.9486,2.9887,3.014,3.0247,3.0247,3.0408,3.0688,3.0688,3.0849,3.1142,3.1316,3.1396,3.141,3.1597,3.1664,3.1717,3.2118,3.2198,3.2171,1.7005,1.7087,1.7134,1.7005,1.7087,1.7229,1.7399,1.7412,1.7405,1.7419,1.729,1.7141,1.6998,1.6978,1.6978,1.6978,1.6978,1.6978,1.6978,1.6978,1.6856,1.6564,1.6544,1.6334,1.5906,1.5879,1.5716,1.5411,1.5255,1.497,1.4563,1.4692,1.4611,1.4353,1.4475,1.4529,1.4529,1.4516,1.4434,1.4299,1.4136,1.3987,1.3858,1.3844,1.5209,1.7234,1.7234,1.7243,1.7251,1.7243,1.5877,1.4089,1.4075,1.573,1.7605,1.7763,2.1112,2.487,2.4905,2.6785,2.8784,2.8823,2.9035,2.9393,3.0039,2.9752,2.8796,2.6846,2.612,2.5116,2.2604,2.2202,2.2121,2.1542,2.1449,2.0984,1.9906,1.9644,1.901,1.7487,1.8166,1.9284,2.071,2.1678,2.2868,2.442,2.5037,2.4997,2.4223,2.0871,2.1053,2.5391,2.6466,2.7335,2.8248,2.8791,2.9259,2.9579,3.0114,3.0515,3.0795,3.0795,3.0955,3.1223,3.1223,3.1396,3.1664,3.1664,3.1664,3.1664,3.1664,3.1664,3.1744,3.2428,3.2372,3.2251,1.6985,1.7005,1.7019,1.6985,1.7012,1.7121,1.7378,1.7324,1.729,1.7405,1.729,1.7141,1.6998,1.6978,1.6978,1.6978,1.6978,1.6978,1.6978,1.6978,1.6951,1.6876,1.6761,1.6592,1.6368,1.6144,1.5825,1.5411,1.5255,1.5126,1.5025,1.495,1.4882,1.4808,1.4726,1.4685,1.4679,1.4563,1.4489,1.4441,1.4177,1.4048,1.4007,1.3885,1.4277,1.493,1.493,1.501,1.5008,1.4974,1.458,1.4224,1.4109,1.4597,1.5579,1.7279,1.9873,2.2155,2.2599,2.4515,2.6443,2.6766,2.6924,2.7045,2.7372,2.5765,2.4097,2.3674,2.33,2.2907,2.2212,2.208,2.1353,1.9364,1.8583,1.7378,1.503,1.4398,1.3976,1.3478,1.5214,1.7407,1.9888,2.1793,2.3117,2.3801,2.4074,2.4044,2.3751,2.346,2.4126,2.6121,2.7482,2.8283,2.8497,2.9299,2.9967,3.0474,3.0394,3.0515,3.0795,3.0795,3.0955,3.1223,3.1223,3.1396,3.1664,3.1664,3.1664,3.1664,3.1664,3.1664,3.1744,3.2428,3.2505,3.2532,1.7121,1.7134,1.7141,1.7005,1.6978,1.7032,1.7195,1.7148,1.7127,1.7209,1.7148,1.7066,1.6992,1.6978,1.6978,1.6978,1.6978,1.6978,1.6978,1.6978,1.6951,1.6876,1.6795,1.668,1.6524,1.63,1.5967,1.5513,1.5432,1.5289,1.5086,1.5072,1.4997,1.4862,1.478,1.478,1.4828,1.4604,1.455,1.459,1.4292,1.4177,1.4163,1.4082,1.4102,1.4183,1.4251,1.4326,1.4394,1.438,1.4434,1.4489,1.4407,1.4489,1.4868,1.6017,1.8076,2.0051,2.0275,2.2211,2.4272,2.4555,2.4642,2.473,2.4988,2.3853,2.2059,1.9871,1.9227,1.8593,1.7397,1.7047,1.6814,1.6669,1.5965,1.4832,1.3238,1.2691,1.2741,1.3483,1.5241,1.7858,2.1416,2.3154,2.4559,2.5626,2.5969,2.5981,2.546,2.6449,2.7243,2.7546,2.8644,2.9339,2.9606,3.0074,3.0541,3.0996,3.0969,3.1116,3.1396,3.1396,3.1476,3.1623,3.149,3.1517,3.1664,3.1664,3.1664,3.1677,3.181,3.1864,3.1944,3.2532,3.2746,3.2812,1.7236,1.7263,1.7277,1.7026,1.6978,1.6978,1.6978,1.6978,1.6978,1.6978,1.6978,1.6978,1.6978,1.6978,1.6978,1.6978,1.6978,1.6978,1.6978,1.6978,1.6924,1.6788,1.6788,1.6714,1.6558,1.6374,1.6069,1.5642,1.5615,1.5398,1.5004,1.5126,1.5038,1.4774,1.4774,1.4848,1.495,1.4645,1.4597,1.4713,1.4421,1.4299,1.4299,1.4299,1.4312,1.4346,1.4468,1.4523,1.4563,1.4699,1.4726,1.4706,1.4706,1.4719,1.474,1.474,1.6308,1.8092,1.8067,1.995,2.2093,2.2643,2.2526,2.229,2.2231,2.1753,2.0019,1.5465,1.4295,1.343,1.1251,1.0909,1.1593,1.3616,1.3607,1.3186,1.2868,1.2773,1.324,1.4764,1.6435,1.9059,2.3291,2.4656,2.6187,2.826,2.8804,2.8764,2.8136,2.9299,2.978,2.9312,2.9793,3.0314,3.0849,3.0808,3.0955,3.1289,3.1543,3.1824,3.2104,3.2144,3.2144,3.2091,3.1837,3.1704,3.1677,3.1717,3.173,3.1757,3.2051,3.2171,3.2238,3.2772,3.2973,3.3026,1.7026,1.7032,1.7032,1.6992,1.6978,1.6978,1.6978,1.6978,1.6978,1.6978,1.6978,1.6978,1.6978,1.6978,1.6978,1.6978,1.6978,1.6978,1.6978,1.6978,1.6971,1.6944,1.6944,1.687,1.672,1.632,1.5961,1.5642,1.5506,1.5343,1.5153,1.5174,1.5092,1.4936,1.4936,1.495,1.495,1.4645,1.4597,1.4713,1.4421,1.4299,1.4299,1.4299,1.4373,1.4482,1.4502,1.459,1.4706,1.4733,1.4652,1.455,1.455,1.4638,1.474,1.474,1.5207,1.5673,1.5554,1.7569,2.014,2.231,2.1339,1.9271,1.7238,1.4957,1.2564,0.9773,0.9028,0.8648,0.8295,0.9651,1.0851,1.0739,1.1919,1.2684,1.2264,1.2508,1.2893,1.344,1.6191,1.9196,2.2069,2.4075,2.6403,2.9429,2.9272,2.9299,2.9913,3.0167,3.0368,3.0515,3.0608,3.0822,3.1156,3.0915,3.1062,3.1597,3.165,3.1824,3.2104,3.2358,3.2345,3.2104,3.2051,3.1891,3.169,3.1931,3.2038,3.2064,3.2358,3.2478,3.2519,3.2853,3.2973,3.3026,1.7114,1.7093,1.7073,1.6992,1.6978,1.6951,1.687,1.6931,1.6951,1.687,1.6998,1.7066,1.6992,1.7046,1.7066,1.6985,1.6978,1.6978,1.6978,1.6978,1.6978,1.6978,1.6978,1.7488,1.8655,1.7126,1.6821,1.7866,1.6269,1.5452,1.5303,1.5221,1.5147,1.5079,1.5004,1.497,1.4957,1.4733,1.4672,1.4719,1.4502,1.4414,1.4414,1.4414,1.4455,1.4543,1.4787,1.4916,1.5004,1.5167,1.512,1.4997,1.4997,1.4991,1.4977,1.4977,1.5072,1.5187,1.5201,1.6082,1.7302,1.871,1.8208,1.6645,1.4255,1.2698,1.0713,0.6668,0.5711,0.5643,0.5592,0.6305,0.7678,0.9908,0.9706,0.9627,1.0804,1.1138,1.1482,1.2021,1.598,1.9739,2.243,2.466,2.7099,2.9946,2.99,2.9927,3.0341,3.0662,3.0889,3.1022,3.1183,3.133,3.1463,3.149,3.1637,3.1904,3.2225,3.2438,3.2585,3.2719,3.2706,3.2572,3.2412,3.2171,3.1931,3.2211,3.2251,3.2144,3.2599,3.2786,3.2812,3.3106,3.3213,3.3227,1.7216,1.7195,1.7161,1.7046,1.7005,1.6931,1.6775,1.6849,1.687,1.6714,1.6924,1.7046,1.6937,1.706,1.71,1.6992,1.6978,1.6978,1.6978,1.7601,1.7706,1.6978,1.7601,1.8988,2.1252,1.8831,1.8189,1.9813,1.6986,1.5594,1.5411,1.5289,1.5215,1.5174,1.5065,1.5018,1.5011,1.4821,1.474,1.4726,1.457,1.4489,1.4468,1.4502,1.4536,1.4611,1.4997,1.5174,1.5276,1.5547,1.554,1.5411,1.5411,1.533,1.5235,1.5235,1.5262,1.5296,1.5343,1.5323,1.5371,1.5716,1.5771,1.5126,1.2679,1.2191,1.0608,0.5185,0.4059,0.3836,0.3097,0.3302,0.4704,0.8205,0.7403,0.7011,0.8844,0.9695,1.0411,1.1068,1.5355,1.9551,2.2959,2.4927,2.7292,3.0464,3.0595,3.0595,3.0662,3.1089,3.133,3.133,3.161,3.177,3.177,3.2064,3.2211,3.2211,3.2732,3.2973,3.2986,3.3053,3.304,3.2973,3.2746,3.2478,3.2225,3.2532,3.2519,3.2358,3.2879,3.308,3.3106,3.3334,3.3414,3.3414,1.7195,1.7195,1.7188,1.7175,1.7066,1.6931,1.6775,1.6761,1.6714,1.6558,1.668,1.6775,1.6768,1.6904,1.6992,1.6985,1.6978,1.6978,1.6978,1.9357,1.9662,1.7083,1.9462,2.1842,2.4147,2.1637,2.0166,1.9813,1.7194,1.5689,1.5411,1.5398,1.5316,1.5181,1.5174,1.5167,1.5147,1.4862,1.474,1.4726,1.457,1.4434,1.4333,1.4462,1.4597,1.4746,1.4923,1.516,1.5418,1.5581,1.554,1.5411,1.5411,1.5404,1.5391,1.5391,1.5493,1.5547,1.5276,1.5398,1.5615,1.5649,1.5852,1.5418,1.2823,1.2369,1.0853,0.5321,0.4156,0.3391,0.0809,0.2095,0.3594,0.3487,0.5246,0.6583,0.6334,0.8726,1.058,1.0922,1.3696,1.7772,2.3179,2.3697,2.5883,3.1165,3.1316,3.1289,3.1557,3.161,3.1637,3.1637,3.1917,3.2064,3.2064,3.2372,3.2519,3.2616,3.2826,3.2973,3.2986,3.3253,3.3227,3.2973,3.2959,3.2786,3.2532,3.2826,3.2933,3.2946,3.3253,3.3374,3.3387,3.34,3.3414,3.3414,1.706,1.706,1.706,1.706,1.7019,1.6958,1.6904,1.6897,1.687,1.6815,1.6937,1.6992,1.6904,1.7026,1.7805,1.9365,1.9558,2.0279,2.1924,2.3053,2.3156,2.2131,2.3062,2.4697,2.6838,2.4337,2.3592,2.4725,2.2075,1.9825,1.8167,1.9449,1.8371,1.5411,1.6692,1.6517,1.5038,1.4828,1.4794,1.4862,1.4611,1.459,1.4713,1.4672,1.4746,1.4916,1.516,1.5377,1.5767,1.7634,1.8125,1.8167,1.8167,1.8,1.7627,1.6021,1.5655,1.573,1.552,1.5554,1.5703,1.5988,1.6069,1.547,1.3043,1.2492,1.1465,0.7742,0.5539,0.3847,0.2775,0.1925,0.1786,0.2969,0.424,0.5482,0.6766,0.9627,1.1626,1.1828,1.5676,1.9094,2.129,2.4094,2.682,2.9122,3.0428,3.1356,3.165,3.1664,3.1664,3.1664,3.1944,3.2104,3.2104,3.2398,3.2639,3.2812,3.3106,3.324,3.3253,3.336,3.3347,3.324,3.324,3.308,3.2839,3.3133,3.3146,3.3013,3.3293,3.3414,3.3414,3.3414,3.3414,3.3387,1.7046,1.7046,1.7046,1.7046,1.7012,1.6978,1.6978,1.6937,1.691,1.691,1.6992,1.7328,1.8157,1.8386,1.9474,2.2149,2.2442,2.3156,2.5112,2.6035,2.6444,2.6444,2.6444,2.7537,2.964,2.7135,2.6507,2.778,2.5078,2.2837,2.1045,2.2407,2.0803,1.6707,1.8087,1.735,1.5092,1.4896,1.4875,1.495,1.474,1.4753,1.4896,1.4882,1.4943,1.5072,1.5323,1.5979,1.7084,1.9173,2.0333,2.0968,2.0153,1.9257,1.8223,1.6342,1.592,1.5967,1.5818,1.5811,1.5913,1.6171,1.6232,1.5809,1.4417,1.4034,1.3232,1.0559,0.8447,0.6631,0.5724,0.4012,0.3142,0.4656,0.5173,0.5896,0.7605,1.0257,1.2137,1.2374,1.6199,1.9149,2.0057,2.389,2.6738,2.7778,3.0159,3.1583,3.1797,3.181,3.181,3.181,3.1998,3.2104,3.2104,3.2492,3.2786,3.2986,3.328,3.3414,3.3414,3.3414,3.3414,3.3414,3.3414,3.3293,3.3133,3.3334,3.3293,3.3133,3.3334,3.3414,3.3414,3.3414,3.336,3.324,1.7188,1.7188,1.7188,1.7188,1.7073,1.6978,1.6978,1.6849,1.6748,1.6754,1.6748,1.7768,2.0619,2.0993,2.2235,2.5009,2.5215,2.5215,2.5215,2.7782,2.9319,2.9319,2.9319,3.0401,3.2559,3.0046,2.8395,2.7876,2.5238,2.3855,2.3728,2.3409,2.1867,1.9321,1.904,1.7585,1.5391,1.5099,1.497,1.4977,1.497,1.4882,1.478,1.5072,1.5181,1.5208,1.5357,1.7207,1.955,1.9745,2.1675,2.3531,2.0992,1.8497,1.6497,1.6354,1.6313,1.6279,1.6123,1.6198,1.6273,1.6123,1.6307,1.6605,1.6917,1.7209,1.6612,1.3669,1.2996,1.2074,0.9135,0.848,0.8407,0.828,0.8346,0.8317,0.8339,1.0505,1.2092,1.2196,1.449,1.7162,1.979,2.2599,2.5286,2.7852,3.0522,3.2104,3.2104,3.2104,3.2104,3.2104,3.2104,3.2104,3.2104,3.2679,3.2973,3.2986,3.328,3.3414,3.3414,3.3414,3.3414,3.3414,3.3414,3.3414,3.3414,3.3414,3.3414,3.3414,3.3414,3.3414,3.3414,3.3414,3.3227,3.2973,1.7046,1.7046,1.7046,1.7046,1.7012,1.6978,1.6978,1.6849,1.6788,1.6897,1.8558,1.9957,2.0906,2.2578,2.4829,2.7862,2.7919,2.8704,3.0824,3.1768,3.2183,3.2183,3.199,3.2116,3.2559,3.1639,3.087,3.0496,2.9721,2.8404,2.6585,2.8149,2.6359,2.2065,2.1853,2.0331,1.7741,1.5782,1.5092,1.5262,1.5052,1.5133,1.5371,1.535,1.5411,1.5698,1.7627,1.8896,2.0307,2.4005,2.6031,2.6515,2.3968,2.1492,1.9049,1.7104,1.6544,1.6449,1.6402,1.6422,1.6449,1.6402,1.6619,1.6924,1.7222,1.7358,1.719,1.6277,1.4457,1.2631,1.1638,0.9823,0.85,0.8324,0.9988,1.194,1.3822,1.4841,1.6088,1.8216,1.7182,1.7531,2.0359,2.2732,2.5214,2.7949,3.0619,3.2104,3.2104,3.2305,3.2412,3.2412,3.2412,3.2318,3.2104,3.2478,3.2772,3.2986,3.328,3.3414,3.3414,3.3414,3.3414,3.3414,3.3414,3.3414,3.3414,3.3414,3.3414,3.3414,3.3414,3.3414,3.3414,3.3414,3.3227,3.2946,1.6978,1.6978,1.6978,1.6978,1.6978,1.6978,1.6978,1.6904,1.7287,1.841,1.9983,2.1792,2.4074,2.5778,2.7919,3.0647,3.0788,3.1477,3.33,3.3414,3.3414,3.3414,3.3133,3.2839,3.2656,3.2372,3.2131,3.1837,3.173,3.0942,2.9487,3.0642,2.8924,2.485,2.3582,2.1553,1.898,1.6248,1.516,1.5303,1.5126,1.5255,1.5636,1.6641,1.7113,1.7634,2.0202,2.1905,2.3355,2.6527,2.7888,2.7865,2.5402,2.2933,2.0377,1.7718,1.6822,1.67,1.67,1.6659,1.6625,1.6686,1.6842,1.7039,1.7277,1.7378,1.7722,1.8716,1.7528,1.6551,1.7433,1.6237,1.5106,1.4886,1.623,1.7866,1.9468,1.9634,2.0366,2.2181,2.0714,2.02,2.2102,2.4295,2.6707,2.9529,3.1211,3.2158,3.2278,3.2559,3.2719,3.2719,3.1711,3.147,3.2278,3.1354,3.162,3.2812,3.2986,3.3187,3.3414,3.3293,3.3307,3.3414,3.3414,3.3414,3.3414,3.3414,3.3347,3.3253,3.3374,3.3347,3.3253,3.3374,3.316,3.2786,1.6978,1.6978,1.6978,1.6965,1.6971,1.6978,1.6965,1.7168,1.8201,2.0766,2.1475,2.3717,2.8629,2.9765,3.0957,3.3187,3.34,3.3414,3.3414,3.3414,3.3414,3.3414,3.316,3.2879,3.2683,3.2532,3.2358,3.2064,3.1797,3.1797,3.2051,3.1517,3.0097,2.7747,2.452,2.18,1.9569,1.6517,1.5187,1.5201,1.5497,1.5688,1.6128,1.8838,1.9966,2.05,2.3067,2.5553,2.7582,2.789,2.8211,2.8019,2.5675,2.3276,2.0726,1.806,1.7121,1.6998,1.6998,1.689,1.6802,1.7238,1.7384,1.7328,1.7267,1.7518,1.8431,2.0783,2.147,2.2353,2.4741,2.5215,2.5134,2.4982,2.4709,2.4678,2.4816,2.4475,2.4335,2.4816,2.4444,2.4305,2.4847,2.7165,2.9602,3.1952,3.2171,3.2291,3.267,3.2866,3.3013,3.3013,3.0366,3.0032,3.2279,2.9763,2.9861,3.2683,3.2683,3.2866,3.336,3.3093,3.312,3.3374,3.3374,3.3387,3.3414,3.3414,3.3253,3.304,3.328,3.3213,3.3013,3.328,3.3026,3.2643,1.6978,1.6978,1.6944,1.6822,1.6904,1.6937,1.6822,1.8639,2.0163,2.0669,2.4386,2.7403,2.8498,3.0664,3.2287,3.3053,3.328,3.3414,3.3414,3.3414,3.3414,3.3414,3.3347,3.3187,3.2893,3.2438,3.2051,3.1757,3.1704,3.1704,3.1757,3.1637,3.1154,3.0246,2.5445,2.2893,2.1911,1.721,1.5248,1.5561,1.7748,1.8663,1.9132,2.191,2.2984,2.3295,2.5725,2.6907,2.7712,3.0045,2.9841,2.8229,2.5776,2.3184,2.0627,1.8187,1.7358,1.7148,1.7148,1.7039,1.7426,1.9481,2.0174,1.971,1.7685,1.8999,2.0759,2.1196,2.3034,2.4627,2.5152,2.5215,2.5083,2.4679,2.4871,2.5589,2.7131,2.5833,2.5381,2.7345,2.5532,2.5059,2.7681,3.0392,3.2091,3.2465,3.2666,3.2812,3.2879,3.316,3.332,3.332,3.0661,2.9409,2.9746,2.9136,3.0143,3.2879,3.2879,3.2946,3.3066,3.3013,3.3013,3.3066,3.3066,3.32,3.3414,3.3414,3.3374,3.3293,3.3133,3.3026,3.2986,3.3053,3.2853,3.2519,1.6978,1.6978,1.6958,1.6876,1.6931,1.7363,1.8618,2.0038,2.1877,2.4411,2.7158,2.9228,3.0429,3.2064,3.308,3.3387,3.3414,3.2799,3.1567,3.2699,3.2799,3.1466,3.2699,3.328,3.2986,3.2679,3.2372,3.2091,3.181,3.1744,3.1877,3.173,3.1583,3.1235,2.7204,2.5301,2.4877,2.0712,1.9022,1.9285,2.0611,2.1355,2.1932,2.464,2.572,2.6097,2.8486,2.9412,2.945,2.9917,2.9396,2.792,2.4246,2.2184,2.0684,1.8194,1.7372,1.7521,1.8855,1.9122,1.9662,2.232,2.3043,2.2676,2.1326,2.2152,2.3653,2.4879,2.6305,2.7609,2.8924,2.9104,2.9011,2.8743,2.8824,2.9291,3.0378,2.9234,2.884,3.023,2.8908,2.8602,3.0503,3.1959,3.2706,3.2656,3.2812,3.2973,3.2973,3.2029,3.1466,3.1466,2.7465,2.5972,2.7166,2.7045,2.8364,3.1252,3.23,3.2919,3.3187,3.304,3.2973,3.2973,3.2973,3.2986,3.3013,3.3146,3.304,3.2799,3.2933,3.2812,3.2572,3.2719,3.2585,3.2291,1.6978,1.6978,1.6965,1.691,1.6924,1.7858,2.0604,2.1449,2.3502,2.847,2.9391,3.033,3.2563,3.3066,3.3414,3.3774,3.3561,3.2384,3.0141,3.2083,3.2384,3.0141,3.2183,3.3293,3.3053,3.3,3.2839,3.2643,3.2011,3.1864,3.2091,3.181,3.1664,3.1555,2.8851,2.757,2.7345,2.4343,2.3125,2.3341,2.3697,2.3947,2.4546,2.7214,2.8355,2.8739,3.0838,3.1365,3.0695,2.8232,2.7328,2.6372,2.2361,2.0836,2.0157,1.8044,1.7372,1.7918,2.0734,2.1277,2.1899,2.523,2.5965,2.6035,2.6444,2.624,2.6546,2.8811,2.9623,3.0748,3.3,3.3414,3.3387,3.3347,3.3173,3.3,3.2853,3.2452,3.2251,3.2452,3.2345,3.2345,3.2599,3.2666,3.2692,3.2692,3.2919,3.3053,3.3053,3.1139,2.9837,2.9319,2.4906,2.3362,2.5215,2.543,2.6851,2.9319,3.1608,3.2919,3.3334,3.3093,3.2973,3.2973,3.2919,3.2799,3.2639,3.2826,3.2612,3.2225,3.2652,3.2532,3.2131,3.2385,3.2318,3.2064,1.6978,1.6978,1.6897,1.6632,1.6693,1.7651,2.0231,2.2877,2.5457,2.8165,3.0612,3.201,3.1904,3.2332,3.2879,3.3427,3.344,3.3213,3.2899,3.32,3.3213,3.2899,3.32,3.3387,3.336,3.3106,3.2839,3.2643,3.2211,3.2064,3.2091,3.181,3.1664,3.1555,2.8851,2.7582,2.7369,2.4513,2.3269,2.324,2.5888,2.6805,2.7005,2.9968,3.1149,3.1149,3.1276,3.0051,2.8062,2.5248,2.3244,2.1865,2.1221,1.9582,1.7776,1.7643,1.7602,1.8062,2.0653,2.1268,2.244,2.7553,2.8733,2.942,3.1768,3.0445,2.8811,2.9217,3.1164,3.3,3.3314,3.3414,3.3334,3.308,3.3213,3.3093,3.2332,3.2372,3.2412,3.2185,3.2572,3.2879,3.2919,3.3146,3.3293,3.3293,3.3334,3.336,3.336,3.2986,3.1768,2.942,2.8596,2.7272,2.5215,2.7534,2.8878,2.9319,3.2006,3.32,3.304,3.3,3.2973,3.2959,3.2706,3.2732,3.2906,3.2692,3.2656,3.2465,3.2291,3.2171,3.2104,3.2144,3.2131,3.2091,1.6836,1.6781,1.668,1.6544,1.6578,1.8012,2.215,2.4024,2.6412,3.0267,3.1835,3.2549,3.2185,3.2532,3.2959,3.3374,3.3414,3.2799,3.1164,3.2585,3.2699,3.1164,3.2585,3.3414,3.3414,3.328,3.316,3.3026,3.2572,3.2345,3.2345,3.2225,3.2064,3.1904,3.0695,3.0064,2.9804,2.8372,2.7805,2.7935,2.9174,2.9614,2.9866,3.1178,3.1664,3.1474,2.9937,2.8837,2.7471,2.333,2.1564,2.0745,1.9348,1.8202,1.7344,1.748,1.7521,1.8021,2.0734,2.1344,2.2283,2.614,2.7052,2.7363,2.8495,2.9104,2.9724,3.1265,3.2598,3.3414,3.3414,3.3414,3.332,3.3026,3.3374,3.336,3.2478,3.2746,3.2919,3.2625,3.2679,3.2866,3.3187,3.3334,3.3414,3.3414,3.3414,3.3414,3.3414,3.1982,3.0546,2.9319,2.7782,2.6444,2.5215,2.7884,2.9248,2.9096,3.1993,3.3347,3.3213,3.3213,3.304,3.2732,3.2696,3.2438,3.2251,3.2278,3.2198,3.2064,3.2091,3.2011,3.1864,3.1864,3.1864,3.1864]},{"header":{"parameterUnit":"m.s-1","parameterCategory":1,"la1":30.6,"la2":28.766,"lo1":-90.7593,"lo2":-88.6598,"dy":0.0162,"dx":0.0183,"nx":116,"ny":114,"refTime":"2023-09-29T00:00:00:Z","depth":0,"parameterNumber":3,"parameterNumberName":"V-component_of_WINDS"},"data":[0.0,0.0,0.0,0.0,0.0,0.0,0.0,0.0,0.0,0.0,0.0,0.0,0.0,0.0,0.0,0.0,0.0,0.0,0.0,0.0,0.0,0.0,0.0,0.0,0.0,0.0,0.0,0.0,0.0,0.0,0.0,0.0,0.0,0.0,0.0,0.0,0.0,0.0,0.0,0.0,0.0,0.0,0.0,0.0,0.0,0.0,0.0,0.0,0.0,0.0,0.0,0.0,0.0,0.0,0.0,0.0,0.0,0.0,0.0,0.0,0.0,0.0,0.0,0.0,0.0,0.0,0.0,0.0,0.0,0.0,0.0,0.0,0.0,0.0,0.0,0.0,0.0,0.0,0.0,0.0,0.0,0.0,0.0,0.0,0.0,0.0,0.0,0.0,0.0,0.0,0.0,0.0,0.0,0.0,0.0,0.0,0.0,0.0,0.0,0.0,0.0,0.0,0.0,0.0,0.0,0.0,0.0,0.0,0.0,0.0,0.0,0.0,0.0,0.0,0.0,0.0,0.0,0.0,0.0,0.0,0.0,0.0,0.0,0.0,0.0,0.0,0.0,0.0,0.0,0.0,0.0,0.0,0.0,0.0,0.0,0.0,0.0,0.0,0.0,0.0,0.0,0.0,0.0,0.0,0.0,0.0,0.0,0.0,0.0,0.0,0.0,0.0,0.0,0.0,0.0,0.0,0.0,0.0,0.0,0.0,0.0,0.0,0.0,0.0,0.0,0.0,0.0,0.0,0.0,0.0,0.0,0.0,0.0,0.0,0.0,0.0,0.0,0.0,0.0,0.0,0.0,0.0,0.0,0.0,0.0,0.0,0.0,0.0,0.0,0.0,0.0,0.0,0.0,0.0,0.0,0.0,0.0,0.0,0.0,0.0,0.0,0.0,0.0,0.0,0.0,0.0,0.0,0.0,0.0,0.0,0.0,0.0,0.0,0.0,0.0,0.0,0.0,0.0,0.0,0.0,0.0,0.0,0.0,0.0,0.0,0.0,0.0,0.0,0.0,0.0,0.0,0.0,0.0,0.0,0.0,0.0,0.0,0.0,0.0,0.0,0.0,0.0,0.0,0.0,0.0,0.0,0.0,0.0,0.0,0.0,0.0,0.0,0.0,0.0,0.0,0.0,0.0,0.0,0.0,0.0,0.0,0.0,0.0,0.0,0.0,0.0,0.0,0.0,0.0,0.0,0.0,0.0,0.0,0.0,0.0,0.0,0.0,0.0,0.0,0.0,0.0,0.0,0.0,0.0,0.0,0.0,0.0,0.0,0.0,0.0,0.0,0.0,0.0,0.0,0.0,0.0,0.0,0.0,0.0,0.0,0.0,0.0,0.0,0.0,0.0,0.0,0.0,0.0,0.0,0.0,0.0,0.0,0.0,0.0,0.0,0.0,0.0,0.0,0.0,0.0,0.0,0.0,0.0,0.0,0.0,0.0,0.0,0.0,0.0,0.0,0.0,0.0,0.0,0.0,0.0,0.0,0.0,0.0,0.0,0.0,0.0,0.0,0.0,0.0,0.0,0.0,0.0,0.0,0.0,0.0,0.0,0.0,0.0,0.0,0.0,0.0,0.0,0.0,0.0,0.0,0.0,0.0,0.0,0.0,0.0,0.0,0.0,0.0,0.0,0.0,0.0,0.0,0.0,0.0,0.0,0.0,0.0,0.0,0.0,0.0,0.0,0.0,0.0,0.0,0.0,0.0,0.0,0.0,0.0,0.0,0.0,0.0,0.0,0.0,0.0,0.0,0.0,0.0,0.0,0.0,0.0,0.0,0.0,0.0,0.0,0.0,0.0,0.0,0.0,0.0,0.0,0.0,0.0,0.0,0.0,0.0,0.0,0.0,0.0,0.0,0.0,0.0,0.0,0.0,0.0,0.0,0.0,0.0,0.0,0.0,0.0,0.0,0.0,0.0,0.0,0.0,0.0,0.0,0.0,0.0,0.0,0.0,0.0,0.0,0.0,0.0,0.0,0.0,0.0,0.0,0.0,0.0,0.0,0.0,0.0,0.0,0.0,0.0,0.0,0.0,0.0,0.0,0.0,0.0,0.0,0.0,0.0,0.0,0.0,0.0,0.0,0.0,0.0,0.0,0.0,0.0,0.0,0.0,0.0,0.0,0.0,0.0,0.0,0.0,0.0,0.0,0.0,0.0,0.0,0.0,0.0,0.0,0.0,0.0,0.0,0.0,0.0,0.0,0.0,0.0,0.0,0.0,0.0,0.0,0.0,0.0,0.0,0.0,0.0,0.0,0.0,0.0,0.0,0.0,0.0,0.0,0.0,0.0,0.0,0.0,0.0,0.0,0.0,0.0,0.0,0.0,0.0,0.0,0.0,0.0,0.0,0.0,0.0,0.0,0.0,0.0,0.0,0.0,0.0,0.0,0.0,0.0,0.0,0.0,0.0,0.0,0.0,0.0,0.0,0.0,0.0,0.0,0.0,0.0,0.0,0.0,0.0,0.0,0.0,0.0,0.0,0.0,0.0,0.0,0.0,0.0,0.0,0.0,0.0,0.0,0.0,0.0,0.0,0.0,0.0,0.0,0.0,0.0,0.0,0.0,0.0,0.0,0.0,0.0,0.0,0.0,0.0,0.0,0.0,0.0,0.0,0.0,0.0,0.0,0.0,0.0,0.0,0.0,0.0,0.0,0.0,0.0,0.0,0.0,0.0,0.0,0.0,0.0,0.0,0.0,0.0,0.0,0.0,0.0,0.0,0.0,0.0,0.0,0.0,0.0,0.0,0.0,0.0,0.0,0.0,0.0,0.0,0.0,0.0,0.0,0.0,0.0,0.0,0.0,0.0,0.0,0.0,0.0,0.0,0.0,0.0,0.0,0.0,0.0,0.0,0.0,0.0,0.0,0.0,0.0,0.0,0.0,0.0,0.0,0.0,0.0,0.0,0.0,0.0,0.0,0.0,0.0,0.0,0.0,0.0,0.0,0.0,0.0,0.0,0.0,0.0,0.0,0.0,0.0,0.0,0.0,0.0,0.0,0.0,0.0,0.0,0.0,0.0,0.0,0.0,0.0,0.0,0.0,0.0,0.0,0.0,0.0,0.0,0.0,0.0,0.0,0.0,0.0,0.0,0.0,0.0,0.0,0.0,0.0,0.0,0.0,0.0,0.0,0.0,0.0,0.0,0.0,0.0,0.0,0.0,0.0,0.0,0.0,0.0,0.0,0.0,0.0,0.0,0.0,0.0,0.0,0.0,0.0,0.0,0.0,0.0,0.0,0.0,0.0,0.0,0.0,0.0,0.0,0.0,0.0,0.0,0.0,0.0,0.0,0.0,0.0,0.0,0.0,0.0,0.0,0.0,0.0,0.0,0.0,0.0,0.0,0.0,0.0,0.0,0.0,0.0,0.0,0.0,0.0,0.0,0.0,0.0,0.0,0.0,0.0,0.0,0.0,0.0,0.0,0.0,0.0,0.0,0.0,0.0,0.0,0.0,0.0,0.0,0.0,0.0,0.0,0.0,0.0,0.0,0.0,0.0,0.0,0.0,0.0,0.0,0.0,0.0,0.0,0.0,0.0,0.0,0.0,0.0,0.0,0.0,0.0,0.0,0.0,0.0,0.0,0.0,0.0,0.0,0.0,0.0,0.0,0.0,0.0,0.0,0.0,0.0,0.0,0.0,0.0,0.0,0.0,0.0,0.0,0.0,0.0,0.0,0.0,0.0,0.0,0.0,0.0,0.0,0.0,0.0,0.0,0.0,0.0,0.0,0.0,0.0,0.0,0.0,0.0,0.0,0.0,0.0,0.0,0.0,0.0,0.0,0.0,0.0,0.0,0.0,0.0,0.0,0.0,0.0,0.0,0.0,0.0,0.0,0.0,0.0,0.0,0.0,0.0,0.0,0.0,0.0,0.0,0.0,0.0,0.0,0.0,0.0,0.0,0.0,0.0,0.0,0.0,0.0,0.0,0.0,0.0,0.0,0.0,0.0,0.0,0.0,0.0,0.0,0.0,0.0,0.0,0.0,0.0,0.0,0.0,0.0,0.0,0.0,0.0,0.0,0.0,0.0,0.0,0.0,0.0,0.0,0.0,0.0,0.0,0.0,0.0,0.0,0.0,0.0,0.0,0.0,0.0,0.0,0.0,0.0,0.0,0.0,0.0,0.0,0.0,0.0,0.0,0.0,0.0,0.0,0.0,0.0,0.0,0.0,0.0,0.0,0.0,0.0,0.0,0.0,0.0,0.0,0.0,0.0,0.0,0.0,0.0,0.0,0.0,0.0,0.0,0.0,0.0,0.0,0.0,0.0,0.0,0.0,0.0,0.0,0.0,0.0,0.0,0.0,0.0,0.0,0.0,0.0,0.0,0.0,0.0,0.0,0.0,0.0,0.0,0.0,0.0,0.0,0.0,0.0,0.0,0.0,0.0,0.0,0.0,0.0,0.0,0.0,0.0,0.0,0.0,0.0,0.0,0.0,0.0,0.0,0.0,0.0,0.0,0.0,0.0,0.0,0.0,0.0,0.0,0.0,0.0,0.0,0.0,0.0,0.0,0.0,0.0,0.0,0.0,0.0,0.0,0.0,0.0,0.0,0.0,0.0,0.0,0.0,0.0,0.0,0.0,0.0,0.0,0.0,0.0,0.0,0.0,0.0,0.0,0.0,0.0,0.0,0.0,0.0,0.0,0.0,0.0,0.0,0.0,0.0,0.0,0.0,0.0,0.0,0.0,0.0,0.0,0.0,0.0,0.0,0.0,0.0,0.0,0.0,0.0,0.0,0.0,0.0,0.0,0.0,0.0,0.0,0.0,0.0,0.0,0.0,0.0,0.0,0.0,0.0,0.0,0.0,0.0,0.0,0.0,0.0,0.0,0.0,0.0,0.0,0.0,0.0,0.0,0.0,0.0,0.0,0.0,0.0,0.0,0.0,0.0,0.0,0.0,0.0,0.0,0.0,0.0,0.0,0.0,0.0,0.0,0.0,0.0,0.0,0.0,0.0,0.0,0.0,0.0,0.0,0.0,0.0,0.0,0.0,0.0,0.0,0.0,0.0,0.0,0.0,0.0,0.0,0.0,0.0,0.0,0.0,0.0,0.0,0.0,0.0,0.0,0.0,0.0,0.0,0.0,0.0,0.0,0.0,0.0,0.0,0.0,0.0,0.0,0.0,0.0,0.0,0.0,0.0,0.0,0.0,0.0,0.0,0.0,0.0,0.0,0.0,0.0,0.0,0.0,0.0,0.0,0.0,0.0,0.0,0.0,0.0,0.0,0.0,0.0,0.0,0.0,0.0,0.0,0.0,0.0,0.0,0.0,0.0,0.0,0.0,0.0,0.0,0.0,0.0,0.0,0.0,0.0,0.0,0.0,0.0,0.0,0.0,0.0,0.0,0.0,0.0,0.0,0.0,0.0,0.0,0.0,0.0,0.0,0.0,0.0,0.0,0.0,0.0,0.0,0.0,0.0,0.0,0.0,0.0,0.0,0.0,0.0,0.0,0.0,0.0,0.0,0.0,0.0,0.0,0.0,0.0,0.0,0.0,0.0,0.0,0.0,0.0,0.0,0.0,0.0,0.0,0.0,0.0,0.0,0.0,0.0,0.0,0.0,0.0,0.0,0.0,0.0,0.0,0.0,0.0,0.0,0.0,0.0,0.0,0.0,0.0,0.0,0.0,0.0,0.0,0.0,0.0,0.0,0.0,0.0,0.0,0.0,0.0,0.0,0.0,0.0,0.0,0.0,0.0,0.0,0.0,0.0,0.0,0.0,0.0,0.0,0.0,0.0,0.0,0.0,0.0,0.0,0.0,0.0,0.0,0.0,0.0,0.0,0.0,0.0,0.0,0.0,0.0,0.0,0.0,0.0,0.0,0.0,0.0,0.0,0.0,0.0,0.0,0.0,0.0,0.0,0.0,0.0,0.0,0.0,0.0,0.0,0.0,0.0,0.0,0.0,0.0,0.0,0.0,0.0,0.0,0.0,0.0,0.0,0.0,0.0,0.0,0.0,0.0,0.0,0.0,0.0,0.0,0.0,0.0,0.0,0.0,0.0,0.0,0.0,0.0,0.0,0.0,0.0,0.0,0.0,0.0,0.0,0.0,0.0,0.0,0.0,0.0,0.0,0.0,0.0,0.0,0.0,0.0,0.0,3.761,3.4201,0.0,0.0,0.0,0.0,0.0,0.0,0.0,0.0,0.0,0.0,0.0,0.0,0.0,0.0,0.0,0.0,0.0,0.0,0.0,0.0,0.0,0.0,0.0,0.0,0.0,0.0,0.0,0.0,0.0,0.0,0.0,0.0,0.0,0.0,0.0,0.0,0.0,3.1195,3.2493,3.3916,3.5345,3.3456,3.131,2.8994,0.0,0.0,0.0,0.0,0.0,0.0,0.0,0.0,0.0,0.0,0.0,0.0,0.0,0.0,0.0,0.0,0.0,0.0,0.0,0.0,0.0,0.0,0.0,0.0,0.0,0.0,0.0,0.0,0.0,0.0,0.0,0.0,0.0,0.0,0.0,0.0,0.0,0.0,0.0,0.0,0.0,0.0,0.0,0.0,0.0,0.0,0.0,0.0,0.0,0.0,0.0,0.0,0.0,0.0,0.0,0.0,0.0,0.0,0.0,0.0,0.0,0.0,0.0,0.0,0.0,0.0,0.0,0.0,0.0,0.0,4.4319,4.0549,0.0,0.0,0.0,0.0,0.0,0.0,0.0,0.0,0.0,0.0,0.0,0.0,0.0,0.0,0.0,0.0,0.0,0.0,0.0,0.0,0.0,0.0,0.0,3.2697,3.3565,3.4373,3.5057,3.538,3.5289,0.0,0.0,0.0,0.0,0.0,3.1881,3.2667,3.3456,3.421,3.6543,3.8786,4.0831,4.0354,3.8052,3.4407,3.4448,0.0,0.0,0.0,0.0,0.0,0.0,0.0,0.0,0.0,0.0,0.0,0.0,0.0,0.0,0.0,0.0,0.0,0.0,0.0,0.0,0.0,0.0,0.0,0.0,0.0,0.0,0.0,0.0,0.0,0.0,0.0,0.0,0.0,0.0,0.0,0.0,0.0,0.0,0.0,0.0,0.0,0.0,0.0,0.0,0.0,0.0,0.0,0.0,0.0,0.0,0.0,0.0,0.0,0.0,0.0,0.0,0.0,0.0,0.0,0.0,0.0,0.0,0.0,5.3468,5.3882,5.4118,5.5812,5.573,5.4122,5.1706,4.8508,4.481,4.2753,0.0,0.0,0.0,0.0,0.0,0.0,0.0,0.0,0.0,0.0,0.0,0.0,0.0,0.0,0.0,0.0,0.0,0.0,0.0,3.2602,3.3316,3.5104,3.6533,3.7281,3.8014,3.8168,3.7491,0.0,0.0,0.0,0.0,3.3339,3.3339,3.4663,3.5883,3.6968,4.0601,4.2862,4.3767,4.4805,4.4709,4.3349,3.8259,3.6985,3.8365,0.0,0.0,0.0,0.0,0.0,0.0,0.0,0.0,0.0,0.0,0.0,0.0,0.0,0.0,0.0,0.0,0.0,0.0,0.0,0.0,0.0,0.0,0.0,0.0,0.0,0.0,0.0,0.0,0.0,0.0,0.0,0.0,0.0,0.0,0.0,0.0,0.0,0.0,0.0,0.0,0.0,3.8144,3.8791,0.0,0.0,0.0,0.0,0.0,0.0,0.0,0.0,0.0,0.0,0.0,0.0,0.0,5.3181,5.4786,5.6997,5.7925,5.7632,6.0896,6.143,5.9603,6.1887,6.2,6.0458,6.073,0.0,5.0218,4.6044,0.0,0.0,0.0,0.0,0.0,0.0,0.0,0.0,0.0,0.0,0.0,0.0,0.0,0.0,0.0,0.0,0.0,0.0,0.0,0.0,0.0,3.7894,4.0227,4.0965,4.3637,4.4054,4.1182,4.0076,0.0,0.0,3.4182,3.3784,3.42,3.6016,3.8868,4.269,4.5364,4.7578,4.9314,4.9912,4.9812,4.8963,4.492,4.2395,4.1003,3.8808,0.0,0.0,0.0,0.0,0.0,0.0,0.0,0.0,0.0,0.0,0.0,0.0,0.0,0.0,0.0,0.0,0.0,0.0,0.0,0.0,0.0,0.0,0.0,0.0,0.0,0.0,0.0,0.0,0.0,0.0,0.0,0.0,0.0,0.0,0.0,0.0,0.0,0.0,0.0,3.8339,4.1687,4.1446,4.1902,4.109,0.0,0.0,0.0,0.0,0.0,0.0,0.0,0.0,0.0,5.3918,5.7765,6.0322,6.1412,6.3237,6.3992,6.3693,6.5341,6.4871,6.2593,6.4548,6.431,6.2346,6.3633,6.2066,5.8235,5.3169,4.8901,4.5328,0.0,0.0,0.0,0.0,4.1738,4.2543,0.0,0.0,0.0,0.0,0.0,0.0,0.0,0.0,0.0,0.0,0.0,0.0,3.7861,4.1484,4.4315,4.5663,4.8759,4.892,4.4801,4.3556,4.1039,3.6713,3.5374,3.4966,3.5519,3.8699,4.2974,4.8285,5.0259,5.2276,5.4365,5.4548,5.434,5.3754,5.1965,4.8787,4.4639,4.2514,4.0261,3.7992,0.0,0.0,0.0,0.0,0.0,0.0,0.0,0.0,0.0,0.0,0.0,0.0,0.0,0.0,0.0,0.0,0.0,0.0,0.0,0.0,0.0,0.0,0.0,0.0,0.0,0.0,0.0,0.0,0.0,0.0,0.0,0.0,0.0,0.0,0.0,0.0,0.0,4.246,4.5507,4.3922,4.5737,4.5737,0.0,0.0,0.0,0.0,0.0,0.0,5.0466,5.4734,5.8217,6.0719,6.4433,6.6749,6.752,6.8668,6.9009,6.8605,6.8385,6.7002,6.4657,6.5898,6.515,6.2888,6.4327,6.453,6.3404,5.8578,5.4134,5.0199,4.8649,4.7686,4.7163,4.7163,4.7663,4.8473,0.0,0.0,0.0,0.0,0.0,0.0,0.0,0.0,0.0,0.0,0.0,4.0138,4.3787,4.6224,4.8757,5.1592,5.2064,5.0914,4.7872,4.5674,4.2801,3.9014,3.8087,3.7691,3.7759,4.383,4.8851,5.2589,5.5164,5.6849,5.7604,5.8186,5.8491,5.8446,5.8319,5.564,5.0807,4.434,4.267,4.3926,3.8941,0.0,0.0,0.0,0.0,0.0,0.0,0.0,0.0,0.0,0.0,0.0,0.0,0.0,0.0,0.0,0.0,0.0,0.0,0.0,0.0,0.0,0.0,0.0,0.0,0.0,0.0,0.0,0.0,0.0,0.0,0.0,0.0,0.0,0.0,0.0,0.0,0.0,0.0,4.8041,5.1454,0.0,0.0,0.0,0.0,5.1522,5.3178,5.5007,5.7277,6.0651,6.3914,6.6972,7.0338,7.2467,7.3274,7.3377,7.2642,7.1109,7.033,6.8682,6.6277,6.6409,6.515,6.2851,6.3769,6.3686,6.2608,5.9536,5.7674,5.6367,5.272,5.1219,5.1219,5.1219,5.1693,5.2106,0.0,0.0,0.0,0.0,0.0,0.0,0.0,0.0,3.6142,3.7944,4.0182,4.2885,4.6234,5.0382,5.3551,5.5074,5.6968,5.6427,5.2469,4.9221,4.5771,4.2016,3.9749,4.0189,4.3538,4.7535,5.1352,5.4936,5.6612,5.7813,5.8428,5.8684,5.8812,5.878,5.8377,5.7439,5.5994,5.196,4.8822,4.632,4.3184,3.9868,0.0,0.0,0.0,0.0,0.0,0.0,0.0,0.0,0.0,0.0,0.0,0.0,0.0,0.0,0.0,0.0,0.0,0.0,0.0,0.0,0.0,0.0,0.0,0.0,0.0,0.0,0.0,0.0,0.0,0.0,0.0,0.0,0.0,0.0,0.0,0.0,0.0,5.4398,5.7442,0.0,5.4972,5.4262,5.5009,5.7393,5.9516,6.1719,6.4141,6.7822,7.0114,7.0701,7.2891,7.4184,7.4478,7.3964,7.3156,7.2055,7.1284,6.9303,6.6385,6.6446,6.5442,6.3574,6.3951,6.3906,6.3503,6.1897,6.0761,5.992,5.8518,5.768,5.7243,5.7243,5.7401,5.7449,0.0,0.0,0.0,0.0,0.0,0.0,0.0,3.5581,3.6833,3.9321,4.2334,4.5474,4.8884,5.3785,5.734,5.8592,6.0047,5.9075,5.4804,5.104,4.7398,4.3821,4.2304,4.381,4.8545,5.1362,5.4309,5.7465,5.8741,5.9585,6.0,6.0,6.0,6.0,5.9553,5.9455,5.9553,5.7846,5.4109,4.9069,4.6597,4.3685,4.056,0.0,0.0,0.0,0.0,0.0,0.0,0.0,0.0,0.0,0.0,0.0,0.0,0.0,0.0,0.0,0.0,0.0,0.0,0.0,0.0,0.0,0.0,0.0,0.0,0.0,0.0,0.0,0.0,0.0,0.0,0.0,0.0,0.0,0.0,5.2335,5.6782,5.7141,6.0926,6.2537,6.0162,6.0369,6.1836,6.4638,6.6245,6.817,7.0665,7.288,7.4159,7.442,7.5281,7.5726,7.5726,7.4661,7.356,7.2496,7.1688,6.9892,6.7237,6.7287,6.6418,6.4875,6.4898,6.4604,6.4053,6.3759,6.3172,6.2401,6.2108,6.1851,6.1594,6.1337,6.141,6.1447,0.0,0.0,0.0,0.0,0.0,0.0,3.5351,3.5757,3.6872,3.9418,4.3706,4.7992,5.1924,5.6359,5.9979,6.2144,6.096,5.8479,5.4667,5.1014,4.7586,4.4408,4.5825,4.8466,5.2266,5.531,5.7915,6.0114,6.1637,6.2381,6.2381,6.2381,6.2381,6.2381,6.2386,6.2014,6.1371,6.1375,5.808,5.2617,4.9239,4.655,4.4299,0.0,0.0,0.0,0.0,0.0,0.0,0.0,0.0,0.0,0.0,0.0,0.0,0.0,0.0,0.0,0.0,0.0,0.0,0.0,0.0,0.0,0.0,0.0,0.0,0.0,0.0,0.0,0.0,0.0,0.0,0.0,0.0,0.0,5.0074,5.5314,5.8321,5.6325,6.1878,6.4897,6.2301,6.5984,6.9882,7.3147,7.3396,7.4317,7.6592,7.5512,7.5853,7.8059,7.7559,7.7273,7.7273,7.5696,7.4147,7.2606,7.1762,7.055,6.9009,6.8972,6.8091,6.6623,6.6586,6.5668,6.4273,6.5044,6.4861,6.4053,6.3209,6.3392,6.4016,6.3172,6.3356,6.3649,0.0,0.0,0.0,0.0,0.0,0.0,3.5133,3.6219,3.7995,4.0594,4.5363,4.9903,5.3444,5.7935,6.0926,6.1535,6.0182,5.8103,5.5329,5.1142,4.7913,4.5952,4.7448,5.0116,5.389,5.6359,5.8423,6.0114,6.1637,6.2381,6.2381,6.2381,6.2381,6.2386,6.2429,6.2695,6.3043,6.3101,6.1916,5.9597,5.5246,5.1833,4.9074,0.0,0.0,0.0,0.0,0.0,0.0,0.0,0.0,0.0,0.0,0.0,0.0,0.0,0.0,0.0,0.0,0.0,0.0,0.0,0.0,0.0,0.0,0.0,0.0,0.0,0.0,0.0,0.0,0.0,0.0,0.0,5.3375,5.5794,5.4353,5.8285,6.2112,6.4282,6.7796,6.9986,6.9788,7.203,7.3998,7.5117,7.6194,7.6908,7.7119,7.7381,7.7285,7.6705,7.6521,7.6717,7.7273,7.5696,7.4992,7.5102,7.312,7.1945,7.1468,7.0293,6.9522,6.9082,6.8495,6.765,6.6659,6.6329,6.5705,6.4971,6.4714,6.4787,6.4861,6.4053,6.3135,6.2108,0.0,0.0,0.0,0.0,0.0,0.0,3.5188,3.6219,3.8079,4.1015,4.6359,5.1052,5.4091,5.8282,6.07,6.0356,5.86,5.6487,5.4063,5.1476,5.0044,4.9958,5.1471,5.4071,5.7938,5.8518,5.9763,6.1602,6.214,6.2411,6.2453,6.2799,6.2953,6.2981,6.338,6.3624,6.3833,6.4166,6.3902,6.3017,6.0281,5.7317,5.4406,5.2151,4.9998,4.7981,4.6517,4.6003,4.5768,4.3964,0.0,0.0,0.0,0.0,0.0,0.0,0.0,0.0,0.0,0.0,0.0,0.0,0.0,0.0,0.0,0.0,0.0,0.0,0.0,0.0,0.0,0.0,0.0,0.0,5.7695,6.0396,6.1049,6.331,6.5955,6.8828,7.1037,7.2735,7.3973,7.5358,7.6661,7.7956,7.8862,7.9391,7.9365,7.9837,7.9653,7.8699,7.8332,7.8222,7.8369,7.6717,7.5983,7.6093,7.4331,7.3156,7.2459,7.1541,7.0734,7.0073,6.9596,6.8752,6.7687,6.754,6.6843,6.5778,0.0,0.0,0.0,0.0,6.3135,6.1043,0.0,0.0,0.0,0.0,0.0,0.0,3.5303,3.593,3.7577,4.0998,4.6615,5.1354,5.406,5.77,5.9651,5.8945,5.6629,5.4229,5.1861,5.2003,5.3026,5.4937,5.6347,5.8844,6.2581,6.1153,6.151,6.3724,6.3052,6.2744,6.2821,6.3516,6.3869,6.3975,6.4708,6.4702,6.4237,6.4906,6.4863,6.433,6.433,6.2453,5.9414,5.7335,5.5905,5.4874,5.3468,5.2187,5.1005,4.9771,0.0,0.0,0.0,0.0,0.0,0.0,0.0,0.0,0.0,0.0,0.0,0.0,0.0,0.0,0.0,0.0,0.0,0.0,0.0,0.0,0.0,0.0,0.0,0.0,6.0964,6.42,6.8766,6.9344,6.9774,7.0983,7.2508,7.4117,7.6003,7.7008,7.8615,8.1094,8.1342,8.1672,8.2296,8.226,0.0,0.0,0.0,8.0534,7.98,7.8148,7.6937,7.624,7.5322,7.4221,7.2899,7.2716,7.1872,7.0477,7.0293,6.9376,6.8044,6.8723,6.8141,6.6747,6.5834,6.5882,6.636,6.5551,6.3272,6.0588,0.0,0.0,0.0,0.0,0.0,0.0,3.485,3.5849,3.7872,4.1245,4.5776,4.9936,5.3183,5.637,5.8245,5.8099,5.5325,5.2812,5.1107,5.2291,5.4062,5.6283,5.8011,5.9815,6.1805,6.2091,6.2767,6.3849,6.4281,6.4492,6.4521,6.4662,6.4762,6.4784,6.4992,6.537,6.5934,6.6118,6.6509,6.6947,6.6947,6.4628,6.1061,5.9992,5.8384,5.6461,5.5565,5.5857,5.6367,5.419,5.4122,5.4435,5.1167,4.8306,0.0,0.0,0.0,0.0,0.0,0.0,0.0,0.0,0.0,0.0,0.0,0.0,0.0,0.0,0.0,0.0,0.0,0.0,0.0,6.3068,6.6994,7.0404,7.3289,7.3659,7.3446,7.2831,7.4297,7.5973,7.7626,7.9837,8.1692,8.2851,8.3544,8.3691,8.3214,8.2553,8.2186,8.2186,8.0791,7.9947,7.98,7.8148,7.72,7.7053,7.5586,0.0,7.5359,7.4037,7.3303,7.2936,7.1651,7.0513,6.9651,6.958,6.9225,6.8634,6.7333,6.655,6.5993,6.5176,6.3676,6.1849,0.0,0.0,0.0,0.0,0.0,0.0,3.4926,3.6029,3.7804,4.0308,4.4674,4.8449,5.0794,5.3132,5.4315,5.377,5.185,5.1223,5.254,5.4537,5.711,6.0326,6.124,6.2651,6.4621,6.3774,6.3879,6.514,6.5051,6.5015,6.5073,6.5502,6.572,6.5784,6.6199,6.6624,6.7053,6.7112,6.732,6.7687,6.7687,6.6217,6.4007,6.3646,6.2265,6.0485,6.0151,5.9943,5.9654,5.8055,5.7729,5.7486,5.4693,5.2417,5.0195,0.0,0.0,0.0,0.0,0.0,0.0,0.0,0.0,0.0,0.0,0.0,0.0,0.0,0.0,5.3298,5.5757,0.0,6.3723,6.8201,7.1284,7.3964,7.6423,7.6754,7.6371,7.5381,7.6043,7.7542,7.9982,8.1406,8.27,8.3911,8.4756,8.4866,8.4058,8.3985,8.3618,8.2847,8.2039,8.1012,7.98,7.8956,7.8148,7.7273,7.6466,7.5909,7.5469,7.4994,7.4154,7.3038,7.2425,7.1527,7.0454,6.978,6.9418,6.9179,6.7914,6.6999,6.6282,6.5495,6.3883,6.2026,0.0,0.0,0.0,0.0,0.0,0.0,3.5144,3.6198,3.757,3.9339,4.3139,4.6344,4.7984,4.9382,4.9799,4.8846,4.8992,5.0517,5.3792,5.6793,6.0015,6.3466,6.3857,6.5031,6.7173,6.5219,6.5003,6.6641,6.5904,6.5576,6.5627,6.6315,6.6668,6.6769,6.7393,6.7797,6.7907,6.776,6.7797,6.7907,6.776,6.7283,6.6733,6.6733,6.5632,6.4053,6.3906,6.2658,6.1043,6.0566,5.9869,5.8854,5.6895,5.5647,5.4106,5.0178,4.8673,0.0,0.0,0.0,0.0,0.0,0.0,0.0,0.0,5.1373,5.2842,5.611,5.7776,5.9575,6.2475,6.5558,6.8935,7.2789,7.4808,7.6607,7.8772,7.8919,7.8589,7.7892,7.7897,7.914,8.1929,8.2333,8.3104,8.4719,8.5416,8.56,8.5086,8.5527,8.5123,8.3691,8.3508,8.2333,8.0057,7.9994,7.9241,7.7738,7.7695,7.6979,7.5715,7.5883,7.5001,7.3295,7.2941,7.2093,7.0938,6.9875,6.9417,6.9266,6.8193,6.7402,6.6727,6.5671,6.3895,6.2004,0.0,0.0,0.0,0.0,0.0,0.0,0.0,0.0,3.7205,3.953,4.0736,4.257,4.5631,4.6119,4.6194,4.611,4.9697,5.2177,5.2697,5.7376,6.0639,6.1814,6.328,6.4563,6.5558,6.5291,6.596,6.7542,6.746,6.7387,6.7396,6.7506,6.756,6.7577,6.765,6.8091,6.8715,6.7981,6.8091,6.8715,6.7981,6.7677,6.7577,6.7577,6.6109,6.398,6.3209,6.1447,5.9551,6.0199,5.9869,5.9148,5.8854,5.7776,5.5904,5.2564,5.0031,4.8049,4.6892,4.7902,4.9317,4.9206,5.1536,5.4032,0.0,5.7666,6.0382,6.0823,6.3319,6.5962,6.776,7.0146,7.2899,7.6209,7.8148,7.958,8.0608,8.0131,7.9617,7.9507,8.0167,8.1012,8.2076,8.2847,8.3948,8.5527,8.5747,8.6077,8.6701,8.6151,8.538,8.4499,8.3765,8.259,8.0901,8.0689,8.0181,7.9252,7.9091,7.8873,7.8671,7.725,7.6436,7.6051,7.3172,7.1708,7.1271,7.039,6.9878,6.9582,6.8663,6.7818,6.6814,6.478,6.3381,6.236,0.0,0.0,0.0,0.0,0.0,0.0,0.0,0.0,3.563,3.713,3.8382,3.9774,4.1393,4.231,4.3388,4.4858,4.8048,5.1195,5.4153,5.8239,6.1745,6.4513,6.5761,6.6769,6.7628,6.7293,6.7469,6.8198,6.7863,6.7687,6.7687,6.7687,6.7944,6.8385,6.7907,6.8128,6.8898,6.8531,6.8311,6.8201,6.8348,6.8128,6.7677,6.7173,6.5485,6.3246,6.2401,6.086,0.0,5.851,5.84,5.851,5.851,5.774,5.6271,5.3518,5.1977,5.1389,5.2433,5.2894,5.365,5.5978,5.8327,6.0493,6.2218,6.3576,6.5118,6.7467,6.9412,7.1174,7.2789,7.5102,7.7488,7.98,8.1122,8.2003,8.237,8.1709,8.0828,7.991,8.0498,8.1342,8.2113,8.292,8.3875,8.5013,8.5527,8.593,8.6261,8.5967,8.5614,8.5212,8.4429,8.3158,8.1418,8.1814,8.1081,7.9317,7.9759,7.9448,7.8466,7.7623,7.6636,7.5392,7.3212,7.2119,7.182,7.0938,7.0489,7.0283,6.8936,6.8167,6.7654,6.574,6.4175,6.2935,0.0,0.0,0.0,0.0,0.0,0.0,0.0,0.0,0.0,0.0,3.6199,3.7271,3.8095,3.9528,4.1233,4.3274,4.605,4.9497,5.3853,5.7784,6.1579,6.5275,6.6671,6.7841,6.8935,6.8575,6.8504,6.8728,6.832,6.8148,6.8148,6.8007,6.8236,6.8762,6.8051,6.8128,6.8898,6.8678,6.8495,6.8348,6.8495,6.8201,6.754,6.6292,6.4163,6.1679,6.0896,5.8988,5.6689,5.5537,5.5244,5.539,5.5868,5.5757,5.5119,5.3244,5.2779,5.3373,5.553,5.6125,5.7074,6.1238,6.3686,6.5778,6.8421,6.8898,6.9779,7.312,7.4294,7.5175,7.6827,7.8589,8.0388,8.2223,8.3214,8.3728,8.3728,8.2753,8.1476,7.9854,7.9963,8.0563,8.1592,8.2518,8.3508,8.4535,8.532,8.5931,8.641,8.638,8.6202,8.59,8.5078,8.394,8.2405,8.2671,8.1907,8.0128,8.0493,8.0009,7.8853,7.8141,7.6717,7.4654,7.339,7.2578,7.2129,7.1245,7.0783,7.0437,6.8975,6.8244,6.7859,6.6436,6.4936,6.3589,0.0,0.0,0.0,0.0,0.0,0.0,0.0,0.0,0.0,0.0,0.0,3.4995,3.6759,3.844,3.9828,4.0726,4.4222,4.745,5.0025,5.5199,5.9337,6.1955,6.4389,6.6427,6.8107,6.8125,6.8482,6.9272,6.9272,6.9251,6.9251,6.8728,6.8487,6.8501,6.793,6.8128,6.8862,6.8054,6.8605,6.9889,6.8348,6.7724,6.743,6.5044,6.2144,5.9184,5.84,5.506,5.1059,5.0986,4.9921,4.8893,5.0508,5.1536,5.2063,5.1565,5.172,5.2376,5.401,5.5902,5.8408,6.2892,6.5815,6.8421,7.1615,7.356,7.5139,7.6796,7.7163,7.7708,7.936,7.9727,8.0571,8.2994,8.4058,8.4572,8.4572,8.3004,8.1223,7.9614,7.8554,7.8643,8.0311,8.1533,8.2884,8.4499,8.5232,8.6326,8.7965,8.7847,8.7384,8.6606,8.5789,8.4984,8.4128,8.3129,8.2563,8.2487,8.1538,8.1061,8.0946,7.9269,7.7077,7.4668,7.3846,7.3,7.2129,7.1245,7.0437,6.9667,6.8744,6.7898,6.7051,6.6205,6.532,6.432,0.0,0.0,0.0,0.0,0.0,0.0,0.0,0.0,0.0,0.0,0.0,0.0,0.0,0.0,0.0,0.0,4.2643,4.5662,4.8671,5.3822,5.8083,6.1027,6.4794,6.725,6.8281,6.9036,6.9563,6.9829,6.9492,6.9614,7.0163,6.939,6.9644,7.0636,6.8972,6.868,6.9371,6.8783,6.8495,6.8385,6.732,6.688,6.6439,6.2401,5.9297,5.6657,0.0,5.0667,4.9251,4.764,4.757,4.8252,4.8849,4.9596,5.0372,5.081,5.2019,5.4035,5.7819,5.9893,6.24,6.8218,7.0697,7.2386,7.5065,7.657,7.7194,7.6644,7.6346,7.615,7.5816,7.6486,7.7776,7.9863,8.2179,8.4063,8.5108,8.5153,8.4001,8.1257,8.1116,8.1009,8.0542,8.0793,8.1928,8.4189,8.5044,8.5966,8.7056,8.7596,8.7663,8.7293,8.6457,8.5626,8.4691,8.4859,8.4049,8.2399,8.1529,8.0477,7.9361,7.8746,7.7438,7.5476,7.4091,7.3322,7.2937,7.1514,7.0744,7.0398,6.959,6.8744,6.7859,6.7013,6.6167,6.5282,0.0,0.0,0.0,0.0,0.0,0.0,0.0,0.0,0.0,0.0,0.0,0.0,0.0,0.0,0.0,0.0,0.0,4.334,4.6271,5.0758,5.4878,5.8418,6.2155,6.4624,6.5667,6.6385,6.6942,6.7263,6.719,6.7777,6.8897,6.8432,6.8963,7.0231,6.8586,6.8062,6.8352,6.7716,6.6934,6.6061,6.4992,6.4094,6.2979,5.8968,5.5686,0.0,4.8467,4.6776,4.6308,4.4863,4.5252,4.6478,4.7066,4.8348,5.001,5.1979,5.3874,5.6547,6.1783,6.4078,6.6383,7.1874,7.391,7.5191,7.7555,7.8106,7.7971,7.7319,7.5632,7.4063,7.3077,7.2867,7.3527,7.5718,7.7957,8.0555,8.374,8.423,8.3945,8.3021,8.3069,8.297,8.2513,8.1901,8.239,8.4467,8.5607,8.6559,8.7392,8.7893,8.8145,8.7981,8.6891,8.5971,8.5363,8.5555,8.4555,8.2285,8.1477,8.0169,7.8477,7.8477,7.7246,7.5053,7.3976,7.3199,7.2585,7.1467,7.1038,7.1015,7.0214,6.9364,6.8464,6.7624,6.6977,6.6404,0.0,0.0,0.0,0.0,0.0,0.0,0.0,0.0,0.0,0.0,0.0,0.0,0.0,0.0,0.0,0.0,0.0,0.0,4.2853,4.6194,4.9898,5.3944,5.6637,5.8792,6.0358,6.0512,6.0973,6.1831,6.2589,6.3897,6.5628,6.5856,6.6434,6.7295,6.671,6.6145,6.565,6.4808,6.3937,6.297,6.1246,5.941,5.7413,5.489,5.1463,4.7678,4.5235,4.3564,4.2563,4.2742,4.3219,4.4046,4.5772,4.8251,5.1306,5.5041,5.7336,5.9958,6.5568,6.8218,7.0245,7.3915,7.5551,7.6825,7.8982,7.8364,7.7591,7.8465,7.4909,7.1454,7.1081,6.9101,6.8366,7.0959,7.235,7.5125,8.0976,8.1084,8.1745,8.4912,8.4435,8.4478,8.6017,8.4709,8.4288,8.5483,8.6881,8.8082,8.8918,8.8844,8.8748,8.8709,8.7055,8.617,8.6094,8.5286,8.4055,8.2362,8.1554,8.0208,7.8477,7.8477,7.6683,7.3567,7.3542,7.2649,7.128,7.1241,7.1344,7.1407,7.0596,6.974,6.8884,6.8106,6.7801,6.7592,0.0,0.0,0.0,0.0,0.0,0.0,0.0,0.0,0.0,0.0,0.0,0.0,0.0,0.0,0.0,0.0,0.0,0.0,4.0266,4.3645,4.6577,4.8759,5.2563,5.4812,5.5126,5.6357,5.7434,5.8292,5.8523,5.9819,6.2089,6.1492,6.2055,6.3437,6.2269,6.1679,6.1468,6.0172,5.9514,5.9046,5.62,5.5093,5.4692,5.0422,4.7891,4.6278,4.358,4.2764,4.2917,4.2715,4.5775,5.0095,5.2444,5.4983,5.7562,5.983,6.2265,6.5123,6.9099,7.154,7.3797,7.7226,7.8264,7.8579,7.9139,7.8491,7.6766,7.3341,6.9995,6.6957,6.465,6.45,6.5838,6.921,7.4588,7.9678,8.3671,8.6604,8.8226,8.7842,8.7564,8.7286,8.7094,8.6671,8.6838,8.7791,8.7616,8.8111,8.9552,8.9601,8.9325,8.8709,8.7632,8.6748,8.6094,8.5286,8.4362,8.3247,8.2401,8.0785,7.8477,7.8477,7.7081,7.4583,7.3926,7.316,7.226,7.1676,7.1435,7.1478,7.1251,7.0635,6.9818,6.963,6.9163,6.865,0.0,0.0,0.0,0.0,0.0,0.0,0.0,0.0,0.0,0.0,0.0,0.0,0.0,0.0,0.0,0.0,0.0,0.0,0.0,4.1606,4.3645,4.518,4.7896,4.9564,4.9865,5.0779,5.1702,5.2549,5.2933,5.4203,5.6357,5.6242,5.6896,5.8154,5.7353,5.6878,5.6583,5.5428,5.4532,0.0,0.0,5.0275,4.9554,4.6795,4.5125,4.4062,4.29,4.3924,4.6299,4.9064,5.2099,5.5269,5.8588,6.0858,6.2935,6.6167,6.821,7.0294,7.4008,7.6216,7.7783,7.928,7.9425,7.8965,7.8111,7.6236,7.3522,6.9717,6.5753,6.2351,6.0547,6.0514,6.2266,6.7005,7.216,7.7663,8.3618,8.6729,8.8786,8.9671,8.9787,8.9594,8.9133,8.8709,8.8863,8.971,8.8979,8.8902,8.9863,8.9902,8.971,8.9248,8.8055,8.6978,8.6094,8.5286,8.4478,8.3609,8.2453,8.0765,7.8617,7.8334,7.6859,7.4518,7.4061,7.3449,7.2757,7.1939,7.1858,7.2256,7.1866,7.1203,7.0426,7.0426,7.0118,6.9767,0.0,0.0,0.0,0.0,0.0,0.0,0.0,0.0,0.0,0.0,0.0,0.0,0.0,0.0,0.0,0.0,0.0,0.0,0.0,0.0,4.1163,4.2709,4.3431,4.4162,4.4902,4.494,4.5355,4.6231,4.6932,4.8163,4.9865,5.0548,5.1346,5.2202,5.2202,5.1919,5.1434,5.0608,4.9415,4.7931,4.7041,4.5587,4.397,0.0,4.2893,4.1777,4.2854,4.5817,5.0317,5.7319,5.9511,6.0089,6.4397,6.6513,6.8282,7.286,7.4322,7.5322,7.9131,8.0967,8.1652,8.0793,7.9999,7.8836,7.6617,7.2928,6.9209,6.6482,6.1693,5.7846,5.752,5.7011,5.8638,6.4589,6.8167,7.3283,8.217,8.4555,8.6863,9.0748,9.121,9.121,9.121,9.0517,9.0402,9.1133,9.0517,9.0094,9.0094,8.9979,8.9825,8.9594,8.8171,8.6978,8.6094,8.5286,8.4472,8.3611,8.2213,8.0593,7.8829,7.8237,7.659,7.4204,7.4204,7.3753,7.2996,7.2216,7.2403,7.3047,7.2305,7.1523,7.0898,7.1015,7.1055,7.1055,0.0,0.0,0.0,0.0,0.0,0.0,0.0,0.0,0.0,0.0,3.5251,3.5373,0.0,0.0,0.0,0.0,0.0,0.0,0.0,0.0,0.0,4.09,4.1093,4.1247,4.1362,4.1362,4.1816,4.2692,4.2808,4.3778,4.5393,4.5547,4.6086,4.6941,4.6941,4.6866,4.6733,4.585,4.5313,4.4919,4.3384,4.2574,4.2162,4.1431,0.0,0.0,4.3278,4.5932,4.9586,5.7819,6.2358,6.5436,7.0398,7.3514,7.563,7.7169,7.8631,8.0092,8.1477,8.3045,8.4093,8.3209,8.1853,7.9731,7.5841,7.1189,6.6186,6.0911,5.6802,5.3925,5.3144,5.4049,5.6857,6.2781,6.8859,7.513,8.1593,8.5709,8.8825,9.0941,9.121,9.121,9.121,9.1056,9.1056,9.121,9.1056,9.0979,9.0979,9.0287,8.9286,8.7863,8.7555,8.6978,8.6094,8.5286,8.4558,8.3824,8.2842,8.1219,7.9057,7.8941,7.7592,7.5326,7.533,7.4525,7.324,7.3084,7.2694,7.2226,7.207,7.1914,7.1875,7.2578,7.2851,7.2851,0.0,0.0,0.0,0.0,0.0,0.0,0.0,3.3171,3.4771,3.5605,3.7048,3.7701,3.698,3.8042,3.8792,0.0,0.0,0.0,0.0,0.0,0.0,4.0477,4.0516,4.0516,4.0516,4.0516,4.0708,4.1123,0.0,4.1546,4.2324,4.2324,4.2555,4.294,4.294,4.294,4.294,4.2516,4.2324,4.2247,4.1431,4.1123,4.1085,4.0669,0.0,0.0,4.3701,4.6509,5.0471,5.7242,6.1743,6.5743,7.2629,7.6553,7.8938,8.0631,8.2054,8.3439,8.517,8.6247,8.644,8.4709,8.267,7.9631,7.4014,6.8783,6.3435,5.755,5.4318,5.2279,5.1433,5.3395,5.6934,6.2423,6.8282,7.4514,8.1323,8.5209,8.8325,9.0902,9.121,9.121,9.121,9.121,9.121,9.121,9.121,9.121,9.121,9.0364,8.9363,8.8132,8.7632,8.7054,8.6327,8.5478,8.4727,8.4029,8.2829,8.1226,7.9249,7.9357,7.8077,7.5763,7.6233,7.5501,7.3945,7.3476,7.3047,7.2617,7.2187,7.1992,7.2109,7.2969,7.3281,7.3359,0.0,0.0,0.0,0.0,0.0,0.0,0.0,3.3654,3.549,3.6448,3.8798,3.9928,3.8837,3.9362,3.9738,0.0,0.0,0.0,0.0,0.0,0.0,0.0,0.0,0.0,4.0516,0.0,0.0,4.0516,4.0516,0.0,0.0,0.0,0.0,0.0,4.0516,4.0516,4.0516,4.0516,4.0516,0.0,0.0,4.0631,4.0785,0.0,0.0,0.0,0.0,4.6767,5.0726,5.5787,5.9502,6.3303,7.0873,7.5784,7.9208,8.1747,8.3632,8.544,8.7786,8.8825,8.8517,8.5632,8.2978,7.9208,7.2014,6.6282,6.0858,5.5126,5.2433,5.0971,5.051,5.2751,5.6165,6.0896,6.582,7.1745,7.9554,8.3208,8.6478,9.0441,9.1095,9.121,9.121,9.121,9.121,9.121,9.121,9.121,9.121,9.0364,8.9517,8.8709,8.7924,8.7147,8.6519,8.5483,8.4738,8.427,8.2718,8.1215,7.9756,7.9917,7.8789,7.6758,7.7265,7.6601,7.5078,7.4219,7.3633,7.3242,7.2539,7.2265,7.2383,7.3242,7.3711,7.3945,0.0,0.0,0.0,0.0,0.0,0.0,0.0,3.5748,3.7419,3.8968,4.0355,4.1159,4.1007,4.1336,4.1239,0.0,0.0,0.0,0.0,0.0,0.0,0.0,0.0,0.0,0.0,0.0,0.0,4.0516,4.0516,0.0,0.0,0.0,0.0,0.0,0.0,4.0516,4.0516,4.0516,0.0,0.0,0.0,0.0,0.0,0.0,0.0,0.0,0.0,4.5774,4.8261,5.3275,5.6188,5.8539,6.3033,6.9398,7.5668,7.8207,8.1785,8.5286,8.7055,8.921,8.9979,8.594,8.2978,7.89,7.0552,6.4089,5.8396,5.3192,5.0154,4.8663,4.9394,5.0433,5.2328,5.5818,6.005,6.582,7.4207,7.8938,8.367,8.9363,9.071,9.121,9.121,9.121,9.121,9.121,9.121,9.121,9.121,9.0364,8.9517,8.8709,8.8031,8.7294,8.6519,8.5029,8.4394,8.4546,8.2803,8.1602,8.0858,8.0859,8.0312,7.9297,7.8672,7.7851,7.6875,7.6015,7.4726,7.3281,7.3203,7.3164,7.3281,7.414,7.4961,7.5664,0.0,0.0,0.0,0.0,0.0,0.0,3.2847,3.5031,3.7002,3.814,4.015,4.1367,4.1029,4.1592,4.157,4.0608,0.0,0.0,0.0,0.0,0.0,0.0,0.0,0.0,0.0,0.0,4.0746,4.1277,4.1277,0.0,0.0,0.0,0.0,0.0,0.0,4.0516,4.0516,4.0516,0.0,0.0,0.0,0.0,0.0,0.0,0.0,0.0,0.0,0.0,4.7442,4.9959,5.1935,5.3738,5.5893,6.0008,6.5628,7.3822,7.9246,8.3439,8.7171,8.9286,8.9671,8.644,8.1785,7.6322,6.986,6.3012,5.6819,5.2731,5.0776,4.9721,4.9528,5.0673,5.2257,5.4141,5.7583,6.2129,6.8026,7.2091,7.721,8.4585,8.623,8.7904,9.092,9.121,9.1236,9.1376,9.1368,9.1469,9.1604,9.0168,8.919,8.8895,8.7751,8.7058,8.688,8.5234,8.4828,8.5534,8.3815,8.2534,8.1797,8.2344,8.1523,7.9726,7.9922,7.8945,7.7187,7.6836,7.5664,7.4062,7.4062,7.4062,7.418,7.5078,7.5586,7.5976,0.0,0.0,0.0,0.0,0.0,3.2119,3.2449,3.4447,3.6376,3.7676,3.9629,4.0843,4.0653,4.133,4.1374,4.0462,4.0381,0.0,0.0,0.0,0.0,0.0,0.0,0.0,0.0,0.0,4.12,4.1808,4.2038,4.2508,0.0,0.0,4.2047,4.1769,0.0,0.0,0.0,0.0,0.0,0.0,0.0,0.0,0.0,0.0,0.0,0.0,0.0,0.0,0.0,0.0,0.0,4.9899,5.0745,5.2972,5.7342,6.8167,7.4899,7.9977,8.5055,8.7594,8.8286,8.6247,8.0654,7.4332,6.9232,6.2375,5.6154,5.2717,5.1455,5.0778,5.0158,5.1103,5.2212,5.3068,5.5897,5.9535,6.4019,6.7828,7.2971,8.0605,8.1821,8.416,8.9623,9.0857,9.1392,9.1602,9.1626,9.1717,9.1905,9.0179,8.9182,8.9104,8.7647,8.6968,8.7104,8.5999,8.5724,8.6172,8.4961,8.3906,8.3086,8.3437,8.2617,8.0859,8.0976,7.9844,7.793,7.7695,7.6562,7.4961,7.4961,7.4961,7.5078,7.5664,7.6055,7.6367,0.0,0.0,0.0,0.0,0.0,0.0,3.3917,3.4655,3.5885,3.8358,3.8998,3.9506,4.0221,4.0678,4.0673,4.0138,4.0081,0.0,0.0,0.0,0.0,0.0,0.0,0.0,0.0,0.0,4.1769,4.1808,4.2662,4.3085,4.3085,4.3085,4.2624,4.1808,0.0,0.0,0.0,0.0,0.0,0.0,0.0,0.0,4.4393,0.0,0.0,0.0,0.0,0.0,0.0,0.0,0.0,0.0,0.0,4.9697,5.2693,6.0982,6.8244,7.4707,7.9785,8.3593,8.594,8.5132,7.9874,7.359,6.8485,6.2175,5.643,5.298,5.1667,5.1089,5.1089,5.1089,5.1366,5.2188,5.4523,5.8015,6.3081,6.7507,7.2438,7.8409,7.8384,8.0466,8.7088,9.0004,9.1602,9.1897,9.1914,9.1914,9.1914,9.0495,8.9571,8.9316,8.7849,8.7104,8.7104,8.7333,8.7031,8.6211,8.6172,8.5703,8.4844,8.3984,8.3594,8.3476,8.1758,8.0508,7.9609,7.8828,7.7461,7.5898,7.5898,7.5898,7.5898,7.5898,7.6445,7.7187,0.0,0.0,0.0,0.0,0.0,0.0,0.0,3.3655,3.5025,3.5799,3.794,3.9373,3.9266,4.0231,4.0718,4.0415,4.0223,0.0,0.0,0.0,0.0,0.0,0.0,0.0,0.0,0.0,4.2085,4.2701,4.4124,4.4825,4.4825,4.4825,4.4355,4.347,4.2316,4.1662,0.0,0.0,0.0,0.0,0.0,4.4432,4.521,0.0,0.0,0.0,0.0,0.0,0.0,0.0,0.0,0.0,0.0,0.0,0.0,5.2905,6.0451,6.8672,7.3753,7.6804,7.8194,7.6815,7.2279,6.7268,6.3891,5.8798,5.4313,5.264,5.1702,5.1167,5.1167,5.1245,5.1973,5.4005,5.5526,5.7633,6.0987,6.406,6.8132,7.4017,8.0533,8.6139,9.0177,9.1286,9.1867,9.2105,9.2117,9.192,9.1525,9.0492,8.981,8.9582,8.8126,8.7374,8.7374,8.6874,8.6758,8.707,8.6484,8.5742,8.4883,8.4609,8.3828,8.2695,8.2148,8.1054,7.9687,7.9414,7.832,7.6797,7.6797,7.6797,7.6797,7.6797,7.6953,7.7187,0.0,0.0,0.0,0.0,0.0,0.0,0.0,3.2929,3.4247,3.4538,3.6933,3.8606,3.8598,3.966,4.0479,4.0781,4.0635,0.0,0.0,0.0,0.0,0.0,0.0,0.0,0.0,4.1854,4.2854,4.4047,4.5432,4.624,4.6547,4.624,4.5624,4.4739,4.3355,4.2393,0.0,0.0,0.0,0.0,4.397,4.4816,4.5594,0.0,0.0,0.0,0.0,0.0,0.0,0.0,0.0,0.0,0.0,0.0,0.0,0.0,5.4235,6.0911,6.6621,6.9895,7.1552,7.0857,6.6885,6.263,6.0723,5.6658,5.3004,5.2146,5.1872,5.1662,5.1349,5.1598,5.2539,5.4492,5.582,5.7617,6.0508,6.3584,6.7646,7.3227,8.1929,8.7945,8.9142,9.0944,9.2111,9.2343,9.2036,9.1701,9.1328,9.0156,8.945,8.9342,8.8121,8.75,8.75,8.7265,8.7265,8.75,8.7265,8.6523,8.539,8.5039,8.414,8.2773,8.2422,8.1484,0.0,8.0195,7.9219,7.7695,7.7695,7.75,7.7187,7.7187,7.7187,7.7187,0.0,0.0,0.0,0.0,0.0,0.0,0.0,3.2453,3.3628,3.4373,3.6037,3.7457,3.8217,3.9108,4.01,4.1245,0.0,0.0,0.0,0.0,0.0,0.0,0.0,0.0,4.1769,4.2662,4.3932,4.5594,4.6547,4.7355,4.8086,4.7394,4.6586,4.5671,4.4778,4.347,0.0,0.0,0.0,0.0,4.4085,4.4893,0.0,0.0,0.0,0.0,0.0,0.0,0.0,0.0,0.0,0.0,0.0,0.0,0.0,0.0,0.0,0.0,0.0,6.2917,6.5746,6.6446,6.3153,5.9517,5.8577,5.5445,0.0,5.1562,5.2109,5.2422,5.1562,5.2109,5.3047,5.4023,5.5586,5.793,6.1484,6.5937,7.0742,7.5898,8.2854,8.6669,8.539,8.9503,9.2303,9.25,9.1758,9.125,9.1133,8.957,8.8672,8.8633,8.7969,8.7578,8.75,8.8242,8.8242,8.75,8.8242,8.7773,8.6172,8.5312,8.4414,8.3554,8.2695,8.1797,8.1015,8.1015,8.0,7.8515,7.8515,7.7969,7.7187,7.7187,7.7187,7.7187,0.0,0.0,0.0,0.0,0.0,0.0,0.0,0.0,0.0,0.0,3.5898,3.786,3.8044,3.9393,4.0645,0.0,0.0,0.0,0.0,0.0,0.0,0.0,0.0,0.0,4.1769,4.2662,4.3932,4.5594,4.7086,4.7932,4.8125,4.8586,4.8009,4.6547,4.5663,4.4355,0.0,0.0,0.0,0.0,4.494,4.5441,0.0,0.0,0.0,0.0,4.5594,4.5629,0.0,0.0,0.0,0.0,0.0,0.0,0.0,0.0,4.8121,4.8939,5.1193,0.0,5.8652,5.8243,5.729,5.6048,0.0,5.3397,5.2461,5.1562,5.2109,5.2422,5.1562,5.2109,5.3437,5.5625,5.6875,5.9258,6.4023,7.0532,7.6756,8.1956,8.5846,8.8285,8.875,9.1053,9.2263,9.164,9.1406,9.0703,8.9375,8.8906,8.8437,8.7812,8.8203,8.8125,8.75,8.7695,8.7695,8.75,8.7695,8.7226,8.6172,8.5312,8.4414,8.3554,8.2695,8.1797,8.1015,8.1015,8.0,7.8515,7.8515,7.7969,7.7187,7.7187,7.7187,7.7187,0.0,0.0,0.0,0.0,0.0,0.0,0.0,0.0,0.0,0.0,0.0,0.0,0.0,0.0,0.0,0.0,0.0,0.0,0.0,0.0,0.0,0.0,0.0,4.1508,4.2393,4.3624,4.5086,4.674,4.8048,4.9086,4.9846,4.9548,4.9125,4.8548,4.6518,4.4863,0.0,0.0,0.0,4.4393,4.5248,0.0,0.0,0.0,0.0,0.0,4.5673,4.5725,0.0,4.5939,4.6017,4.6249,0.0,0.0,0.0,0.0,4.7891,4.8398,4.9258,5.1479,5.3541,5.3515,5.3516,5.3242,5.2305,5.2109,5.1953,5.1484,5.2109,5.2578,5.207,5.2695,5.4023,5.625,5.7969,6.1249,6.7527,7.3631,7.9101,8.3476,8.636,8.8818,9.0976,9.1679,9.1953,9.1914,9.0781,8.9687,8.875,8.8359,8.7969,8.75,8.7929,8.7929,8.75,8.7851,8.7851,8.75,8.7109,8.6445,8.5586,8.4687,8.3828,8.2969,8.25,8.2031,8.1601,8.1601,8.0586,7.9062,7.9062,7.8281,7.7187,7.7187,7.7187,7.7187,0.0,0.0,0.0,0.0,0.0,0.0,0.0,0.0,0.0,0.0,0.0,0.0,0.0,0.0,0.0,0.0,0.0,0.0,0.0,0.0,0.0,0.0,4.2038,4.247,4.347,4.4863,4.6471,4.8317,4.9163,5.0394,5.1885,5.0587,5.0164,5.0366,4.721,4.5316,0.0,0.0,4.4509,4.4547,4.5287,0.0,0.0,0.0,0.0,0.0,0.0,0.0,0.0,4.6067,4.6194,4.6445,4.7305,0.0,0.0,0.0,0.0,0.0,4.9726,5.0117,5.0508,5.168,5.1914,5.1836,5.1953,5.1875,5.1797,5.1797,5.25,5.3086,5.3086,5.3906,5.5115,5.6873,6.0076,6.4992,7.2654,7.714,8.0774,8.3942,8.679,8.9492,9.2148,9.1953,9.1953,9.2539,9.0429,8.9023,8.8906,8.8242,8.7812,8.7695,8.7812,8.7773,8.75,8.8164,8.8164,8.75,8.6601,8.582,8.5078,8.4062,8.3203,8.25,8.2344,8.2304,8.2304,8.2304,8.1367,7.9883,7.9883,7.8945,7.7578,7.7578,7.75,7.7383,0.0,0.0,0.0,0.0,0.0,0.0,0.0,0.0,0.0,0.0,0.0,0.0,0.0,0.0,0.0,0.0,0.0,0.0,0.0,0.0,0.0,4.3932,4.3278,4.3624,4.5171,4.5479,4.6787,4.9202,5.0048,5.0971,5.1923,5.2395,5.1548,4.951,4.7586,4.6201,4.5402,0.0,4.5402,4.5402,4.5556,0.0,0.0,0.0,0.0,0.0,0.0,0.0,0.0,4.6067,4.6095,4.6303,4.7303,0.0,0.0,0.0,0.0,0.0,4.8672,4.9648,5.0937,5.3945,5.4141,5.3789,5.4531,5.4141,5.3594,5.3594,5.4297,5.4883,5.4883,5.6077,5.7601,5.9357,6.6082,7.3837,8.1755,8.4725,8.6795,8.8748,9.1328,9.2539,9.1601,9.2695,9.3242,9.2656,9.1523,9.0586,8.9844,8.9687,8.9297,8.8554,8.9219,8.8945,8.75,8.7617,8.7617,8.75,8.6601,8.6133,8.5937,8.4336,8.3515,8.3359,8.2617,8.2304,8.2304,8.2304,8.1719,8.0781,8.0781,8.0195,7.9336,7.9336,7.8906,7.8203,0.0,0.0,0.0,0.0,0.0,0.0,0.0,0.0,0.0,0.0,0.0,0.0,0.0,0.0,0.0,0.0,0.0,0.0,0.0,0.0,4.5701,4.5701,4.5778,4.574,4.5594,4.6941,4.8471,5.0087,5.0933,5.201,5.3318,5.3241,5.1856,4.9356,4.8086,4.6817,4.5603,4.568,4.5727,4.5703,0.0,0.0,0.0,0.0,0.0,0.0,0.0,0.0,0.0,0.0,4.6202,4.636,4.7304,0.0,0.0,0.0,0.0,0.0,4.9141,5.0547,5.2383,5.5859,5.5703,5.5039,5.6406,5.6406,5.625,5.6719,5.6758,5.6952,5.7796,6.0139,6.3736,6.9204,7.4062,7.8621,8.2754,8.4825,8.6583,8.8266,9.0427,9.2031,9.2656,9.3008,9.3047,9.2617,9.1367,9.0429,9.0039,8.9531,8.9101,8.8711,8.8672,8.8281,8.75,8.75,8.75,8.75,8.6601,8.6211,8.6172,8.4883,8.4062,8.3594,8.3164,8.2734,8.2304,8.2304,8.1797,8.1015,8.1015,8.0195,7.8984,7.8386,7.7888,7.7415,0.0,0.0,0.0,0.0,0.0,0.0,0.0,0.0,0.0,0.0,0.0,0.0,0.0,0.0,0.0,0.0,0.0,0.0,0.0,0.0,4.6885,4.6885,4.7855,4.7894,4.6826,4.8702,5.0202,5.1279,5.2125,5.3203,5.4472,5.3648,5.1905,4.94,4.8574,4.7248,4.5681,4.5783,4.584,4.5813,0.0,0.0,0.0,0.0,0.0,0.0,0.0,0.0,0.0,0.0,0.0,0.0,0.0,0.0,0.0,4.7109,4.7305,4.7695,4.9414,5.1133,5.3164,5.6484,5.6758,5.6719,5.8633,5.9258,5.9648,6.0508,6.0156,6.0114,6.1468,6.4926,7.0141,7.7994,8.0939,8.2755,8.426,8.5825,8.7269,8.86,9.0385,9.2226,9.4023,9.3594,9.3125,9.2929,9.1484,9.0507,9.0269,8.9605,8.9016,8.8576,8.795,8.752,8.7325,8.7325,8.7375,8.75,8.6601,8.6211,8.6172,8.5232,8.4373,8.3594,8.3507,8.2997,8.2221,8.2175,8.1779,8.1154,8.1154,8.0373,7.9118,7.8082,7.7634,7.7477,0.0,0.0,0.0,0.0,0.0,0.0,0.0,0.0,0.0,0.0,0.0,0.0,0.0,0.0,0.0,0.0,0.0,0.0,0.0,0.0,4.6885,4.6885,4.8432,4.9625,5.0327,5.0519,5.1395,5.301,5.3895,5.4395,5.4483,5.3748,5.2013,4.9536,4.8788,4.7529,4.5896,4.5905,4.5905,4.5909,4.5918,0.0,0.0,0.0,0.0,0.0,0.0,0.0,0.0,0.0,0.0,0.0,0.0,0.0,4.6328,4.6367,4.6406,4.6758,4.8516,5.0234,5.2148,5.4805,5.7226,5.957,6.207,6.3242,6.4101,6.4961,6.5078,6.527,6.5998,7.0123,7.5203,8.0689,8.4459,8.7936,9.1366,9.2656,9.3281,9.3398,9.4961,9.5781,9.5156,9.5039,9.4687,9.3867,9.2929,9.1986,9.0992,9.0867,8.9999,8.8204,8.8079,8.7682,8.6864,8.6864,8.7063,8.75,8.6601,8.6211,8.6172,8.5083,8.4268,8.3593,8.3215,8.2668,8.1996,8.1831,8.1725,8.1647,8.1647,8.1569,8.1375,8.0457,8.0131,7.9999,0.0,0.0,0.0,0.0,0.0,0.0,0.0,0.0,0.0,0.0,0.0,0.0,0.0,0.0,0.0,0.0,0.0,0.0,0.0,4.6654,4.7895,4.7895,4.9451,5.0734,5.1545,5.1472,5.2279,5.401,5.4857,5.5016,5.4619,5.3785,5.2102,4.9681,4.8852,4.7518,4.5923,4.5988,4.6011,4.6017,4.6134,4.6147,0.0,0.0,0.0,0.0,0.0,0.0,0.0,0.0,4.6289,4.6289,4.6201,4.6194,4.615,4.6077,4.6067,4.6418,4.8173,4.9961,5.2087,5.5087,5.8658,6.2363,6.6132,6.8001,6.9711,7.2265,7.1953,7.156,7.2795,7.5413,7.9261,8.4961,8.8087,9.0425,9.2343,9.3359,9.3906,9.3906,9.4793,9.5084,9.4225,9.4016,9.3387,9.1944,9.1549,9.0941,9.0067,8.9476,8.8856,8.8109,8.7564,8.7128,8.6817,8.6817,8.6622,8.6244,8.5932,8.5776,8.5737,8.4824,8.3972,8.3235,8.3077,8.2543,8.1825,8.1718,8.1688,8.1641,8.1096,8.082,8.0611,7.9747,7.9011,7.8513,0.0,0.0,0.0,0.0,0.0,0.0,0.0,0.0,0.0,0.0,0.0,0.0,0.0,0.0,0.0,0.0,0.0,0.0,4.4241,4.6658,4.8097,4.8097,4.967,5.0927,5.1741,5.192,5.2857,5.4511,5.5093,5.5023,5.4333,5.3502,5.1947,4.9858,4.9276,4.808,4.6446,4.6528,4.6425,4.6153,4.6249,4.6445,0.0,0.0,0.0,0.0,0.0,0.0,0.0,0.0,4.6441,4.6203,4.608,4.6059,4.6008,4.5944,4.5879,4.6268,4.8024,5.003,5.2402,5.574,5.9988,6.4807,7.0381,7.257,7.4452,7.8046,7.7186,7.6235,7.7791,7.9079,8.1701,8.7124,8.9818,9.1592,9.2725,9.3571,9.4142,9.4454,9.4827,9.473,9.3872,9.3414,9.2468,9.0717,9.06,9.0107,8.8944,8.8313,8.7807,8.7481,8.6888,8.6577,8.6577,8.6344,8.5918,8.5297,8.4764,8.4699,8.5112,8.4462,8.3732,8.2972,8.2854,8.232,8.1609,8.1534,8.1494,8.1455,8.0862,8.055,8.0319,7.9726,7.9078,7.8592,0.0,0.0,0.0,0.0,0.0,0.0,0.0,0.0,0.0,0.0,0.0,0.0,0.0,0.0,0.0,0.0,0.0,0.0,4.3393,4.5763,4.7198,4.7198,4.8866,5.0184,5.0957,5.1857,5.3028,5.4483,5.4636,5.4308,5.3589,5.2834,5.1625,4.9994,5.0152,4.9258,4.7617,4.7617,4.7109,4.6328,4.6328,4.6836,4.7617,0.0,0.0,0.0,0.0,0.0,0.0,0.0,4.683,4.6116,4.5952,4.5918,4.5918,4.5918,4.5914,4.6307,4.8059,5.0388,5.318,5.6586,6.1182,6.6912,7.4849,7.6794,7.7966,8.1561,8.0176,7.8764,8.0396,8.0793,8.2241,8.6499,8.9337,9.1588,9.3266,9.4028,9.4707,9.5563,9.5689,9.5339,9.4474,9.3627,9.2468,9.0717,9.0561,8.9712,8.7795,8.7693,8.7188,8.6149,8.6094,8.6094,8.6094,8.5286,8.4901,8.4863,8.3131,8.3012,8.4256,8.4005,8.3561,8.2948,8.2482,8.1933,8.1383,8.1181,8.1093,8.1093,8.1093,8.1093,8.1093,8.1093,8.1093,8.1093,0.0,0.0,0.0,0.0,0.0,0.0,0.0,0.0,0.0,0.0,0.0,0.0,0.0,0.0,0.0,0.0,0.0,0.0,4.3618,4.5453,4.6584,4.6584,4.8735,5.0033,5.0303,5.1594,5.283,5.385,5.3903,5.3535,5.2838,5.2587,5.1646,5.0152,5.0195,4.957,4.8476,4.7851,4.7461,4.7226,4.7226,4.7301,4.7514,0.0,0.0,0.0,0.0,0.0,0.0,0.0,0.0,0.0,4.7633,4.7585,4.7559,4.7472,4.7434,4.782,4.9558,5.2376,5.5769,5.9708,6.5013,7.0947,7.7563,7.8679,7.9509,8.3675,8.3416,8.2357,8.2087,8.2668,8.3968,8.6331,8.8965,9.1108,9.2206,9.4051,9.4746,9.3198,9.3935,9.3992,9.2518,9.1448,9.0441,8.9335,8.8717,8.7847,8.6647,8.6555,8.6415,8.6094,8.6094,8.5824,8.5247,8.5016,8.4286,8.3054,8.2554,8.2501,8.2882,8.2217,8.1845,8.1658,8.1508,8.1362,8.1181,8.11,8.1093,8.1093,8.1093,8.1093,8.1093,8.1093,8.0708,8.0285,0.0,0.0,0.0,0.0,0.0,0.0,0.0,0.0,0.0,0.0,4.1211,4.1211,0.0,0.0,0.0,0.0,0.0,0.0,0.0,4.4805,4.5781,4.5781,4.8196,4.9866,5.0529,5.1472,5.2029,5.2259,5.2532,5.2448,5.2048,5.1735,5.1241,5.0664,5.0664,4.9999,4.8782,4.8275,4.7799,4.7432,4.7432,4.7799,4.8415,0.0,0.0,0.0,0.0,0.0,0.0,0.0,0.0,0.0,4.8261,4.8199,4.8252,4.8546,4.8625,4.9125,5.1548,5.4709,5.8597,6.383,6.9142,7.4616,8.0628,8.2809,8.4301,8.6986,8.6277,8.5251,8.5268,8.5204,8.5834,8.7823,8.9737,9.14,9.2615,9.3718,9.4098,9.3245,9.333,9.3029,9.1986,9.0978,8.994,8.8786,8.8209,8.7363,8.617,8.6094,8.6094,8.6094,8.5786,8.5401,8.4901,8.4209,8.3324,8.2285,8.1977,8.1823,8.1823,8.1323,8.1093,8.1093,8.1093,8.1093,8.1093,8.1093,8.1093,8.1093,8.1093,8.1093,8.1093,8.1093,8.0785,8.04,0.0,0.0,0.0,0.0,0.0,0.0,0.0,0.0,0.0,0.0,4.1211,4.1211,0.0,0.0,0.0,0.0,0.0,0.0,0.0,0.0,4.4883,4.4883,4.7461,4.9687,5.1367,5.1328,5.0898,5.0078,5.0757,5.1189,5.1289,5.0547,5.0625,5.1406,5.1328,5.0344,4.8825,4.8625,4.8074,4.7315,4.7315,4.8317,4.978,4.9858,0.0,0.0,0.0,0.0,0.0,0.0,0.0,0.0,4.8381,4.8355,4.8509,4.9356,4.9663,5.0471,5.3933,5.7511,6.1897,6.8629,7.3783,7.8746,8.4324,8.8275,9.0713,9.048,8.875,8.7769,8.9217,8.8187,8.7905,9.0276,9.1098,9.2014,9.3615,9.312,9.3133,9.448,9.3364,9.2479,9.2402,9.1595,9.0402,8.8825,8.8632,8.7863,8.6209,8.6094,8.6094,8.6094,8.5324,8.4863,8.4786,8.3131,8.2247,8.217,8.1439,8.1093,8.1093,8.1093,8.1093,8.1093,8.1093,8.1093,8.1093,8.1093,8.1093,8.1093,8.1093,8.1093,8.1093,8.1093,8.1093,8.1093,0.0,0.0,0.0,0.0,0.0,0.0,0.0,0.0,0.0,0.0,0.0,0.0,0.0,0.0,0.0,0.0,0.0,0.0,0.0,0.0,4.3984,4.3984,4.7148,4.9687,5.1367,5.0781,5.0039,4.918,4.9998,5.0428,5.0469,5.0273,5.0625,5.1367,5.0613,5.0087,4.9606,4.8142,4.7778,4.8214,4.8214,4.8805,4.973,5.0396,5.0697,0.0,0.0,0.0,0.0,0.0,0.0,0.0,5.0144,5.0125,5.0279,5.1125,5.1856,5.3126,5.6549,6.1897,6.7821,7.3283,8.0823,8.7632,9.0248,9.1518,9.1531,8.9524,9.0242,9.1168,9.0859,9.0458,9.0419,9.0975,9.1181,9.1385,9.1771,9.2781,9.3095,9.2133,9.2287,9.221,9.1556,9.071,8.9787,8.8748,8.8055,8.7209,8.617,8.6094,8.6094,8.6094,8.5324,8.4555,8.3901,8.2824,8.1977,8.1362,8.117,8.1093,8.1093,8.1093,8.1093,8.1093,8.1093,8.1093,8.1093,8.1093,8.1093,8.1093,8.1093,8.1093,8.1093,8.1093,8.1093,8.1093,0.0,0.0,0.0,0.0,0.0,0.0,0.0,0.0,0.0,0.0,0.0,0.0,0.0,0.0,0.0,0.0,0.0,0.0,0.0,0.0,4.4453,4.6133,4.793,4.9492,5.0781,5.0391,4.957,4.8281,4.9141,4.953,4.948,4.948,5.0136,5.1243,5.0738,5.0034,4.9166,4.8582,4.8347,4.8347,4.8773,4.9405,5.0182,5.0623,5.0747,5.0712,5.0712,0.0,0.0,0.0,0.0,0.0,0.0,0.0,5.0317,5.1538,5.2231,5.3703,5.8742,6.4166,7.0398,7.8746,8.6017,9.1364,9.2287,9.2787,9.2595,9.0864,9.1864,9.2941,9.2479,9.2749,9.2749,9.1941,9.2133,9.2249,9.1864,9.221,9.2326,9.1864,9.1864,9.1556,9.0671,9.0171,8.9402,8.8171,8.7671,8.7017,8.617,8.6094,8.594,8.5555,8.4709,8.3862,8.2978,8.2131,8.1516,8.1093,8.1093,8.1093,8.1093,8.1093,8.1093,8.1093,8.0669,8.0477,8.0477,8.0477,8.0477,8.0516,8.0939,8.1093,8.1093,8.1093,8.1093,8.1093,0.0,0.0,0.0,0.0,0.0,0.0,0.0,0.0,0.0,0.0,0.0,0.0,0.0,0.0,0.0,0.0,0.0,0.0,0.0,0.0,0.0,4.832,4.8594,4.9062,4.9961,4.9844,4.9023,4.7617,4.8476,4.8979,4.913,4.8974,4.9712,5.1089,5.0913,4.998,4.8572,4.9117,4.8963,4.8394,4.9125,4.9933,5.0712,5.0712,5.0712,5.0712,5.0712,5.0712,5.0712,5.0712,0.0,0.0,0.0,0.0,4.9663,5.1038,5.1654,5.3269,5.9523,6.559,7.2783,8.3785,8.9633,9.271,9.271,9.321,9.3557,9.3018,9.3441,9.3826,9.3557,9.421,9.4287,9.2749,9.2941,9.3018,9.2364,9.1633,9.1479,9.2172,9.1633,9.0864,8.9979,8.9902,8.921,8.7517,8.7401,8.7017,8.617,8.5978,8.5593,8.4939,8.3901,8.3016,8.2324,8.1516,8.1016,8.09,8.09,8.0939,8.1093,8.1093,8.1093,8.1054,8.0323,8.0015,8.0015,8.0015,8.0015,8.0092,8.0823,8.1093,8.1093,8.1093,8.1093,8.1093,0.0,0.0,0.0,0.0,0.0,0.0,0.0,0.0,0.0,0.0,4.1211,4.1211,0.0,0.0,0.0,0.0,0.0,0.0,4.1211,0.0,0.0,4.6562,4.7383,4.8164,4.9062,4.832,4.7812,4.7617,4.8476,4.9564,5.085,5.0147,5.0261,5.105,5.0183,4.9678,4.9371,4.8604,4.8653,4.924,4.9356,4.9933,5.0712,5.0712,5.0712,5.0712,5.0712,5.0712,5.0712,5.0712,5.0712,0.0,0.0,0.0,4.9433,4.9663,5.0779,5.2731,5.6637,6.7218,7.8938,8.6478,9.0979,9.3518,9.3518,9.3633,9.3864,9.4518,9.4749,9.4364,9.2941,9.3326,9.3557,9.2633,9.1979,9.1518,9.1402,9.1287,9.1248,9.1364,9.1287,9.0864,8.9979,8.9902,8.921,8.7517,8.7401,8.7017,8.617,8.544,8.5016,8.4901,8.3324,8.2401,8.2285,8.1516,8.0708,7.9977,7.9977,8.0362,8.1093,8.1093,8.1093,8.1093,8.0977,8.0939,8.0939,8.0939,8.0939,8.0939,8.1054,8.1093,8.1093,8.1093,8.1093,8.1093,0.0,0.0,0.0,0.0,0.0,0.0,0.0,0.0,0.0,0.0,0.0,4.1211,0.0,0.0,0.0,4.1211,4.1211,4.1406,4.1836,4.2578,4.375,4.5508,4.6406,4.7031,4.7422,4.7539,4.7617,4.7617,4.8945,5.0424,5.1945,5.1973,5.2159,5.2337,5.1354,5.0358,4.947,4.9556,4.951,4.9471,5.0433,5.1048,5.1356,5.1356,5.1356,5.1318,5.0856,5.0712,5.0712,5.0712,5.0712,5.0558,4.9663,0.0,0.0,0.0,4.9548,5.2395,6.105,7.009,7.8861,8.6132,8.9787,9.1825,9.2787,9.3364,9.3672,9.3595,9.3941,9.421,9.3941,9.3787,9.3441,9.2633,9.2172,9.1595,9.0633,9.0479,9.0287,8.9863,9.021,8.994,8.8632,8.894,8.8517,8.6786,8.6671,8.6324,8.5478,8.5093,8.4439,8.3478,8.2247,8.14,8.09,8.0054,7.9438,7.9054,7.9054,7.9285,7.9669,8.0169,8.0631,8.1054,8.0054,7.99,8.0285,7.9361,7.9515,8.0362,8.0362,8.0669,8.1093,8.1093,8.1093,8.1093,0.0,0.0,0.0,0.0,0.0,0.0,0.0,0.0,0.0,0.0,0.0,0.0,0.0,0.0,0.0,0.0,4.1836,4.2109,4.2695,4.2734,4.332,4.4609,4.5508,4.5976,4.5976,4.6795,4.7224,4.7224,4.9133,5.091,5.2464,5.3444,5.3942,5.4018,5.279,5.1433,5.0087,5.0741,5.051,4.9856,5.1308,5.1885,5.1923,5.2154,5.2077,5.1846,5.1471,5.1202,5.101,5.101,5.101,5.0779,4.9471,4.8625,0.0,0.0,0.0,5.1741,6.2589,6.9398,7.5091,8.2131,8.6094,8.8748,9.0479,9.1825,9.2672,9.2518,9.2787,9.3326,9.421,9.3826,9.3133,9.2287,9.2172,9.1633,9.0133,8.9902,8.9594,8.8786,8.9248,8.9017,8.7555,8.7979,8.7748,8.6209,8.5901,8.5517,8.4939,8.4478,8.3632,8.2324,8.1285,8.0477,7.9823,7.8746,7.8284,7.8477,7.8284,7.84,7.8861,7.9515,8.0285,8.1016,7.9708,7.9285,7.94,7.8361,7.8669,7.9823,7.9823,8.0323,8.1093,8.1093,8.1093,8.1093,0.0,0.0,0.0,0.0,0.0,0.0,0.0,0.0,0.0,0.0,0.0,0.0,4.2344,4.3086,4.3555,4.3555,4.3555,4.3594,4.3633,4.3633,4.3672,4.375,4.4609,0.0,4.5078,4.5803,4.6171,4.6171,4.8638,5.0655,5.2354,5.3909,5.5064,5.5792,5.3947,5.2626,5.1769,5.1808,5.1356,5.0712,5.1548,5.1885,5.2,5.2818,5.2615,5.2,5.2779,5.2549,5.1846,5.1846,5.1846,5.1423,4.8933,4.8125,4.7778,0.0,0.0,0.0,5.6099,6.1908,6.7667,7.2937,7.9092,8.4362,8.6055,8.8325,9.0556,9.2172,9.1864,9.1595,9.2479,9.2595,9.2287,9.1402,9.1287,9.0941,9.0056,8.9902,8.9594,8.8786,8.8748,8.8402,8.7478,8.744,8.7094,8.617,8.5401,8.4939,8.4901,8.3324,8.2401,8.2285,8.0708,7.9862,7.9823,7.8169,7.7746,7.8477,7.7707,7.8207,7.9746,7.9785,8.0285,8.1093,8.1016,8.0054,7.8631,7.9361,7.9708,7.9823,7.9823,8.0323,8.1093,8.1093,8.1093,8.1093,0.0,0.0,0.0,0.0,0.0,0.0,0.0,0.0,0.0,0.0,0.0,0.0,0.0,4.3458,4.3653,4.3653,4.3669,4.3711,4.3711,4.3711,4.3711,4.3711,4.4445,4.4865,4.4865,4.5591,4.6251,4.68,4.8829,5.0685,5.2397,5.398,5.5172,5.5947,5.4612,5.3241,5.1885,5.1885,5.1731,5.1548,5.2395,5.3395,5.4203,5.2856,5.4192,5.6549,5.4703,5.4895,5.5934,5.5357,5.4087,5.2395,5.0394,4.9009,4.7894,4.6778,4.7432,4.9663,5.478,5.8934,6.3281,6.9513,7.4514,7.8631,8.1439,8.4016,8.6324,8.8055,8.8594,8.921,9.0594,9.1287,9.1556,9.1248,9.0748,9.0094,8.9248,8.8632,8.7979,8.7132,8.7517,8.7517,8.6632,8.7055,8.7055,8.617,8.5363,8.467,8.4093,8.2939,8.1823,8.0746,7.9554,7.8438,7.7361,7.6784,7.6592,7.6899,7.6592,7.7053,7.8207,7.8746,7.8861,7.8746,8.04,8.0746,8.0092,7.9285,7.9631,8.0592,8.0015,8.0323,8.1093,8.1093,8.1093,8.117,0.0,0.0,0.0,0.0,0.0,0.0,0.0,0.0,0.0,4.2773,0.0,0.0,0.0,0.0,4.4373,4.4373,4.4415,4.4432,4.4432,4.4198,4.4042,4.4042,4.4517,4.4763,4.4763,4.549,4.6284,4.7139,4.8532,5.0105,5.1865,5.3151,5.4246,5.5019,5.4371,5.3433,5.2346,5.2346,5.2154,5.2,5.3164,5.4472,5.5588,5.478,5.6203,5.85,5.7208,5.7287,5.7965,5.7494,5.5849,5.3656,5.1541,4.9421,4.7548,4.6701,4.7048,4.8509,5.2164,5.5203,5.8665,6.4089,6.8398,7.2283,7.5976,7.9015,8.1785,8.4286,8.5747,8.7055,8.8748,8.9787,9.0441,9.071,9.0287,8.9517,8.8402,8.7786,8.7094,8.6209,8.6594,8.6748,8.617,8.6632,8.6709,8.6132,8.5363,8.4516,8.3632,8.2747,8.14,7.9438,7.8554,7.74,7.6015,7.6015,7.6015,7.6015,7.6015,7.6476,7.7323,7.7861,7.7938,7.7823,7.9785,8.0323,7.9746,7.8861,7.9361,8.0592,7.9708,8.0092,8.1093,8.1093,8.1285,8.1593,0.0,0.0,0.0,0.0,0.0,0.0,0.0,0.0,0.0,4.3711,0.0,0.0,0.0,0.0,0.0,4.5953,4.5957,4.5957,4.5957,4.5175,4.4742,4.4742,4.4738,4.4738,4.4738,4.5464,4.6189,4.6996,4.7769,4.9009,5.0673,5.151,5.2346,5.3164,5.3203,5.3203,5.3164,5.3164,5.2692,5.2077,5.3818,5.5049,5.6088,5.855,5.8588,5.7647,6.0352,5.9824,5.7847,5.8161,5.7137,5.5239,5.2164,4.928,4.6817,4.5893,4.624,4.7077,0.0,0.0,0.0,5.6214,6.0666,6.5513,6.9706,7.3283,7.6938,8.1246,8.3478,8.5247,8.7017,8.8055,8.8902,8.971,8.9808,8.9248,8.7632,8.7363,8.7055,8.6209,8.6094,8.6094,8.6094,8.6094,8.6094,8.6094,8.5324,8.4478,8.3632,8.2708,8.1093,7.8569,7.7707,7.6861,7.6015,7.6015,7.6015,7.6015,7.6015,7.6476,7.7284,7.7284,7.7707,7.8515,7.94,7.8861,7.74,7.8207,7.9092,7.9746,7.89,7.9592,8.1093,8.1131,8.1631,8.2324,0.0,0.0,0.0,0.0,0.0,0.0,4.3711,4.3711,4.3945,0.0,0.0,0.0,4.647,4.7206,4.7656,4.7656,4.7139,4.6848,4.6848,4.6031,4.5568,4.5568,4.5514,4.5497,4.5497,4.6205,4.6711,4.6943,4.8345,4.9279,4.9779,5.1241,5.2038,5.2269,5.2933,5.2856,5.2269,5.2269,5.2462,5.301,5.4703,5.6626,5.8511,5.9242,6.1262,6.3756,6.3908,6.4444,6.5011,6.4445,6.2213,5.8715,5.3398,5.0315,4.8432,4.6971,4.6701,4.6962,4.7154,0.0,0.0,0.0,0.0,0.0,6.3858,6.6667,7.0398,7.6476,7.8631,8.0862,8.5593,8.7171,8.7825,8.8055,8.8094,8.794,8.7478,8.6863,8.6363,8.6132,8.6094,8.6094,8.6094,8.6094,8.6094,8.6094,8.4786,8.3862,8.3593,8.1631,7.9862,7.8515,7.7707,7.6861,7.6015,7.6015,7.6015,7.6015,7.6015,7.6476,7.7284,7.7284,7.74,7.7707,7.9169,7.9169,7.8284,7.9785,8.0516,8.0708,8.0477,8.0669,8.117,8.1747,8.2093,8.2477,0.0,0.0,0.0,0.0,0.0,4.5772,4.5772,4.5758,4.59,0.0,0.0,0.0,4.7534,4.7959,4.8237,4.8237,4.7801,4.7437,4.7088,4.659,4.6164,4.5783,4.6109,4.6275,4.6275,4.6994,4.7586,4.7932,4.8933,4.9586,4.9971,5.0933,5.1395,5.1433,5.1933,5.1856,5.1433,5.1769,5.2615,5.3895,5.5588,5.7973,6.0742,6.2127,6.4333,6.6697,6.7131,6.8035,6.8847,6.7546,6.4012,5.9269,5.4428,5.1426,4.9426,4.8279,4.7702,4.7394,4.7394,4.8394,4.9702,5.1048,0.0,0.0,5.9407,6.2216,6.5936,7.1668,7.4361,7.7207,8.2054,8.3632,8.4478,8.517,8.5593,8.6055,8.6748,8.644,8.6094,8.6094,8.6094,8.6094,8.6094,8.5786,8.5593,8.5593,8.4362,8.3439,8.3093,8.0977,7.94,7.8515,7.7707,7.6861,7.6015,7.6015,7.6015,7.6015,7.6015,7.6284,7.6746,7.6746,7.6746,7.6861,7.8515,7.8977,7.8631,8.0362,8.1093,8.1054,8.0708,8.0785,8.117,8.1631,8.2247,8.2978,0.0,0.0,4.8906,4.8984,4.8926,4.8852,4.8923,4.8846,4.8774,0.0,4.8767,4.8709,4.8682,4.8586,4.8509,4.8509,4.8355,4.7932,4.724,4.7077,4.6701,4.5902,4.6624,4.7038,4.7038,4.7817,4.8625,4.9394,4.951,4.9933,5.0712,5.0712,5.0712,5.0712,5.0712,5.0712,5.075,5.1548,5.3018,5.4995,5.6835,5.945,6.2682,6.6333,6.7623,6.7835,7.0116,7.0858,7.0413,6.8553,6.3933,5.8524,5.5905,5.2891,5.0278,4.991,4.9106,4.8308,4.8385,4.8894,4.9625,5.0481,5.1972,0.0,5.6175,5.9138,6.2627,6.6936,7.0321,7.3591,7.7015,7.8438,7.9631,8.1208,8.2324,8.3708,8.5709,8.6055,8.6094,8.6094,8.6094,8.6094,8.6094,8.544,8.5016,8.4901,8.4016,8.3093,8.2208,8.0746,7.9515,7.8515,7.7784,7.6976,7.6015,7.6015,7.6015,7.6015,7.6015,7.6015,7.6015,7.6015,7.6015,7.6092,7.7669,7.8361,7.8477,8.0246,8.1016,8.1016,8.0246,8.0439,8.1093,8.1208,8.217,8.3478,0.0,4.8789,4.9061,4.9616,4.9677,4.9877,5.0451,5.0529,5.0514,5.0514,5.1004,5.1562,5.2145,5.1577,5.1154,5.1154,4.9933,4.9086,4.8933,4.8279,4.7778,4.7625,4.7778,4.7855,4.7855,4.8702,4.924,4.9394,5.0087,5.0519,5.0712,5.0712,5.0712,5.0712,5.0712,5.0712,5.075,5.1548,5.3825,5.7093,5.9931,6.2017,6.4001,6.9399,7.0896,7.0473,7.2881,7.3012,7.181,6.9865,6.5798,6.1321,6.0207,5.6459,5.2475,5.2456,5.1103,4.9694,5.0105,4.9779,4.9625,5.0481,5.1972,0.0,5.4703,5.6011,5.8357,6.3281,6.5397,6.759,7.1629,7.3668,7.5053,7.6015,7.8054,8.0823,8.4593,8.5709,8.6094,8.6094,8.6094,8.6094,8.6094,8.5978,8.5593,8.4939,8.3439,8.2208,8.1362,8.1016,8.0131,7.8554,7.8376,7.7553,7.6015,7.6015,7.6015,7.6015,7.6015,7.6015,7.6015,7.6015,7.6015,7.6053,7.7092,7.7515,7.7669,7.9361,8.0477,8.1093,8.09,8.0939,8.117,8.1823,8.2285,8.2747,4.9375,4.9801,5.0294,5.1079,5.1074,5.1281,5.2052,5.2158,5.209,5.209,5.282,5.3446,5.379,5.3818,5.3818,5.3818,5.2664,0.0,0.0,4.9856,4.9009,4.8125,4.8509,4.874,4.874,4.9586,5.024,5.0664,5.0664,5.0894,5.1279,5.0894,5.0712,5.0712,5.0712,5.0933,5.1395,5.2664,5.4836,5.7692,6.0512,6.3352,6.6292,7.0498,7.2029,7.2136,7.3467,7.333,7.2267,7.0917,6.7321,6.3289,6.2124,5.838,5.451,5.5173,5.3403,5.1433,5.2351,5.1625,5.0856,5.1741,5.2241,0.0,0.0,5.4196,5.5719,5.8918,6.0734,6.2655,6.566,6.7074,6.8475,7.0552,7.3399,7.6092,7.8246,8.2208,8.5016,8.544,8.5132,8.4863,8.4863,8.4863,8.4516,8.367,8.2785,8.1939,8.1131,8.1093,8.0285,7.8554,7.8477,7.79,7.6669,7.6207,7.6207,7.663,7.6207,7.6015,7.6015,7.6015,7.6015,7.6053,7.6899,7.7284,7.7438,7.9131,8.0054,8.0477,8.0939,8.1093,8.1131,8.1554,8.2208,8.3054,5.0389,5.084,5.1503,5.2515,5.2502,5.2686,5.3691,5.3754,5.3741,5.3895,5.4818,5.5472,5.5472,5.6472,5.7357,5.7857,5.6703,0.0,5.4192,5.2587,5.0818,4.8933,4.9356,4.9702,4.9894,5.0548,5.1318,5.2154,5.151,5.1433,5.1885,5.1241,5.0933,5.0933,5.0845,5.1421,5.25,5.3985,5.5976,5.8296,6.0773,6.414,6.7936,7.089,7.2387,7.2941,7.3317,7.3064,7.2378,7.1498,6.8331,6.4555,6.3222,5.9796,5.6488,5.7563,5.5625,5.3351,5.4452,5.3472,5.2308,5.301,5.2654,5.2246,0.0,0.0,0.0,5.486,5.6519,5.8258,5.9645,6.0313,6.1684,6.4782,6.8024,7.0382,7.1129,7.6669,8.117,8.2554,8.2939,8.2978,8.2631,8.2901,8.2824,8.2131,8.19,8.1477,8.0631,8.09,8.0285,7.8554,7.8477,7.8015,7.7053,7.6361,7.6361,7.7053,7.6322,7.6015,7.6015,7.6015,7.6015,7.6053,7.6746,7.713,7.74,7.8938,7.9669,7.99,8.0746,8.1093,8.1093,8.1093,8.2054,8.3362,5.1095,5.1169,5.1626,5.3055,5.3274,5.376,5.5209,5.5416,5.5703,5.6483,5.7934,5.8934,5.8934,6.105,6.3358,6.559,6.3024,6.1473,6.1973,5.7703,5.4049,5.1577,5.0894,5.0894,5.1615,5.1692,5.2192,5.3049,5.2972,5.2587,5.1885,5.1808,5.1769,5.1759,5.1385,5.2338,5.422,5.4802,5.7028,6.0374,6.2843,6.4803,6.6723,7.1416,7.2923,7.265,7.3403,7.317,7.2324,7.1235,6.8121,6.4725,6.4705,6.1768,5.8484,5.91,5.7357,5.5299,5.5497,5.4318,5.3087,5.3164,5.3126,5.2976,5.2652,0.0,5.2678,5.2483,0.0,5.4012,5.4201,0.0,0.0,5.8408,6.0985,6.389,6.7218,6.909,7.1283,7.4437,7.8707,8.0785,7.9208,8.0477,8.1323,8.1246,8.0516,7.9708,7.8823,8.0246,8.0285,7.8554,7.8477,7.7746,7.6169,7.6053,7.6053,7.613,7.6053,7.6015,7.6015,7.6015,7.6015,7.6015,7.6092,7.6592,7.7361,7.8284,7.9092,7.99,8.0746,8.1093,8.1093,8.1093,8.167,8.2554,5.114,5.1074,5.1525,5.3119,5.3331,5.3822,5.5455,5.6126,5.6599,5.6945,5.8896,6.0627,6.1589,6.3551,6.6013,6.9052,6.7128,6.5051,6.3423,6.0396,5.6857,5.2818,5.2318,5.2318,5.2654,5.2654,5.3087,5.3933,5.3433,5.328,5.3395,5.2895,5.2654,5.2644,5.2702,5.4065,5.6244,5.6469,5.8356,6.1487,6.3916,6.5341,6.6398,7.0073,7.1637,7.1908,7.2716,7.2789,7.2341,7.1406,6.8766,6.6122,6.7516,6.4752,6.1317,6.3128,6.1093,5.8295,5.8587,5.6541,5.4444,5.4941,5.3773,5.2382,5.2024,5.1503,5.1039,5.0683,0.0,0.0,0.0,0.0,0.0,0.0,5.673,5.8907,5.9983,6.322,6.709,7.1475,7.3476,7.4784,7.5515,7.6669,7.74,7.74,7.7977,7.8169,7.7823,7.94,7.9785,7.8515,7.8477,7.7938,7.6784,7.6245,7.6245,7.6746,7.6245,7.6015,7.6015,7.6015,7.6015,7.6015,7.6015,7.6207,7.663,7.7938,7.8707,7.9169,8.0554,8.1093,8.117,8.1631,8.2324,8.317,5.1002,5.0945,5.1331,5.2738,5.3089,5.3857,5.5742,5.6599,5.7253,5.7945,6.005,6.232,6.4474,6.7282,7.0552,7.4399,7.3399,7.1014,6.7398,6.4474,6.0704,5.5857,5.4511,5.4318,5.528,5.4357,5.4203,5.4818,5.4203,5.4087,5.4472,5.3857,5.3549,5.3577,5.3976,5.5535,5.7868,5.8251,6.0186,6.3138,6.5332,6.626,6.6574,6.9115,7.0587,7.1403,7.2202,7.2349,7.2157,7.1922,7.0078,6.8106,6.9644,6.7554,6.4893,6.6801,6.4974,6.2243,6.1743,5.9286,5.6844,5.6505,5.4349,5.2225,5.1795,5.089,5.0061,4.9965,5.0138,0.0,0.0,0.0,5.0043,5.1591,0.0,5.4714,5.4739,5.8004,6.1965,6.6231,6.7244,6.8898,7.2129,7.2783,7.3168,7.363,7.5053,7.6015,7.6245,7.8284,7.9131,7.853,7.8707,7.8361,7.7323,7.6669,7.6553,7.6938,7.6284,7.6015,7.6015,7.6015,7.6015,7.6015,7.6015,7.6245,7.6784,7.7977,7.8784,7.9361,8.0862,8.1439,8.1516,8.2093,8.3016,8.4055,5.074,5.0795,5.113,5.1828,5.2626,5.4049,5.656,5.6983,5.7907,6.0358,6.2166,6.45,6.7846,7.3437,7.8977,8.4016,8.3632,8.1323,7.713,7.1398,6.6244,6.1985,5.7819,5.7165,6.0473,5.7319,5.5626,5.5665,5.5626,5.5241,5.4511,5.4472,5.4472,5.4462,5.488,5.6415,5.8834,5.9997,6.2573,6.5998,6.7635,6.781,6.7306,6.9336,7.0587,7.1403,7.2202,7.2018,7.1516,7.2807,7.2086,7.0623,7.0353,6.9858,6.9331,6.9106,6.8563,6.7411,6.4434,6.2583,6.0672,5.7258,5.4752,5.3059,5.2654,5.1299,5.0247,5.0681,5.0765,5.0785,5.0785,0.0,0.0,0.0,0.0,0.0,0.0,5.3353,5.3745,5.5951,5.9831,6.432,6.936,6.909,6.9283,7.0898,7.186,7.2745,7.3591,7.6746,7.8515,7.8477,7.9323,7.8977,7.7323,7.7284,7.6861,7.6053,7.6015,7.6015,7.6015,7.6015,7.6015,7.6015,7.6015,7.6899,7.84,7.8477,7.9477,8.1093,8.1939,8.2247,8.2247,8.2285,8.3401,8.4863,5.2367,5.2387,5.2492,5.2713,5.3472,5.4703,5.6714,5.7473,5.9973,6.5897,6.8167,7.1783,7.8592,8.1131,8.3939,8.7863,8.694,8.3593,7.7669,7.4322,7.0206,6.4859,6.1589,6.0742,6.2435,5.9665,5.7665,5.656,5.5972,5.5549,5.528,5.528,5.528,5.5346,5.632,5.7954,6.0021,6.1522,6.3978,6.6928,6.8324,6.9131,6.9409,6.7864,6.7494,6.8084,7.0735,7.1872,7.2231,7.323,7.2711,7.1898,7.3606,7.2633,7.1148,7.232,7.1607,7.0113,6.8497,6.594,6.3285,6.1541,5.8308,5.5434,5.4716,5.331,5.2364,5.3046,5.2747,5.2417,5.2417,0.0,0.0,0.0,0.0,0.0,0.0,5.1202,5.1802,5.3038,5.6472,5.9638,6.1935,6.2897,6.382,6.4974,6.6898,6.8898,7.0898,7.4168,7.6515,7.7669,7.8113,7.8073,7.75,7.7075,7.6746,7.648,7.593,7.5837,7.6182,7.5625,7.5616,7.6015,7.6015,7.663,7.7746,7.8284,7.9169,8.0331,8.128,8.2249,8.3208,8.3824,8.4401,8.4978,5.3733,5.3664,5.3549,5.3241,5.4164,5.5588,5.7588,5.9665,6.3512,7.0552,7.3206,7.7438,8.5401,8.6517,8.7902,9.0979,9.0556,8.6709,7.8707,7.8284,7.5553,6.9283,6.7475,6.6974,6.7821,6.3858,6.0666,5.8369,5.6868,5.5857,5.528,5.528,5.528,5.5308,5.6446,5.7938,5.9793,6.175,6.4454,6.7407,6.8001,6.8929,6.9723,6.6721,6.6275,6.7603,7.0634,7.2239,7.3083,7.4184,7.4261,7.4192,7.5992,7.5199,7.3864,7.5142,7.4598,7.328,7.1729,6.9666,6.7457,6.5668,6.2946,6.0162,5.818,5.6712,5.5574,5.495,5.4399,5.3959,0.0,0.0,0.0,0.0,0.0,0.0,0.0,4.9872,5.0482,5.0967,5.338,5.5558,5.7004,5.8129,5.9369,6.0853,6.3194,6.5667,6.8205,7.1514,7.4284,7.6322,7.6905,7.7322,7.7589,7.7008,7.6701,7.6678,7.6173,7.5955,7.6004,7.5989,7.6053,7.6146,7.6686,7.7361,7.8246,7.8746,7.9477,8.0353,8.1365,8.2528,8.3692,8.4293,8.5074,8.5863,5.4741,5.4587,5.4395,5.3626,5.4741,5.6626,5.9165,6.3166,6.809,7.4284,7.7323,8.1593,8.8556,8.994,9.1325,9.3749,9.4634,9.0864,8.0939,8.3324,8.2131,7.5476,7.5091,7.5399,7.6169,6.9552,6.4436,6.105,5.833,5.6175,5.4549,5.4511,5.4472,5.4472,5.5318,5.6587,5.8244,6.0751,6.4097,6.7642,6.703,6.7581,6.8507,6.6233,6.724,7.004,7.1876,7.3059,7.3986,7.5565,7.6637,7.7273,7.7273,7.7273,7.7273,7.7273,7.7273,7.6764,7.4162,7.3619,7.3006,6.957,6.8291,6.6843,6.2879,6.13,5.9869,5.6859,5.6147,5.5757,5.495,0.0,0.0,0.0,0.0,0.0,4.8864,4.9249,4.9489,4.9489,5.0491,5.2145,5.4661,5.4917,5.596,5.8439,6.0597,6.2923,6.55,6.8821,7.1822,7.4437,7.5608,7.6655,7.7551,7.6982,7.6708,7.6737,7.6699,7.6256,7.5569,7.6916,7.7075,7.6425,7.7818,7.8915,7.9722,7.9722,8.0261,8.1173,8.2149,8.2932,8.3615,8.3907,8.5398,8.7325,5.5703,5.5895,5.6665,5.7703,5.7203,5.7522,6.0089,6.3551,6.936,7.9092,8.3131,8.8402,9.7134,9.7134,9.6788,9.7442,9.6557,9.3518,8.7709,8.7555,8.6094,8.2439,8.0477,7.9246,7.8823,7.2206,6.7359,6.4589,5.9484,5.6445,5.5395,5.478,5.4164,5.3587,5.5049,5.6421,5.7848,6.0985,6.4445,6.7904,6.8773,6.9353,6.9798,7.0442,7.1519,7.279,7.2845,7.3504,7.4519,7.5558,7.6499,7.7273,7.7273,7.7273,7.7273,7.7273,7.7273,7.7298,7.7229,7.636,7.5095,7.3615,7.1801,6.9779,6.754,6.5925,6.5044,6.5411,6.3576,6.1667,6.0823,5.8364,5.539,0.0,0.0,0.0,0.0,4.9249,4.9489,4.9489,4.9529,5.0146,5.1726,5.2451,5.3352,5.4655,5.6671,5.8974,6.1551,6.5179,6.8629,7.1783,7.3116,7.4804,7.6922,7.6487,7.6568,7.7131,7.654,7.6067,7.5745,7.6106,7.6065,7.5792,7.6752,7.7648,7.8369,7.8369,7.9242,8.0618,8.1006,8.2045,8.3464,8.4977,8.5915,8.6351,5.7703,5.7473,5.8204,6.0281,6.1704,6.3281,6.5436,6.7398,7.2206,8.2131,8.6094,9.0402,9.6749,9.825,9.8634,9.825,9.7057,9.4326,8.9671,9.0671,8.9633,8.5593,8.5478,8.4593,8.2593,7.663,7.1591,6.7552,6.1985,5.783,5.5164,5.4318,5.3472,5.2692,5.401,5.5281,5.6678,6.0915,6.4454,6.7353,6.8876,7.0315,0.0,7.2614,7.397,7.5408,7.5394,7.57,7.6155,7.6605,7.7375,7.8136,7.8136,7.8136,7.8136,7.8136,7.8136,7.8165,7.838,7.8034,7.7422,7.6698,7.5763,7.4294,7.1615,7.0293,6.9412,6.8531,6.6916,6.5301,6.4127,6.1263,5.7483,5.2747,0.0,0.0,0.0,5.0449,5.0569,5.0569,5.0098,4.9859,5.023,5.082,5.155,5.243,5.4406,5.6611,5.8967,6.2304,6.5932,6.9858,7.0858,7.2761,7.574,7.5203,7.5506,7.679,7.6313,7.6037,7.5958,7.6584,7.6654,7.6276,7.7325,7.8043,7.8458,7.8458,7.9024,7.9981,8.0793,8.1975,8.335,8.474,8.549,8.5793,6.0165,5.9358,5.9781,6.2435,6.7244,7.1475,7.3822,7.4284,7.7169,8.5016,8.8363,9.0902,9.3249,9.6673,9.8442,9.7596,9.6749,9.4403,8.9979,9.3133,9.2787,8.7517,9.0094,9.0171,8.6824,8.1554,7.6015,7.0206,6.4743,5.9484,5.4472,5.3626,5.2702,5.1769,5.2779,5.4089,5.5922,6.1022,6.4461,6.6628,6.8521,7.0961,7.3538,7.386,7.5438,7.7553,7.8361,7.8443,7.8126,7.8126,7.8587,7.9198,7.9198,7.9198,7.9198,7.9198,7.9198,7.9119,7.8674,7.9034,7.941,7.9,7.927,7.8699,7.5139,7.4258,7.323,6.9963,6.8935,6.8201,6.6843,6.3222,5.8823,5.376,5.2647,5.2631,5.3319,5.2858,5.2491,5.2601,5.1855,0.0,4.9929,4.999,5.0353,5.0931,5.2928,5.5003,5.7082,5.9966,6.3643,6.8227,6.8999,7.1043,7.4499,7.3848,7.4404,7.6206,7.6153,7.6093,7.616,7.7533,7.7727,7.7037,7.8379,7.9037,7.9112,7.9112,7.9239,7.9602,8.1255,8.2376,8.3169,8.3949,8.4606,8.527,6.182,6.205,6.3474,6.6744,7.2091,7.7938,8.3824,8.5363,8.7325,9.1595,9.498,9.748,9.8634,9.8788,9.8442,9.7596,9.6749,9.5942,9.5018,9.5672,9.5288,9.3518,9.4018,9.3056,9.0364,8.3978,7.8092,7.2822,6.5628,5.9484,5.4472,5.3626,5.2395,5.0971,5.251,5.5248,5.8957,6.2733,6.5369,6.7228,7.034,7.2381,7.3745,7.5822,7.7323,7.84,7.9246,7.9229,7.873,7.873,7.8955,7.9198,7.9198,7.9198,7.9198,7.9198,7.9198,7.9326,7.9862,7.9777,7.9632,8.0199,7.9556,7.8626,7.7892,7.7194,7.6864,7.7524,7.5542,7.356,7.3266,6.6519,6.0329,5.8286,5.6055,5.6051,6.0307,5.7483,5.5207,5.5868,5.5024,5.3479,5.1322,5.0194,4.9415,4.888,5.0784,5.2704,5.4455,5.791,6.1764,6.6012,6.8338,7.107,7.4222,7.4502,7.5391,7.6837,7.6354,7.6093,7.613,7.7022,7.7038,7.6302,7.726,7.8057,7.8721,7.8721,7.9496,8.0849,8.235,8.2705,8.2508,8.3885,8.4072,8.3835,6.5436,6.6051,6.7975,7.2283,7.7938,8.417,9.0979,9.421,9.5057,9.271,9.3826,9.4672,9.4249,9.6519,9.7788,9.6942,9.6519,9.6288,9.6288,9.6288,9.5711,9.4364,9.4749,9.3595,9.0594,8.6478,8.1016,7.413,6.8244,6.1858,5.5088,5.428,5.2972,5.1433,5.401,5.7511,6.1666,6.4628,6.7667,7.0591,7.2668,7.4343,7.5748,7.6973,7.7753,7.8294,7.9171,7.9495,7.9591,7.9925,8.0121,8.0201,8.0201,8.0201,8.0201,8.0201,8.0201,8.0162,8.022,8.003,7.9736,7.9514,7.8963,7.8367,7.8021,7.7598,7.753,7.8332,7.7598,7.6313,7.4588,6.8589,6.3442,6.1973,5.955,5.9013,6.2316,6.119,6.0126,6.0529,5.8042,5.5806,5.4633,5.1858,4.9975,4.9637,5.0683,5.2206,5.4095,5.706,6.0679,6.5057,6.7262,6.999,7.3278,7.3818,7.5107,7.7148,7.6457,7.6754,7.8002,7.8002,7.7781,7.7451,7.8259,7.8589,7.8626,7.9029,7.991,8.108,8.1785,8.2097,8.2361,8.3482,8.394,8.4162,6.986,7.0437,7.2591,7.8438,8.3747,8.9363,9.5826,10.0096,10.0519,9.4672,9.3749,9.2903,9.1056,9.498,9.7365,9.6403,9.6288,9.6288,9.6288,9.6288,9.5595,9.4018,9.4788,9.3749,9.0517,8.8632,8.367,7.5515,7.0744,6.432,5.6472,5.5126,5.4164,5.3654,5.6511,6.0358,6.482,6.7398,7.0629,7.4077,7.4758,7.5978,7.736,7.7398,7.7493,7.7779,7.8821,7.9513,7.9969,8.0537,8.0871,8.1093,8.1093,8.1093,8.1077,8.0943,8.0871,8.075,8.0105,7.9827,7.9529,7.876,7.8322,7.8034,7.7867,7.7677,7.764,7.8007,7.8626,7.8038,7.4588,7.0809,6.7542,6.558,6.3775,6.3186,6.4781,6.5379,6.5448,6.4934,6.1308,5.8398,5.7238,5.3903,5.1609,5.1197,5.1253,5.2186,5.4246,5.6614,5.9952,6.4421,6.6304,6.9001,7.2539,7.3273,7.4857,7.7222,7.6631,7.7488,7.9507,7.8883,7.8699,7.8883,7.9507,7.9543,7.9176,8.0167,8.0938,8.1525,8.1709,8.215,8.281,8.3618,8.4315,8.4976,7.4668,7.4707,7.6823,8.5016,8.8825,9.2518,9.775,10.0904,10.2597,10.2712,10.202,10.0596,9.8134,9.8365,9.8057,9.6442,9.6288,9.6288,9.6288,9.6288,9.5865,9.4903,9.5711,9.4941,9.2326,8.9825,8.5132,7.813,7.1591,6.5243,5.9088,5.5972,5.6011,5.8858,5.9935,6.3666,6.9283,7.1822,7.4014,7.5793,7.6101,7.6348,7.6541,7.6727,7.6828,7.7025,7.8632,7.9244,7.929,7.9358,8.0163,8.1093,8.1093,8.1093,8.0975,8.037,8.0182,8.0086,7.9447,7.8902,7.8618,7.923,7.8372,7.78,7.9244,7.8993,7.8883,8.0351,8.0718,7.9543,7.5542,7.4201,7.2663,6.9571,6.9496,7.0387,7.1995,7.1286,6.9816,6.7614,6.5098,6.1653,5.6756,5.5674,5.4438,5.2577,5.1716,5.2064,5.3758,5.6215,5.9434,6.3571,6.5984,6.9047,7.2823,7.4125,7.5547,7.703,7.7127,7.7745,7.8699,7.8626,7.8993,7.969,7.9764,8.0167,8.0901,8.2443,8.3141,8.3251,8.3985,8.4315,8.4462,8.527,8.56,8.5783,8.1054,8.1439,8.3593,9.0056,9.2903,9.598,10.1096,10.2289,10.2712,10.3097,10.1481,9.9558,9.7519,9.7288,9.7019,9.6365,9.6288,9.6288,9.6288,9.6288,9.5672,9.4287,9.5057,9.4095,9.1018,8.994,8.6094,7.9285,7.3514,6.7898,6.2474,5.9088,5.9588,6.3435,6.5282,6.859,7.286,7.4899,7.6438,7.75,7.7614,7.7242,7.6596,7.6661,7.6554,7.6429,7.7087,7.7904,7.8578,7.8116,7.9091,8.0499,8.0499,8.0499,8.0463,8.0182,7.9847,7.9513,7.9267,7.901,7.8829,7.8789,7.8722,7.8713,7.9007,7.8809,7.8772,7.9433,7.9947,7.991,7.8772,7.6854,7.5158,7.4347,7.3305,7.2936,7.4052,7.3779,7.2491,6.9884,6.5911,6.2408,5.9834,5.6758,5.4917,5.484,5.3561,5.3293,5.445,5.6387,5.9244,6.3156,6.5561,6.8803,7.3103,7.4792,7.6905,7.9386,7.9001,7.9507,8.0718,8.0241,8.0461,8.1195,8.0718,8.0975,8.1819,8.2957,8.3398,8.3508,8.4278,8.4609,8.4682,8.549,8.5783,8.593,8.6517,8.6824,8.8632,9.421,9.6019,9.8211,10.2789,10.2981,10.2404,10.1904,10.0096,9.825,9.6826,9.6634,9.6557,9.6326,9.6288,9.6288,9.6288,9.6288,9.5518,9.3787,9.4518,9.3403,8.9979,8.9902,8.7094,8.1285,7.6207,7.1591,6.7475,6.382,6.4282,6.8205,7.0244,7.3053,7.6322,7.7784,7.8592,7.8861,7.843,7.7604,7.6587,7.6391,7.6219,7.6014,7.6272,7.7023,7.7835,7.7266,7.8276,7.9782,8.0048,8.0125,8.0086,7.9888,7.9403,7.8889,7.8691,7.8616,7.8551,7.8118,7.8647,7.9171,7.897,7.914,7.936,7.9617,8.0094,8.0608,8.0938,7.9103,7.7292,7.6589,7.5919,7.5235,7.4491,7.5081,7.4241,7.0536,6.6244,6.2877,6.1036,5.7534,5.5632,5.6247,5.5738,5.5455,5.5531,5.7088,5.9514,6.2766,6.513,6.8479,7.2892,7.5019,7.7524,8.0277,8.0204,8.0755,8.1819,8.1489,8.1782,8.2517,8.1966,8.215,8.2957,8.3765,8.4132,8.4205,8.5013,8.5306,8.5416,8.6224,8.6371,8.6297,9.0287,8.9787,9.0787,9.7557,9.8057,9.8634,10.2097,10.2597,10.1981,10.0289,9.9327,9.8442,9.7596,9.748,9.7173,9.6365,9.6288,9.6288,9.6288,9.6288,9.5518,9.3787,9.4518,9.3403,8.9979,8.9902,8.8248,8.4863,7.9746,7.6322,7.4476,7.0269,7.0129,7.3437,7.4284,7.6553,7.9823,8.0669,8.0554,7.9677,7.8247,7.7169,7.6332,7.5755,7.5614,7.5909,7.6702,7.7,7.7026,7.7026,7.7852,7.9057,7.9858,8.0125,7.9969,7.938,7.8804,7.8173,7.751,7.7304,7.7304,7.7304,7.7965,7.884,7.958,8.0388,8.1195,8.2003,8.215,8.1929,8.1158,8.0975,7.951,7.516,7.74,7.8179,7.3824,7.5564,7.5058,6.9039,6.6544,6.3528,5.9065,5.7947,5.7109,5.6235,5.8072,5.853,5.6962,5.8467,6.0285,6.2332,6.4756,6.7983,7.2062,7.4761,7.6937,7.8662,8.0241,8.1012,8.1048,8.1819,8.2627,8.3398,8.3398,8.3838,8.4646,8.5416,8.5747,8.5857,8.6664,8.6995,8.7068,8.7876,8.7655,8.7215,9.3518,9.3364,9.4018,9.7326,9.8173,9.9135,10.1404,10.1712,10.1289,10.0212,9.9327,9.825,9.6826,9.6673,9.6596,9.6326,9.6288,9.6288,9.6288,9.6288,9.5788,9.4634,9.4287,9.3056,9.0825,8.9671,8.7979,8.5709,8.1208,7.7515,7.4707,7.4553,7.5668,7.7823,7.8669,7.9977,8.1516,8.1785,8.1093,7.9692,7.8644,7.7492,7.6369,7.6141,7.6187,7.6423,7.6686,7.7512,7.8326,7.7174,7.8101,7.9667,7.9362,7.9371,7.9447,7.9267,7.8447,7.768,7.8063,7.8185,7.8332,7.8883,7.9617,8.0314,8.0571,8.0828,8.0938,8.0608,8.0534,8.0645,8.0938,8.1012,8.0677,7.9688,8.0477,8.0293,7.7591,7.6031,7.3494,6.9091,6.4969,6.2458,6.2426,6.1468,6.0849,6.0848,6.3347,6.2769,5.798,6.004,6.2337,6.4434,6.7319,7.0402,7.371,7.642,7.8626,8.0241,8.1305,8.1819,8.1819,8.2076,8.2627,8.3398,8.3398,8.3875,8.4646,8.5453,8.5783,8.5857,8.6701,8.6995,8.7105,8.7912,8.8059,8.7986,9.5557,9.5711,9.6172,9.6903,9.775,9.875,10.0212,10.0404,10.0212,9.9673,9.8865,9.7788,9.6442,9.6288,9.6288,9.6288,9.6288,9.6288,9.6288,9.6288,9.5749,9.4557,9.398,9.2749,9.0748,8.971,8.8325,8.6594,8.3632,8.0592,7.7592,7.9015,7.99,8.0323,8.117,8.1823,8.2285,8.2285,8.1516,8.0208,7.9323,7.8244,7.7169,7.7134,7.7303,7.7527,7.7527,7.8209,7.8929,7.7868,7.8616,7.9907,7.941,7.9361,7.9535,7.9535,7.8866,7.8271,7.8788,7.8983,7.9176,7.9653,8.0388,8.1158,8.1782,8.1672,8.1475,8.1532,8.1262,8.1236,8.1615,8.171,8.1743,8.1805,8.1559,8.0353,7.7589,7.5449,7.2239,6.7125,6.485,6.3896,6.4336,6.4516,6.4665,6.4747,6.7069,6.6345,6.15,6.328,6.5319,6.7195,6.9964,7.2769,7.5523,7.7885,7.969,8.1012,8.2113,8.281,8.3104,8.3104,8.3544,8.4315,8.4315,8.4756,8.5563,8.604,8.6261,8.6297,8.6811,8.6995,8.7142,8.8243,8.8463,8.839,9.6442,9.6903,9.7173,9.6442,9.6903,9.7711,9.8673,9.875,9.8711,9.8788,9.8057,9.7211,9.6403,9.6288,9.6288,9.6288,9.6288,9.6288,9.6288,9.6288,9.5595,9.3941,9.3826,9.2633,9.021,9.0056,8.9133,8.7401,8.6517,8.4901,8.2593,8.3324,8.2862,8.14,8.2093,8.2401,8.2401,8.2324,8.1862,8.1093,8.0169,7.9323,7.8592,7.8515,7.87,7.8961,7.8961,7.8999,7.9038,7.8999,7.9365,7.99,7.9823,7.9991,8.024,8.0125,7.9834,7.9481,7.9593,7.9763,7.9895,8.0005,8.0593,8.1585,8.3096,8.2867,8.275,8.4182,8.3797,8.3124,8.2911,8.2858,8.2556,8.1821,8.0754,7.8655,7.4617,7.3959,7.1258,6.4143,6.6063,6.7251,6.5434,6.7216,6.8346,6.8015,6.9495,6.9384,6.7006,6.8002,6.9131,7.0239,7.2716,7.5102,7.7347,7.9103,8.0388,8.1269,8.2737,8.3838,8.4609,8.4609,8.5049,8.5783,8.5783,8.6261,8.6995,8.6995,8.6995,8.6995,8.6995,8.6995,8.7215,8.8795,8.894,8.861,9.6326,9.6442,9.6519,9.6326,9.648,9.7096,9.8557,9.825,9.8057,9.8711,9.8057,9.7211,9.6403,9.6288,9.6288,9.6288,9.6288,9.6288,9.6288,9.6288,9.6134,9.5711,9.5057,9.4095,9.2826,9.1556,8.9748,8.7401,8.6517,8.5786,8.5209,8.4786,8.4401,8.3978,8.3516,8.3285,8.3247,8.2593,8.217,8.19,8.04,7.9669,7.9438,7.8746,7.8954,7.9588,7.9588,8.001,8.0487,7.9818,8.0129,8.0669,8.0015,8.0722,8.1572,8.043,7.9708,7.955,8.0805,8.0816,8.0782,8.2074,8.2556,8.2928,8.393,8.3947,8.4035,8.5007,8.4016,8.295,8.2896,8.2405,8.183,8.144,7.8534,7.5647,7.3877,7.1972,6.9866,6.7376,6.7926,6.9171,7.0815,7.0456,7.0362,7.0876,7.2473,7.2648,7.0728,7.329,7.3978,7.201,7.5506,7.7708,7.8295,8.0498,8.2333,8.3728,8.3508,8.3838,8.4609,8.4609,8.5049,8.5783,8.5783,8.6261,8.6995,8.6995,8.6995,8.6995,8.6995,8.6995,8.7215,8.8795,8.9307,8.9381,9.7096,9.7173,9.7211,9.6442,9.6288,9.6596,9.7519,9.725,9.7134,9.7596,9.725,9.6788,9.6365,9.6288,9.6288,9.6288,9.6288,9.6288,9.6288,9.6288,9.6134,9.5711,9.5249,9.4595,9.371,9.2441,9.0556,8.7979,8.7517,8.6709,8.5555,8.5478,8.5055,8.4286,8.3824,8.3824,8.4093,8.2824,8.2516,8.2747,8.1054,8.04,8.0323,7.9862,7.9977,8.0439,8.0823,8.1246,8.1631,8.1554,8.1862,8.217,8.1708,8.217,8.2737,8.1925,8.1536,8.1556,8.2466,8.2532,8.2601,8.3902,8.4202,8.4502,8.5729,8.5647,8.5682,8.6937,8.5842,8.4742,8.5035,8.3791,8.2643,8.2393,7.847,7.4992,7.3664,7.1975,7.0459,6.9366,7.1319,7.3325,7.4685,7.5146,7.5028,7.4422,7.5957,7.5994,7.3942,7.7361,7.8286,7.5939,7.8699,8.0608,8.1342,8.2627,8.3911,8.5159,8.5086,8.549,8.6261,8.6261,8.6481,8.6885,8.6518,8.6591,8.6995,8.6995,8.6995,8.7031,8.7399,8.7545,8.7766,8.9381,8.9968,9.0152,9.775,9.7904,9.798,9.6557,9.6288,9.6288,9.6288,9.6288,9.6288,9.6288,9.6288,9.6288,9.6288,9.6288,9.6288,9.6288,9.6288,9.6288,9.6288,9.6288,9.598,9.5211,9.5211,9.4788,9.3903,9.2864,9.1133,8.8709,8.8556,8.7325,8.5093,8.5786,8.5286,8.3785,8.3785,8.4209,8.4786,8.3054,8.2785,8.3439,8.1785,8.1093,8.1093,8.1093,8.117,8.1362,8.2054,8.2362,8.2593,8.3362,8.3516,8.3401,8.3401,8.3478,8.3593,8.3593,8.3898,8.4211,8.4097,8.4312,8.4665,8.5247,8.5561,8.6188,8.7936,8.7653,8.7585,8.9414,8.8382,8.7254,8.7679,8.5754,8.3811,8.3031,7.8676,7.4784,7.2976,7.2437,7.1876,7.0981,7.5297,7.8259,7.8003,7.9711,8.0003,7.8174,7.914,7.9029,7.7304,8.0498,8.1819,8.0534,8.1856,8.3287,8.4756,8.4646,8.5049,8.5967,8.6664,8.7435,8.8206,8.8316,8.8316,8.8169,8.7472,8.7105,8.7031,8.7142,8.7178,8.7252,8.8059,8.839,8.8573,9.0041,9.0592,9.0739,9.6557,9.6596,9.6596,9.6365,9.6288,9.6288,9.6288,9.6288,9.6288,9.6288,9.6288,9.6288,9.6288,9.6288,9.6288,9.6288,9.6288,9.6288,9.6288,9.6288,9.6249,9.6095,9.6095,9.5672,9.4826,9.2556,9.0517,8.8709,8.794,8.7017,8.594,8.6055,8.5593,8.4709,8.4709,8.4786,8.4786,8.3054,8.2785,8.3439,8.1785,8.1093,8.1093,8.1093,8.1516,8.2131,8.2247,8.2747,8.3401,8.3555,8.3093,8.2516,8.2516,8.3016,8.3593,8.3593,8.4621,8.5608,8.4955,8.5399,8.5953,8.5496,8.6388,8.7832,8.9726,8.9382,8.9395,9.2021,9.0645,8.8798,8.8165,8.6376,8.3832,8.0222,7.5787,7.1937,6.9552,7.0937,7.2654,7.3865,7.8703,8.1922,8.2004,8.1275,8.0959,8.1406,8.0424,8.0498,8.2186,8.2884,8.3434,8.3838,8.4095,8.4682,8.56,8.4939,8.5343,8.6811,8.6958,8.7435,8.8206,8.8904,8.8867,8.8206,8.8059,8.7619,8.7068,8.7729,8.8023,8.8096,8.8904,8.9234,8.9344,9.0262,9.0592,9.0739,9.7057,9.6942,9.6826,9.6365,9.6288,9.6134,9.5672,9.6019,9.6134,9.5672,9.6403,9.6788,9.6365,9.6673,9.6788,9.6326,9.6288,9.6288,9.6288,9.6288,9.6288,9.6288,9.6288,9.5521,9.3787,9.2967,9.1315,8.8806,8.8318,8.7632,8.6786,8.6324,8.5901,8.5517,8.5093,8.4901,8.4824,8.3555,8.3208,8.3478,8.2247,8.1747,8.1747,8.1747,8.1977,8.2477,8.3862,8.4593,8.5093,8.6017,8.5747,8.5055,8.5055,8.5016,8.4939,8.4939,8.5478,8.6132,8.6209,8.6248,8.6489,8.7554,8.8019,8.8725,9.0644,9.1072,9.1366,9.2455,9.1736,9.0645,8.9826,8.7429,8.4574,8.143,7.6968,7.3749,7.3388,7.3971,7.5696,7.925,8.2211,8.4242,8.4819,8.3586,8.2787,8.2839,8.215,8.2223,8.3361,8.4242,8.4866,8.5233,8.5673,8.6077,8.6444,8.6518,8.6921,8.7655,8.8536,8.9124,8.9528,8.9895,8.9858,8.9491,8.905,8.839,8.7729,8.85,8.861,8.8316,8.9564,9.0078,9.0152,9.0959,9.1253,9.1289,9.7634,9.7519,9.7326,9.6673,9.6442,9.6019,9.5134,9.5557,9.5672,9.4788,9.598,9.6673,9.6057,9.6749,9.698,9.6365,9.6288,9.6288,9.6288,9.6136,9.6117,9.6288,9.6136,9.4916,9.2512,9.3075,9.1968,8.8913,8.8939,8.844,8.7401,8.6709,8.6286,8.6055,8.544,8.517,8.5132,8.4055,8.3593,8.3516,8.2631,8.217,8.2054,8.2247,8.2439,8.2862,8.5055,8.6055,8.6632,8.8171,8.8132,8.7401,8.7401,8.694,8.6401,8.6401,8.6555,8.6748,8.7017,8.6901,8.7171,8.9133,8.944,8.9789,9.1666,9.2599,9.3108,9.3098,9.2958,9.2498,9.1549,8.9001,8.6161,8.3308,7.9617,7.7221,7.7623,7.756,7.9083,8.337,8.4912,8.5969,8.682,8.5869,8.4942,8.4272,8.4058,8.4058,8.4242,8.5416,8.6077,8.6077,8.6848,8.7288,8.7288,8.8096,8.85,8.85,8.9931,9.0592,9.0629,9.0812,9.0776,9.0592,8.9968,8.9234,8.8536,8.9381,8.9344,8.8904,9.0335,9.0886,9.0959,9.1583,9.1803,9.1803,9.7519,9.7519,9.748,9.7403,9.6788,9.6019,9.5134,9.5057,9.4788,9.3903,9.4595,9.5134,9.5095,9.5865,9.6365,9.6326,9.6288,9.6288,9.6288,9.5678,9.5576,9.6269,9.5657,9.414,9.1718,9.2342,9.1435,8.8913,8.9496,8.8979,8.7401,8.7325,8.6863,8.6094,8.6055,8.6017,8.5901,8.4286,8.3593,8.3516,8.2631,8.1862,8.1285,8.2016,8.2785,8.3632,8.4632,8.5978,8.744,8.8363,8.8132,8.7401,8.7401,8.7363,8.7286,8.7286,8.7863,8.8171,8.6632,8.7325,8.8556,8.8748,8.9902,9.1523,9.346,9.3955,9.4339,9.5555,9.5183,9.4157,9.2731,9.146,8.899,8.4068,8.2803,8.1375,7.8299,7.968,8.174,8.3665,8.5868,8.7351,8.7651,8.7674,8.738,8.6801,8.604,8.5967,8.6701,8.6848,8.6921,8.6921,8.7692,8.8096,8.8096,8.894,8.9344,8.9308,9.0188,9.0592,9.0629,9.1363,9.1289,9.0592,9.0555,9.0078,8.9381,9.0188,9.0482,9.0519,9.1363,9.1693,9.173,9.1767,9.1803,9.1803,9.6749,9.6749,9.6749,9.6749,9.6519,9.6172,9.5865,9.5826,9.5672,9.5365,9.6057,9.6365,9.5865,9.6557,9.6655,9.5717,9.5598,9.5407,9.4963,9.4655,9.463,9.4915,9.4693,9.3391,9.0967,9.1627,9.0814,8.8404,8.8539,8.851,8.8307,8.6833,8.6428,8.6846,8.5376,8.4972,8.5286,8.4093,8.3901,8.4286,8.2862,8.2747,8.3439,8.3208,8.3632,8.4593,8.5978,8.7209,8.8291,8.8654,8.8594,8.8307,8.8307,8.7982,8.7619,8.8046,8.8786,8.921,8.8017,8.8209,8.9056,9.0671,9.1133,9.1831,9.4297,9.4884,9.5092,9.5703,9.5699,9.5274,9.4178,9.287,9.0959,8.7762,8.6302,8.5058,8.3633,8.4492,8.6133,8.8352,8.8902,8.935,8.9976,8.8376,8.7383,8.7672,8.6524,8.6151,8.6958,8.6995,8.6995,8.6995,8.7766,8.8206,8.8206,8.9014,8.9674,9.0152,9.0959,9.1326,9.1363,9.1657,9.162,9.1326,9.1326,9.0886,9.0225,9.1033,9.1069,9.0702,9.1473,9.1803,9.1803,9.1803,9.1803,9.173,9.6673,9.6673,9.6673,9.6673,9.648,9.6288,9.6288,9.6057,9.5903,9.5903,9.6365,9.6424,9.5635,9.6268,9.6253,9.4991,9.4842,9.463,9.413,9.3878,9.3764,9.3764,9.3764,9.2593,9.0216,9.0879,9.0209,8.8107,8.8183,8.8305,8.8509,8.6641,8.6237,8.6964,8.5091,8.4806,8.5593,8.4478,8.4362,8.4786,8.3593,8.367,8.4478,8.4401,8.4747,8.5478,8.6901,8.7816,8.8403,8.8773,8.8956,8.9049,8.9517,8.9634,8.9571,8.9814,9.0287,9.0556,8.971,8.9671,9.0248,9.171,9.2056,9.2605,9.5045,9.605,9.644,9.6415,9.6545,9.6334,9.5297,9.425,9.2876,9.074,8.9381,8.8475,8.8031,8.8312,8.9178,9.0919,9.0713,9.0576,9.0939,8.9159,8.8143,8.8435,8.728,8.6775,8.7362,8.7399,8.7399,8.7399,8.7912,8.8206,8.8206,8.9271,9.0078,9.0629,9.1436,9.1803,9.1803,9.1803,9.1803,9.1803,9.1803,9.1473,9.1033,9.1583,9.1473,9.1033,9.1583,9.1803,9.1803,9.1803,9.1657,9.1326,9.748,9.748,9.748,9.748,9.6826,9.6288,9.6288,9.5557,9.498,9.5018,9.498,9.4715,9.3975,9.4693,9.4891,9.4157,9.4102,9.4102,9.4102,9.3417,9.2987,9.2987,9.2987,9.1857,8.9454,9.0123,8.9715,8.8076,8.8746,8.8643,8.7787,8.6983,8.6497,8.6261,8.5443,8.5954,8.7286,8.5632,8.4901,8.4939,8.4901,8.4401,8.3824,8.5478,8.6094,8.6247,8.7094,8.7504,8.7731,8.8608,8.9,8.9376,9.0928,9.2465,9.3557,9.2749,9.2518,9.2326,9.1441,9.1864,9.2287,9.1441,9.2479,9.4172,9.5942,9.7596,9.861,9.8036,9.7891,9.7458,9.5972,9.5719,9.4902,9.2325,9.1926,9.1615,9.075,9.0446,9.0327,9.0352,9.0844,9.0934,9.0198,9.022,9.0032,8.9353,8.8642,8.8206,8.8206,8.8206,8.8206,8.8206,8.8206,8.8206,8.8206,8.9784,9.0592,9.0629,9.1436,9.1803,9.1803,9.1803,9.1803,9.1803,9.1803,9.1803,9.1803,9.1803,9.1803,9.1803,9.1803,9.1803,9.1803,9.1803,9.1289,9.0592,9.6673,9.6673,9.6673,9.6673,9.648,9.6288,9.6288,9.5557,9.5211,9.5826,9.4921,9.4398,9.4792,9.4046,9.3477,9.3312,9.2765,9.2443,9.2458,9.2262,9.2159,9.2159,9.1606,9.0692,8.9454,8.9038,8.8398,8.7328,8.7554,8.7744,8.7985,8.6635,8.6217,8.6487,8.5655,8.5507,8.5762,8.5151,8.5593,8.6555,8.5363,8.5824,8.7171,8.7055,8.7401,8.7906,8.7619,8.7954,8.84,8.7671,8.8232,8.9515,9.1038,9.2176,9.311,9.4003,9.3826,9.3287,9.3018,9.3133,9.3287,9.3018,9.4249,9.598,9.7673,9.8442,9.8749,9.8587,9.8199,9.7584,9.6527,9.6493,9.5952,9.3968,9.4041,9.3853,9.2488,9.3042,9.3628,9.3715,9.3274,9.2891,9.2793,9.0751,8.9403,8.9323,8.8609,8.8206,8.8206,8.8757,8.905,8.905,8.905,8.8793,8.8206,8.9234,9.0041,9.0629,9.1436,9.1803,9.1803,9.1803,9.1803,9.1803,9.1803,9.1803,9.1803,9.1803,9.1803,9.1803,9.1803,9.1803,9.1803,9.1803,9.1289,9.0519,9.6288,9.6288,9.6288,9.6288,9.6288,9.6288,9.6288,9.5865,9.5598,9.5826,9.5031,9.4392,9.436,9.3747,9.3132,9.2599,9.2017,9.1742,9.1803,9.1803,9.1803,9.1803,9.1033,9.0225,8.9419,8.894,8.828,8.7472,8.7178,8.7378,8.8127,8.6531,8.6132,8.6664,8.5762,8.565,8.6057,8.558,8.5978,8.6786,8.5786,8.6517,8.8115,8.7653,8.8039,8.8654,8.7944,8.7857,8.7928,8.7105,8.8114,9.0086,9.1987,9.3277,9.4348,9.5598,9.5403,9.4711,9.4711,9.448,9.4287,9.4634,9.5518,9.6634,9.798,9.8557,9.8615,9.7994,9.7539,9.6957,9.5809,9.5742,9.5373,9.3985,9.3841,9.3543,9.2584,9.2869,9.3311,9.3739,9.2954,9.2548,9.2955,9.0669,8.9091,8.8896,8.8443,8.8353,8.8683,8.9454,8.9895,8.9895,9.0172,8.9801,8.8683,8.947,8.9915,9.0152,9.0629,9.1179,9.1803,9.1473,9.151,9.1803,9.1803,9.1803,9.1803,9.1803,9.162,9.1363,9.1693,9.162,9.1363,9.1693,9.1106,9.0078,9.6288,9.6288,9.6288,9.6211,9.6249,9.6288,9.6211,9.6135,9.5865,9.5143,9.4905,9.4249,9.2916,9.3337,9.3196,9.1803,9.1767,9.1803,9.1803,9.1803,9.1803,9.1803,9.1106,9.0335,8.9492,8.9381,8.8904,8.8096,8.7362,8.7362,8.8059,8.6591,8.6185,8.6683,8.5864,8.6232,8.7366,8.6484,8.6132,8.6209,8.6236,8.6757,8.755,8.7687,8.8238,8.8797,8.8004,8.7314,8.6817,8.6801,8.8462,9.0937,9.337,9.5123,9.647,9.7442,9.7096,9.6403,9.6403,9.5788,9.5288,9.5924,9.6136,9.6424,9.7308,9.8096,9.8247,9.6738,9.6348,9.5866,9.4389,9.4102,9.38,9.283,9.2216,9.1698,9.1418,9.0944,9.0819,9.1418,9.0831,9.0706,9.1531,9.0258,8.9118,8.8386,8.839,8.872,8.9455,9.0298,9.0702,9.0702,9.1416,9.1074,8.9597,9.0258,9.0226,8.9492,8.9492,9.0298,9.1657,9.0922,9.0996,9.1693,9.1693,9.173,9.1803,9.1803,9.1363,9.0776,9.1436,9.1253,9.0702,9.1436,9.0739,8.9382,9.6288,9.6288,9.6095,9.5403,9.5865,9.6057,9.5403,9.4786,9.4354,9.4204,9.2625,9.141,9.1075,9.0657,9.0548,9.0812,9.1436,9.1803,9.1803,9.1803,9.1803,9.1803,9.162,9.1179,9.0372,8.9124,8.8059,8.7252,8.7105,8.7105,8.7252,8.6921,8.6473,8.6008,8.6246,8.6191,8.5882,8.603,8.6478,8.7137,8.7236,8.7804,8.8582,8.8701,8.8873,8.8873,8.7548,8.6988,8.6899,8.6947,8.8544,9.0913,9.3342,9.4744,9.6012,9.8729,9.8442,9.725,9.725,9.6634,9.5771,9.4696,9.4911,9.5806,9.7193,9.7741,9.7662,9.6608,9.5945,9.5226,9.4281,9.4102,9.3612,9.2102,9.2819,9.2664,9.0146,9.1217,9.1911,9.0857,9.0531,9.0744,9.1612,9.0831,8.9996,8.9197,8.9748,9.0152,9.0335,9.1106,9.1546,9.1546,9.2306,9.2221,9.1209,9.1365,9.1079,9.0335,9.0335,9.0519,9.0849,9.0702,9.0702,9.0849,9.0849,9.1216,9.1803,9.1803,9.1693,9.1473,9.1033,9.0739,9.0629,9.0812,9.0262,8.9344,9.6288,9.6288,9.6172,9.5711,9.6019,9.6021,9.5228,9.478,9.4292,9.3547,9.2054,9.0966,9.0613,9.0545,9.0886,9.173,9.1803,9.1983,9.2331,9.2019,9.1983,9.2365,9.2019,9.1436,9.0629,8.9784,8.894,8.8169,8.7399,8.7215,8.7582,8.7178,8.6775,8.6402,8.6609,8.6452,8.6046,8.5857,8.6247,8.6989,8.6685,8.7269,8.8374,8.8103,8.8242,8.8457,8.7347,8.6957,8.7068,8.7817,8.9145,9.0968,9.3751,9.5143,9.6279,9.8768,9.8519,9.75,9.757,9.6682,9.5576,9.479,9.4617,9.4907,9.5699,9.5952,9.5755,9.4918,9.4452,9.3957,9.3152,9.3014,9.2715,9.1858,9.2119,9.1849,9.0136,9.0308,9.0435,9.0021,8.9633,8.969,9.0506,9.025,8.9858,8.9419,9.0152,9.0592,9.0592,9.1717,9.2365,9.2365,9.347,9.3653,9.2825,9.2413,9.2057,9.1737,9.0585,9.0445,9.1179,9.0776,9.0592,9.0592,9.0592,9.0629,9.0702,9.1069,9.0776,9.0115,9.0482,9.0152,8.9491,8.9895,8.9528,8.872,9.6288,9.6288,9.6211,9.5903,9.598,9.5771,9.4898,9.4791,9.4262,9.276,9.1817,9.0976,9.0076,9.0849,9.1803,9.2794,9.2207,9.2089,9.2765,9.2194,9.2089,9.2765,9.2159,9.1473,9.0812,9.0665,9.0225,8.9382,8.7949,8.7545,8.8169,8.7399,8.6995,8.6993,8.6857,8.678,8.6728,8.5955,8.5927,8.6354,8.5811,8.635,8.74,8.6974,8.7267,8.7799,8.7084,8.7061,8.759,8.8865,9.0087,9.1591,9.45,9.5967,9.691,9.8557,9.8519,9.7865,9.7547,9.647,9.5329,9.4987,9.4425,9.3878,9.3764,9.3821,9.3735,9.3146,9.2891,9.2566,9.1912,9.1803,9.173,9.162,9.1143,9.0665,9.0262,8.916,8.861,8.916,8.8867,8.8867,8.9564,8.9748,8.9821,8.9821,9.0445,9.0812,9.0812,9.2064,9.2863,9.2987,9.4184,9.4579,9.4102,9.3275,9.2876,9.2987,9.0829,9.0445,9.1583,9.0922,9.0592,9.0592,9.0445,9.0115,8.9674,9.0188,8.9601,8.8536,8.9711,8.9381,8.828,8.8977,8.8793,8.8096,9.6288,9.6288,9.5826,9.4326,9.4672,9.4657,9.318,9.3049,9.2579,9.1056,9.018,8.9154,8.7655,8.883,9.0335,9.184,9.1877,9.1876,9.1947,9.1839,9.1876,9.1947,9.1839,9.173,9.1657,9.0959,9.0225,8.9382,8.85,8.8096,8.8169,8.7399,8.6995,8.6993,8.6857,8.6817,8.6803,8.6556,8.609,8.5612,8.6359,8.6325,8.5976,8.6726,8.7056,8.7056,8.6221,8.7276,8.9001,8.915,9.1105,9.3773,9.5723,9.6789,9.7693,9.9423,9.9827,9.9268,9.7165,9.6432,9.5765,9.377,9.3252,9.2955,9.2262,9.2666,9.3146,9.3019,9.2468,9.1912,9.184,9.1803,9.1583,9.0886,9.1253,9.0922,8.883,8.894,8.905,8.8426,8.9491,9.0335,9.0445,9.1069,9.1473,9.1473,9.1583,9.1657,9.1657,9.1875,9.2262,9.2955,9.3171,9.3567,9.4102,9.3328,9.3002,9.2987,9.1973,9.1216,9.0776,9.0665,9.0592,9.0555,8.9858,8.9931,9.0408,8.9821,8.9419,8.9197,8.872,8.839,8.8206,8.8316,8.828,8.8169,9.548,9.5172,9.4595,9.3826,9.4018,9.3754,9.2261,9.2477,9.2108,9.0132,8.959,8.9125,8.8426,8.9381,9.0555,9.1693,9.1803,9.1983,9.2468,9.2018,9.2019,9.2468,9.2018,9.1803,9.1803,9.1436,9.1106,9.0739,8.9491,8.8867,8.8867,8.8536,8.8096,8.7655,8.759,8.7313,8.6865,8.6357,8.6213,8.6294,8.6254,8.6311,8.6431,8.6838,8.6995,8.7064,8.7563,8.8753,9.0206,9.1446,9.3402,9.5547,9.6716,9.7614,9.8365,9.9135,9.9365,9.9038,9.7547,9.6776,9.6042,9.466,9.3956,9.35,9.3202,9.3014,9.2858,9.2434,9.2055,9.1803,9.1803,9.1803,9.1546,9.0739,9.1693,9.1657,8.9234,8.9968,9.0445,8.9638,8.9784,9.0298,9.1179,9.1583,9.1803,9.1803,9.1803,9.1803,9.1803,9.2229,9.2633,9.2987,9.3417,9.3764,9.4102,9.3387,9.2764,9.2279,9.1936,9.162,9.1253,9.1253,9.0776,8.9931,8.9529,8.9124,8.861,8.8683,8.8463,8.8096,8.8169,8.7949,8.7545,8.7545,8.7545,8.7545]}]]